Date StartTime U_cm/s V_cm/s W_cm/s Ustd_cm/s Vstd_cm/s Wstd_cm/s Uvar_(cm/s)^2 Vvar_(cm/s)^2 Wvar_(cm/s)^2 KE_(m/s)^2 TurbulentKE_(m/s)^2 HorizWindSpeed_cm/s FrictionSpeec_cm/s DragCoef SpeedOfSound_m/s SonicTemperature_C Pressure_mb 
10/23/2014  00:00:00       16.102       11.273       13.184       13.554       13.375       20.477      183.715      178.890      419.320        0.067        0.039       19.656       15.053        0.586      339.752       13.300      862.272
10/23/2014  00:01:00       51.003        8.329        3.544       23.781       13.089       19.203      565.515      171.311      368.738        0.189        0.055       51.679       16.437        0.101      339.950       13.635      862.295
10/23/2014  00:02:00       71.349       -4.089        5.663       25.978       17.330       18.356      674.880      300.314      336.952        0.323        0.066       71.466       14.579        0.042      339.962       13.655      862.323
10/23/2014  00:03:00       16.637        2.992        0.559       19.185       16.046       20.616      368.065      257.464      425.008        0.067        0.053       16.904       10.833        0.411      339.529       12.926      862.413
10/23/2014  00:04:00       48.038       -4.578        3.935       29.503       19.744       21.120      870.444      389.826      446.034        0.202        0.085       48.255       18.819        0.152      339.467       12.819      862.460
10/23/2014  00:05:00       40.517       37.618        3.206       32.633       22.967       17.048     1064.940      527.474      290.643        0.247        0.094       55.288       10.895        0.039      339.470       12.826      862.429
10/23/2014  00:06:00       22.627       41.777       -6.199       27.270       24.215       16.017      743.657      586.349      256.541        0.194        0.079       47.511       14.920        0.099      339.847       13.460      862.396
10/23/2014  00:07:00        1.373       44.751      -10.236       14.291       20.556        5.574      204.234      422.544       31.069        0.138        0.033       44.772        7.218        0.026      340.180       14.022      862.439
10/23/2014  00:08:00       -9.244       50.603       -9.643       23.753        9.821        7.210      564.194       96.460       51.987        0.173        0.036       51.441        7.536        0.021      340.148       13.969      862.479
10/23/2014  00:09:00       27.897       66.373       -5.028       51.443       26.157       26.517     2646.421      684.169      703.127        0.462        0.202       71.997       31.113        0.187      340.202       14.061      862.460
10/23/2014  00:10:00       79.530       68.216      -16.427       42.962       29.183       22.509     1845.767      851.625      506.638        0.723        0.160      104.778       28.899        0.076      340.206       14.066      862.406
10/23/2014  00:11:00       57.926       45.269       -9.066       80.701       34.304       23.767     6512.700     1176.766      564.855        0.687        0.413       73.517        5.319        0.005      340.307       14.237      862.317
10/23/2014  00:12:00        5.747       23.965       -0.246       37.213       22.631       21.351     1384.821      512.155      455.863        0.148        0.118       24.644        6.845        0.077      340.067       13.832      862.284
10/23/2014  00:13:00       52.599        1.683       13.387       19.999       30.867       20.238      399.959      952.749      409.567        0.236        0.088       52.626       18.515        0.124      339.737       13.276      862.315
10/23/2014  00:14:00       45.365      -19.749       13.844       28.314       29.892       24.490      801.675      893.556      599.749        0.247        0.115       49.478       24.762        0.250      339.551       12.962      862.401
10/23/2014  00:15:00       15.446      -25.042        2.043       21.243       20.311       14.242      451.255      412.554      202.846        0.097        0.053       29.423       13.701        0.217      339.964       13.658      862.456
10/23/2014  00:16:00       -4.768      -13.797        3.520       18.540       11.802        9.251      343.736      139.278       85.580        0.040        0.028       14.597        3.447        0.056      339.890       13.534      862.453
10/23/2014  00:17:00       44.571       10.665        7.566       25.293       27.440       17.181      639.750      752.968      295.200        0.192        0.084       45.830        8.022        0.031      339.643       13.118      862.414
10/23/2014  00:18:00       30.012      -43.878       -6.583       25.799       19.098       15.291      665.581      364.740      233.804        0.207        0.063       53.160       10.346        0.038      340.220       14.091      862.461
10/23/2014  00:19:00       22.975       14.272       18.972       25.073       34.713       24.617      628.633     1204.995      606.008        0.177        0.122       27.046       14.164        0.274      339.763       13.320      862.502
10/23/2014  00:20:00       46.984       38.718       42.106       50.770       35.139       35.185     2577.627     1234.717     1237.955        0.526        0.253       60.882       36.624        0.362      339.429       12.757      862.501
10/23/2014  00:21:00       27.524      -26.820        9.770       34.233       18.363       22.441     1171.920      337.211      503.606        0.179        0.101       38.430        9.122        0.056      339.424       12.747      862.537
10/23/2014  00:22:00       12.420      -21.093        1.655       18.241       24.765       15.382      332.717      613.309      236.620        0.089        0.059       24.478       13.096        0.286      339.544       12.950      862.586
10/23/2014  00:23:00        7.994       16.150       -9.414       11.001        7.143        6.251      121.015       51.025       39.076        0.031        0.011       18.020        3.438        0.036      339.904       13.557      862.568
10/23/2014  00:24:00       39.169       39.770       -5.590       16.735       17.507        8.636      280.045      306.501       74.589        0.190        0.033       55.820        8.859        0.025      340.044       13.793      862.512
10/23/2014  00:25:00       21.084       19.925        1.279       32.089       20.738       18.607     1029.708      430.084      346.224        0.132        0.090       29.009       17.730        0.374      340.078       13.850      862.498
10/23/2014  00:26:00       64.816       -7.916        2.072       16.587       19.170       22.555      275.133      367.487      508.722        0.271        0.058       65.298       13.130        0.040      339.607       13.055      862.527
10/23/2014  00:27:00       44.816      -25.675        0.880       25.359       22.372       14.578      643.075      500.502      212.519        0.201        0.068       51.650        9.734        0.036      339.603       13.050      862.575
10/23/2014  00:28:00       26.488      -23.268       11.275       29.851       27.489       21.860      891.106      755.670      477.838        0.175        0.106       35.257       18.744        0.283      339.713       13.235      862.600
10/23/2014  00:29:00      -21.613      -47.945       14.434       19.394       22.574       13.278      376.130      509.573      176.301        0.202        0.053       52.592       12.975        0.061      340.344       14.300      862.555
10/23/2014  00:30:00      -62.621       14.613       -2.360       23.836       25.143       15.893      568.175      632.148      252.586        0.280        0.073       64.303       12.211        0.036      340.605       14.741      862.488
10/23/2014  00:31:00      -29.063       27.581       -8.586       16.352       15.926       10.155      267.373      253.647      103.130        0.115        0.031       40.067       13.050        0.106      340.611       14.750      862.461
10/23/2014  00:32:00       -6.358      -22.223       -3.815        8.435       16.886        9.344       71.145      285.126       87.301        0.050        0.022       23.115       10.246        0.196      340.303       14.230      862.442
10/23/2014  00:33:00       30.828       -4.998        4.725       18.341       17.830       10.887      336.389      317.898      118.518        0.089        0.039       31.231        8.910        0.081      339.932       13.604      862.430
10/23/2014  00:34:00       54.625      -38.668       -3.658       22.044       19.812       15.109      485.949      392.507      228.293        0.280        0.055       66.927       11.127        0.028      339.627       13.089      862.426
10/23/2014  00:35:00        8.946       20.800        1.782       18.050       26.289       12.381      325.812      691.112      153.279        0.084        0.059       22.642       12.039        0.283      339.326       12.583      862.419
10/23/2014  00:36:00       34.428       53.507        7.055       14.813       20.599       16.779      219.438      424.315      281.529        0.251        0.046       63.626        5.273        0.007      339.483       12.848      862.422
10/23/2014  00:37:00       12.839      -12.721       11.678       28.836       31.676       22.221      831.513     1003.344      493.773        0.140        0.116       18.074       19.806        1.201      339.271       12.489      862.425
10/23/2014  00:38:00        0.371      -15.419       -3.474       33.503       25.553       23.500     1122.444      652.979      552.244        0.129        0.116       15.423       13.423        0.757      339.224       12.411      862.419
10/23/2014  00:39:00      -23.628      -11.566        1.182       17.097       34.170       15.364      292.309     1167.616      236.060        0.119        0.085       26.307       13.932        0.280      339.422       12.745      862.456
10/23/2014  00:40:00       21.493       -2.709       16.698       19.232       12.690       18.251      369.863      161.047      333.109        0.081        0.043       21.663       11.309        0.273      339.465       12.817      862.470
10/23/2014  00:41:00       44.742      -68.308      -12.144       33.773       31.144       21.619     1140.609      969.944      467.395        0.470        0.129       81.657       18.621        0.052      339.642       13.115      862.464
10/23/2014  00:42:00       23.282      -40.633        8.521       26.260       33.297       23.319      689.583     1108.671      543.765        0.230        0.117       46.830       20.671        0.195      339.531       12.928      862.430
10/23/2014  00:43:00       19.399       29.064       11.794       18.322       29.890       20.673      335.703      893.440      427.354        0.151        0.083       34.943       15.922        0.208      339.172       12.323      862.360
10/23/2014  00:44:00       38.484       28.746      -17.097       12.576       27.725       13.646      158.153      768.696      186.210        0.186        0.056       48.035        7.724        0.026      339.350       12.625      862.332
10/23/2014  00:45:00       19.708       -2.372       -1.243       21.696       10.360       13.854      470.717      107.325      191.939        0.058        0.038       19.850       15.152        0.583      339.223       12.408      862.345
10/23/2014  00:46:00       31.410        8.088       -2.813        9.555       18.803       14.301       91.290      353.554      204.506        0.085        0.032       32.434       11.334        0.122      339.502       12.880      862.305
10/23/2014  00:47:00       27.539      -36.783       -6.319       23.607       22.462       16.506      557.285      504.531      272.464        0.174        0.067       45.950       12.058        0.069      339.222       12.407      862.276
10/23/2014  00:48:00       36.731      -36.444       12.020       43.280       29.438       21.172     1873.196      866.600      448.237        0.300        0.159       51.743       25.976        0.252      339.354       12.630      862.258
10/23/2014  00:49:00      -64.829       42.200        3.796       20.497       27.691       15.944      420.107      766.799      254.214        0.372        0.072       77.354        8.046        0.011      339.849       13.464      862.250
10/23/2014  00:50:00      -55.256       96.130      -11.242       30.451       33.643       23.562      927.275     1131.855      555.147        0.752        0.131      110.879       21.112        0.036      339.704       13.220      862.208
10/23/2014  00:51:00      -13.372       60.657        7.643       26.450       43.927       21.727      699.605     1929.539      472.070        0.351        0.155       62.113       25.098        0.163      339.621       13.080      862.230
10/23/2014  00:52:00       36.685      -14.600        1.496       30.779       32.486       19.020      947.321     1055.342      361.771        0.196        0.118       39.483       13.107        0.110      339.378       12.671      862.298
10/23/2014  00:53:00       20.371      -15.253       19.635       32.709       38.887       31.089     1069.909     1512.198      966.503        0.229        0.177       25.449       22.798        0.802      339.040       12.101      862.370
10/23/2014  00:54:00       23.333       10.518       13.813       31.745       32.756       26.429     1007.759     1072.941      698.510        0.181        0.139       25.594       12.995        0.258      338.961       11.969      862.388
10/23/2014  00:55:00       45.471       21.920        7.901       31.244       32.184       15.843      976.156     1035.792      251.011        0.244        0.113       50.479       12.202        0.058      339.079       12.168      862.390
10/23/2014  00:56:00       83.889       49.062       14.514       39.324       24.436       22.194     1546.370      597.135      492.587        0.615        0.132       97.182       19.931        0.042      339.637       13.108      862.381
10/23/2014  00:57:00       87.516       58.959       19.557       26.897       15.530       17.478      723.463      241.194      305.473        0.639        0.064      105.524       11.583        0.012      339.834       13.439      862.379
10/23/2014  00:58:00       59.491       27.260       18.033       17.529       20.228       17.603      307.266      409.165      309.851        0.282        0.051       65.440       10.910        0.028      339.779       13.345      862.393
10/23/2014  00:59:00       37.673       22.586       29.677       29.205       27.053       22.326      852.947      731.881      498.458        0.245        0.104       43.925       19.301        0.193      339.575       13.003      862.391
10/23/2014  01:00:00       17.017       17.870       25.324       26.588       26.154       14.299      706.930      684.037      204.471        0.142        0.080       24.676        7.722        0.098      339.248       12.450      862.384
10/23/2014  01:01:00      100.267       65.297       38.409       40.997       26.116       30.796     1680.782      682.069      948.383        0.955        0.166      119.654       19.660        0.027      339.353       12.629      862.357
10/23/2014  01:02:00       97.538       48.734       11.443       35.586       31.349       25.878     1266.390      982.785      669.695        0.747        0.146      109.035       16.601        0.023      339.535       12.936      862.352
10/23/2014  01:03:00       31.505       55.633       50.324       24.371       21.506       20.589      593.932      462.526      423.894        0.405        0.074       63.934       15.634        0.060      339.389       12.690      862.377
10/23/2014  01:04:00       47.577       23.190       22.932       36.657       29.908       24.319     1343.750      894.461      591.406        0.308        0.141       52.927       18.817        0.126      339.457       12.803      862.411
10/23/2014  01:05:00       18.623        3.605       11.848       21.456       23.577       17.165      460.356      555.858      294.651        0.091        0.066       18.968       15.965        0.708      339.227       12.414      862.439
10/23/2014  01:06:00       62.304       50.872       35.941       33.548       14.938       19.505     1125.447      223.134      380.444        0.474        0.086       80.434        8.558        0.011      339.277       12.499      862.449
10/23/2014  01:07:00       87.348       52.570       25.652       32.394       35.020       24.878     1049.393     1226.376      618.923        0.697        0.145      101.947       19.346        0.036      339.436       12.768      862.436
10/23/2014  01:08:00      105.606       59.617       18.970       26.561       26.272       23.070      705.478      690.205      532.232        0.850        0.096      121.271        9.246        0.006      339.646       13.121      862.434
10/23/2014  01:09:00       66.408       31.197       27.028       29.424       20.021       12.923      865.762      400.823      166.998        0.377        0.072       73.371        1.818        0.001      339.526       12.919      862.434
10/23/2014  01:10:00       21.715      -14.001      -12.008       45.461       24.947       14.814     2066.679      622.354      219.460        0.186        0.145       25.837        6.605        0.065      339.269       12.487      862.458
10/23/2014  01:11:00      -30.179      -11.632        2.070       10.710       18.624        6.867      114.706      346.841       47.161        0.078        0.025       32.343        6.041        0.035      339.209       12.386      862.499
10/23/2014  01:12:00      -55.316       15.475       -4.620       13.220       13.798        6.443      174.761      190.383       41.515        0.186        0.020       57.439        3.578        0.004      339.231       12.423      862.528
10/23/2014  01:13:00      -45.650       27.977       -6.776       23.488        8.321        9.158      551.691       69.232       83.862        0.181        0.035       53.541       12.019        0.050      339.455       12.801      862.531
10/23/2014  01:14:00       -7.765       17.678        3.203       11.437       10.350        6.982      130.803      107.130       48.749        0.033        0.014       19.309        7.034        0.133      339.802       13.384      862.501
10/23/2014  01:15:00      -54.560      -10.279       -8.649       21.528       25.992        6.762      463.453      675.587       45.730        0.217        0.059       55.520        6.264        0.013      339.615       13.069      862.491
10/23/2014  01:16:00      -50.119      -42.799       -6.955       44.991       19.422       17.277     2024.162      377.218      298.480        0.355        0.135       65.907       20.892        0.100      339.188       12.348      862.502
10/23/2014  01:17:00      -30.544      -44.766       -5.868       28.071       19.321       10.169      787.985      373.285      103.414        0.212        0.063       54.193        3.192        0.003      339.552       12.964      862.505
10/23/2014  01:18:00       -8.687      -19.092        5.578       28.644       19.646       20.088      820.504      385.976      403.546        0.104        0.081       20.975       16.456        0.615      339.928       13.598      862.494
10/23/2014  01:19:00       -0.661      -13.860       -0.858       16.983        9.666        8.702      288.413       93.435       75.729        0.033        0.023       13.876        4.306        0.096      340.221       14.092      862.475
10/23/2014  01:20:00       41.448        0.127        4.271       16.962       16.844       15.191      287.708      283.729      230.766        0.127        0.040       41.449        6.323        0.023      339.818       13.414      862.450
10/23/2014  01:21:00       68.180       20.678        5.675       22.738       22.604       16.970      516.999      510.955      287.972        0.321        0.066       71.247       15.337        0.046      339.718       13.243      862.413
10/23/2014  01:22:00       74.757       32.222       22.926       25.345       36.536       25.341      642.370     1334.850      642.146        0.489        0.131       81.405       12.421        0.023      339.935       13.610      862.371
10/23/2014  01:23:00       32.156        6.771       11.137       29.619       25.710       20.814      877.314      661.018      433.238        0.159        0.099       32.861       21.303        0.420      339.441       12.777      862.350
10/23/2014  01:24:00       43.399       18.032       21.465       24.983       36.566       21.518      624.162     1337.092      463.008        0.255        0.121       46.996       17.596        0.140      339.262       12.474      862.359
10/23/2014  01:25:00      -19.278      -27.266       -4.341       33.263       17.425       12.489     1106.401      303.633      155.965        0.135        0.078       33.393        6.642        0.040      339.263       12.475      862.369
10/23/2014  01:26:00      -78.971      -19.817       -7.753       17.223       15.641       13.063      296.617      244.630      170.636        0.370        0.036       81.420        8.641        0.011      339.100       12.201      862.384
10/23/2014  01:27:00     -108.054      -10.674       -9.257       26.930       18.847       13.109      725.226      355.202      171.853        0.656        0.063      108.580       12.347        0.013      339.165       12.312      862.373
10/23/2014  01:28:00     -111.396       -0.109       -8.791       27.001       25.305        6.952      729.070      640.319       48.331        0.695        0.071      111.396        7.970        0.005      339.503       12.882      862.334
10/23/2014  01:29:00      -40.808      -29.293       -3.950       13.132       13.532        6.226      172.457      183.128       38.767        0.147        0.020       50.233        5.532        0.012      339.368       12.653      862.300
10/23/2014  01:30:00       -2.674      -12.963        3.301       18.314       14.831        4.741      335.397      219.971       22.475        0.038        0.029       13.236        6.553        0.245      339.577       13.006      862.279
10/23/2014  01:31:00       39.908       14.514        7.019       24.895        8.836        8.083      619.785       78.081       65.342        0.131        0.038       42.466        6.119        0.021      339.475       12.833      862.230
10/23/2014  01:32:00       52.355       12.418        0.099       28.848       22.058       11.909      832.189      486.534      141.816        0.218        0.073       53.808        8.165        0.023      339.550       12.961      862.177
10/23/2014  01:33:00       -0.462      -18.349       -2.170       15.652       24.320        6.029      244.979      591.439       36.344        0.061        0.044       18.355        4.193        0.052      339.425       12.749      862.169
10/23/2014  01:34:00       35.521      -28.792      -10.856       22.386       22.421       12.195      501.127      502.707      148.706        0.168        0.058       45.725        6.580        0.021      339.436       12.769      862.187
10/23/2014  01:35:00       59.664      -25.938       11.230       18.367       24.993       18.009      337.333      624.640      324.313        0.282        0.064       65.059        7.687        0.014      339.254       12.463      862.192
10/23/2014  01:36:00       54.380      -14.440        7.129       14.390       16.033       16.186      207.075      257.051      261.978        0.197        0.036       56.265        9.836        0.031      339.252       12.458      862.192
10/23/2014  01:37:00       23.117       -0.768        8.426       22.105       13.423       16.402      488.648      180.174      269.032        0.077        0.047       23.129       11.183        0.234      339.441       12.777      862.200
10/23/2014  01:38:00       10.251       29.248       31.259       14.778       15.558       11.222      218.402      242.057      125.932        0.126        0.029       30.992        6.641        0.046      339.349       12.622      862.203
10/23/2014  01:39:00       25.740       13.255       12.699       24.287       16.764       14.725      589.863      281.016      216.829        0.104        0.054       28.953       16.135        0.311      339.296       12.531      862.204
10/23/2014  01:40:00       63.370       -6.066        4.404       12.843       13.561       16.903      164.941      183.907      285.710        0.235        0.032       63.660       10.404        0.027      339.338       12.603      862.213
10/23/2014  01:41:00       48.140      -13.106       -5.477       17.021       14.293       11.380      289.726      204.300      129.509        0.157        0.031       49.892        6.556        0.017      339.400       12.708      862.239
10/23/2014  01:42:00      -21.290       -5.146        7.998       46.258       15.012       15.536     2139.757      225.364      241.376        0.157        0.130       21.904       21.592        0.972      339.062       12.138      862.271
10/23/2014  01:43:00      -93.381      -20.599      -16.923       16.289       18.167       15.795      265.345      330.056      249.484        0.514        0.042       95.626        8.127        0.007      338.782       11.666      862.302
10/23/2014  01:44:00     -113.152       -2.981      -19.147       16.716       13.357        9.564      279.409      178.399       91.471        0.686        0.027      113.191        1.524        0.000      338.905       11.873      862.311
10/23/2014  01:45:00     -156.016      -11.112      -24.251       18.414       11.435       10.402      339.067      130.762      108.209        1.282        0.029      156.412        7.578        0.002      338.723       11.568      862.312
10/23/2014  01:46:00      -89.141      -48.774       -6.788       31.207       28.603       20.892      973.890      818.123      436.486        0.630        0.111      101.613       17.158        0.029      338.522       11.230      862.319
10/23/2014  01:47:00      -87.875      -16.902      -21.836       32.562       37.734       14.639     1060.278     1423.864      214.292        0.559        0.135       89.486        6.350        0.005      338.718       11.561      862.314
10/23/2014  01:48:00      -88.434       11.826      -14.679       13.857       11.081        9.381      192.008      122.784       88.003        0.429        0.020       89.222        8.116        0.008      339.369       12.654      862.294
10/23/2014  01:49:00      -20.223      -14.959        2.224       16.233        7.369        6.647      263.526       54.298       44.176        0.050        0.018       25.155        5.634        0.050      339.210       12.387      862.285
10/23/2014  01:50:00      -61.086      -17.999       -7.795       54.113       16.254       11.659     2928.204      264.207      135.937        0.372        0.166       63.682       22.132        0.121      338.753       11.618      862.278
10/23/2014  01:51:00     -149.037      -51.223      -22.032       30.164       29.022       19.413      909.845      842.286      376.878        1.372        0.106      157.594       15.649        0.010      338.284       10.832      862.271
10/23/2014  01:52:00      -79.151      -57.670      -15.422       38.623       29.588       24.062     1491.726      875.464      578.970        0.639        0.147       97.932       22.884        0.055      338.313       10.880      862.265
10/23/2014  01:53:00      -50.403      -49.996        9.684       55.806       43.529       28.159     3114.275     1894.786      792.913        0.547        0.290       70.993       29.046        0.167      338.427       11.069      862.247
10/23/2014  01:54:00     -103.408      -81.798       -3.913       26.083       24.846       17.686      680.321      617.347      312.802        0.950        0.081      131.849       12.397        0.009      338.725       11.572      862.225
10/23/2014  01:55:00      -92.747      -46.832       -3.781       43.419       24.982       13.590     1885.171      624.086      184.687        0.675        0.135      103.900        8.166        0.006      338.767       11.641      862.163
10/23/2014  01:56:00      -45.233      -19.502        1.036       26.054       20.390       15.195      678.829      415.770      230.874        0.188        0.066       49.258       14.916        0.092      338.613       11.383      862.119
10/23/2014  01:57:00        1.659      -20.524        2.628       14.728       14.256       10.029      216.904      203.238      100.581        0.048        0.026       20.591        9.580        0.216      338.622       11.395      862.111
10/23/2014  01:58:00      -10.036      -19.854       -5.648       15.008        7.907       13.428      225.248       62.518      180.305        0.050        0.023       22.246        6.323        0.081      338.748       11.608      862.098
10/23/2014  01:59:00     -119.216      -47.510       -5.539       38.088       21.834       17.926     1450.715      476.737      321.355        0.937        0.112      128.334       14.383        0.013      338.769       11.645      862.088
10/23/2014  02:00:00     -166.765      -46.516       -7.413       23.825       26.785       15.059      567.624      717.437      226.760        1.577        0.076      173.131        9.380        0.003      338.455       11.118      862.097
10/23/2014  02:01:00     -164.087      -39.295       -2.526       41.650       36.436       22.820     1734.701     1327.581      520.735        1.603        0.179      168.727       18.944        0.013      338.373       10.980      862.132
10/23/2014  02:02:00     -163.618      -27.320       -8.239       59.331       51.806       33.622     3520.224     2683.893     1130.450        1.746        0.367      165.883       33.096        0.040      338.270       10.807      862.153
10/23/2014  02:03:00     -148.087        9.773      -16.232       32.914       37.691       26.711     1083.307     1420.644      713.464        1.275        0.161      148.409       17.112        0.013      338.384       10.999      862.156
10/23/2014  02:04:00     -110.528        1.498       -8.114       51.973       32.460       22.170     2701.143     1053.646      491.490        0.826        0.212      110.538       27.334        0.061      338.644       11.435      862.141
10/23/2014  02:05:00     -111.522       -3.593      -10.797       28.661       25.766       14.677      821.433      663.872      215.417        0.713        0.085      111.580       10.033        0.008      338.904       11.873      862.133
10/23/2014  02:06:00      -55.520      -35.317        0.166       26.352       16.495       13.699      694.433      272.071      187.675        0.274        0.058       65.801       12.665        0.037      338.906       11.876      862.131
10/23/2014  02:07:00      -95.569      -48.235       -6.797       25.820       22.987       14.960      666.696      528.404      223.795        0.646        0.071      107.052        9.172        0.007      338.691       11.515      862.131
10/23/2014  02:08:00     -126.988      -58.131      -12.155       21.887       20.143       11.108      479.033      405.727      123.389        1.033        0.050      139.661        3.912        0.001      338.500       11.194      862.150
10/23/2014  02:09:00     -102.360      -62.767       -0.807       28.366       17.749       16.545      804.650      315.026      273.742        0.791        0.070      120.072       13.819        0.013      338.269       10.806      862.185
10/23/2014  02:10:00     -125.407      -40.635       -7.241       31.668       37.289       17.161     1002.881     1390.456      294.496        1.006        0.134      131.826       15.380        0.014      338.372       10.978      862.193
10/23/2014  02:11:00     -134.907       -4.987       -9.784       25.942       16.447       16.071      672.976      270.503      258.268        0.976        0.060      134.999       15.121        0.013      338.507       11.206      862.197
10/23/2014  02:12:00     -138.687        4.283      -12.520       13.766       13.698        8.495      189.496      187.629       72.161        0.993        0.022      138.753        7.396        0.003      338.792       11.685      862.204
10/23/2014  02:13:00     -121.808       -7.127      -16.666       14.465       15.077       11.343      209.234      227.322      128.658        0.787        0.028      122.017        2.661        0.000      338.722       11.568      862.215
10/23/2014  02:14:00     -129.443        7.486      -15.948       16.343       15.111        7.835      267.096      228.340       61.393        0.881        0.028      129.659        4.810        0.001      339.074       12.159      862.194
10/23/2014  02:15:00     -101.105      -25.948      -11.467       28.662       29.711       16.382      821.485      882.719      268.362        0.650        0.099      104.382       18.546        0.032      338.748       11.611      862.180
10/23/2014  02:16:00     -101.743      -37.558      -13.839       34.528       28.065       15.054     1192.160      787.630      226.633        0.708        0.110      108.454       11.708        0.012      338.466       11.137      862.183
10/23/2014  02:17:00      -84.131      -20.456       -8.481       36.814       31.603       17.987     1355.268      998.781      323.547        0.512        0.134       86.582       16.711        0.037      338.278       10.820      862.210
10/23/2014  02:18:00     -104.647      -35.916       -3.651       29.916       29.326       19.261      894.956      860.033      370.993        0.719        0.106      110.638       11.283        0.010      338.247       10.768      862.217
10/23/2014  02:19:00      -53.934      -19.896        5.146       35.478       30.046       21.922     1258.690      902.787      480.556        0.299        0.132       57.487       21.614        0.141      338.220       10.725      862.194
10/23/2014  02:20:00     -104.256      -16.357        1.347       46.655       33.237       19.982     2176.693     1104.724      399.283        0.741        0.184      105.531       15.384        0.021      338.268       10.804      862.154
10/23/2014  02:21:00      -83.952      -47.117        0.634       38.553       35.345       20.808     1486.344     1249.264      432.956        0.622        0.158       96.271       17.721        0.034      338.257       10.786      862.125
10/23/2014  02:22:00      -35.972       -1.719       -3.792       23.739       25.283       18.980      563.539      639.213      360.228        0.144        0.078       36.013       14.879        0.171      338.275       10.815      862.084
10/23/2014  02:23:00      -21.130        3.551        0.984       12.560       14.936        8.995      157.757      223.083       80.913        0.046        0.023       21.427        7.391        0.119      338.338       10.923      862.059
10/23/2014  02:24:00       13.594       24.251       -0.044       13.353        9.692        6.000      178.315       93.937       35.995        0.054        0.015       27.801        5.888        0.045      338.551       11.280      862.065
10/23/2014  02:25:00      -42.856        5.721       -4.919       15.384       19.322        5.314      236.657      373.343       28.243        0.127        0.032       43.236        4.896        0.013      338.677       11.491      862.096
10/23/2014  02:26:00      -75.767      -20.433      -13.466       21.830        9.277        9.697      476.549       86.069       94.039        0.350        0.033       78.474        9.902        0.016      338.235       10.749      862.125
10/23/2014  02:27:00      -80.830      -21.690       -8.609       20.710       15.793       12.543      428.891      249.404      157.322        0.396        0.042       83.690        8.826        0.011      338.244       10.764      862.146
10/23/2014  02:28:00      -56.137      -31.513      -15.119       16.941       18.650       13.477      287.010      347.812      181.633        0.259        0.041       64.377        4.897        0.006      338.238       10.752      862.162
10/23/2014  02:29:00      -83.021      -16.420      -14.425       13.049       13.214        7.805      170.274      174.622       60.920        0.389        0.020       84.630        5.442        0.004      338.462       11.130      862.154
10/23/2014  02:30:00      -68.686        4.996      -12.079       15.935        5.634        6.969      253.916       31.738       48.560        0.261        0.017       68.867        6.819        0.010      338.488       11.174      862.128
10/23/2014  02:31:00      -38.441       19.347       -6.383        7.205        5.881        6.001       51.915       34.581       36.016        0.101        0.006       43.035        5.271        0.015      339.114       12.226      862.106
10/23/2014  02:32:00      -14.052      -10.068        3.913       10.003       28.615        7.841      100.062      818.824       61.474        0.065        0.049       17.287        2.615        0.023      338.957       11.960      862.077
10/23/2014  02:33:00      -20.334      -48.124       -4.200       20.672       12.806       12.749      427.334      163.987      162.538        0.175        0.038       52.244        9.788        0.035      338.543       11.264      862.082
10/23/2014  02:34:00      -99.595      -64.147      -18.001       40.674       20.176       13.658     1654.371      407.069      186.549        0.830        0.112      118.465       10.270        0.008      338.155       10.614      862.140
10/23/2014  02:35:00     -138.979      -45.169      -21.211       14.587       11.442        7.889      212.768      130.926       62.231        1.111        0.020      146.135        6.785        0.002      338.231       10.741      862.201
10/23/2014  02:36:00     -103.765      -29.194      -10.081       21.086       14.212       15.302      444.624      201.973      234.164        0.630        0.044      107.794       14.195        0.017      338.173       10.644      862.239
10/23/2014  02:37:00      -91.222      -17.327       -8.271       20.194       22.038       14.151      407.789      485.659      200.258        0.489        0.055       92.853       11.615        0.016      338.285       10.832      862.247
10/23/2014  02:38:00      -67.747       15.996       -7.774       12.228        8.842        6.095      149.517       78.189       37.148        0.259        0.013       69.610        5.271        0.006      338.619       11.394      862.215
10/23/2014  02:39:00      -34.154       44.937       -9.001        7.799       16.252        7.565       60.828      264.111       57.223        0.182        0.019       56.443        7.708        0.019      339.397       12.702      862.180
10/23/2014  02:40:00      -24.298      -31.744       -6.038       13.844       27.834        8.301      191.646      774.738       68.906        0.133        0.052       39.976        7.721        0.037      338.805       11.706      862.166
10/23/2014  02:41:00        7.153      -48.893       -7.856       18.756       18.833       14.821      351.793      354.663      219.655        0.171        0.046       49.413        7.799        0.025      338.328       10.905      862.187
10/23/2014  02:42:00      -66.567      -23.041      -16.746       21.367       14.618        7.516      456.543      213.694       56.485        0.298        0.036       70.442        7.569        0.012      338.273       10.813      862.211
10/23/2014  02:43:00     -114.789        5.436      -18.375       21.731       18.202       11.296      472.224      331.318      127.604        0.724        0.047      114.917        4.888        0.002      338.289       10.840      862.202
10/23/2014  02:44:00      -80.674      -42.473       -0.973       36.855       23.121       19.025     1358.271      534.598      361.968        0.528        0.113       91.171       18.619        0.042      338.042       10.424      862.185
10/23/2014  02:45:00     -115.030      -29.930       -1.990       23.727       19.488       14.457      562.991      379.784      209.000        0.764        0.058      118.860       10.035        0.007      338.085       10.497      862.171
10/23/2014  02:46:00     -113.171       -2.025      -11.651       24.156       29.152       17.123      583.504      849.844      293.183        0.734        0.086      113.189       15.902        0.020      338.053       10.444      862.151
10/23/2014  02:47:00      -87.741       56.422      -20.316       13.974       24.924       11.628      195.272      621.186      135.208        0.612        0.048      104.316        8.651        0.007      338.404       11.034      862.113
10/23/2014  02:48:00      -73.093       80.079      -25.003       17.748       18.652        8.766      315.008      347.907       76.840        0.656        0.037      108.421        6.856        0.004      338.907       11.877      862.066
10/23/2014  02:49:00      -73.126        1.108      -15.954       20.592       36.700       12.310      424.012     1346.865      151.535        0.376        0.096       73.134       11.197        0.023      338.438       11.090      862.084
10/23/2014  02:50:00      -86.197      -39.247      -22.981       28.451       25.102       22.281      809.444      630.111      496.426        0.572        0.097       94.711       13.018        0.019      338.049       10.436      862.109
10/23/2014  02:51:00     -104.238      -40.318      -19.983       35.356       33.063       19.527     1250.031     1093.195      381.321        0.781        0.136      111.764        7.014        0.004      337.932       10.240      862.118
10/23/2014  02:52:00      -66.036      -37.085       -1.737       36.550       28.104       23.935     1335.880      789.832      572.905        0.422        0.135       75.737       22.237        0.086      337.876       10.146      862.110
10/23/2014  02:53:00      -64.669      -34.969       -7.766       24.062       36.088       17.657      578.980     1302.379      311.787        0.383        0.110       73.518        8.902        0.015      337.851       10.105      862.083
10/23/2014  02:54:00      -74.342        2.479      -13.725       15.232       16.611        9.644      232.024      275.939       93.014        0.316        0.030       74.383        6.478        0.008      337.926       10.228      862.047
10/23/2014  02:55:00      -39.549       46.997      -12.962        9.854       19.761        7.245       97.108      390.507       52.487        0.224        0.027       61.424        6.961        0.013      339.176       12.331      862.019
10/23/2014  02:56:00      -52.606       47.889      -14.518       10.957       13.862        6.024      120.046      192.144       36.287        0.281        0.017       71.139        4.756        0.004      339.600       13.044      862.015
10/23/2014  02:57:00      -64.539      -22.365      -10.739       11.063       24.702        8.298      122.401      610.201       68.863        0.279        0.040       68.304        8.899        0.017      338.547       11.273      862.019
10/23/2014  02:58:00     -102.435      -38.491      -15.425       32.702       18.733       10.454     1069.400      350.930      109.287        0.687        0.076      109.428        6.541        0.004      337.894       10.176      862.019
10/23/2014  02:59:00     -141.789      -48.039      -22.174       21.518       28.884       17.413      463.044      834.276      303.221        1.225        0.080      149.706        9.295        0.004      337.801       10.020      861.990
10/23/2014  03:00:00     -160.080        2.060      -23.194       43.928       34.160       26.113     1929.640     1166.909      681.899        1.497        0.189      160.093       23.248        0.021      337.808       10.033      861.956
10/23/2014  03:01:00     -155.537       17.018      -19.632       42.393       43.211       22.162     1797.153     1867.192      491.151        1.451        0.208      156.465       20.902        0.018      337.871       10.139      861.942
10/23/2014  03:02:00      -94.897       39.545      -12.490       39.267       43.237       24.098     1541.875     1869.453      580.714        0.736        0.200      102.806       13.060        0.016      338.155       10.614      861.949
10/23/2014  03:03:00      -95.253       49.232      -12.210       55.752       45.008       29.661     3108.329     2025.740      879.797        0.883        0.301      107.224       21.989        0.042      338.494       11.185      861.961
10/23/2014  03:04:00     -101.555       42.889      -20.688       35.723       33.339       21.742     1276.143     1111.479      472.713        0.772        0.143      110.241       19.070        0.030      338.458       11.122      861.990
10/23/2014  03:05:00      -45.198       -3.890      -11.442       24.095       31.550       14.390      580.569      995.428      207.078        0.199        0.089       45.365       13.150        0.084      338.385       11.001      861.975
10/23/2014  03:06:00      -74.315      -11.627       -5.417       27.141       18.928       14.928      736.623      358.263      222.840        0.350        0.066       75.219        8.328        0.012      338.184       10.663      861.956
10/23/2014  03:07:00     -137.736      -72.998      -19.392       30.541       29.055       15.002      932.768      844.183      225.057        1.334        0.100      155.885        9.876        0.004      337.876       10.146      861.942
10/23/2014  03:08:00     -164.531      -40.079       -6.465       42.740       32.925       26.370     1826.668     1084.029      695.360        1.616        0.180      169.342       26.202        0.024      337.774        9.977      861.924
10/23/2014  03:09:00     -186.878      -32.706      -13.246       50.953       37.646       24.199     2596.259     1417.231      585.606        2.038        0.230      189.718       22.924        0.015      337.834       10.073      861.881
10/23/2014  03:10:00     -107.986      -20.511       -0.084       29.053       26.841       20.713      844.099      720.456      429.031        0.704        0.100      109.917       17.296        0.025      337.795       10.009      861.858
10/23/2014  03:11:00     -133.333      -13.537       -4.882       52.269       43.341       24.273     2732.073     1878.420      589.182        1.159        0.260      134.018       22.784        0.029      337.896       10.179      861.858
10/23/2014  03:12:00     -152.072      -61.155       -4.357       33.451       27.036       23.111     1118.996      730.949      534.111        1.463        0.119      163.908       13.684        0.007      337.939       10.252      861.857
10/23/2014  03:13:00     -137.616      -58.294       -5.338       37.872       40.038       20.376     1434.322     1603.064      415.166        1.291        0.173      149.454       19.273        0.017      338.257       10.784      861.834
10/23/2014  03:14:00     -128.530       21.802      -17.107       26.090       24.366       14.198      680.710      593.678      201.591        0.938        0.074      130.366        7.194        0.003      338.320       10.892      861.797
10/23/2014  03:15:00      -73.460       64.103      -19.449       26.858       26.721       16.037      721.371      714.026      257.175        0.579        0.085       97.497       13.891        0.020      338.526       11.237      861.729
10/23/2014  03:16:00      -72.593       38.242      -18.366       25.462       34.193       12.527      648.305     1169.190      156.916        0.452        0.099       82.049       15.735        0.037      338.718       11.560      861.684
10/23/2014  03:17:00     -124.605      -43.026      -11.483       39.765       30.642       16.038     1581.233      938.955      257.204        1.014        0.139      131.825       11.082        0.007      338.113       10.544      861.694
10/23/2014  03:18:00     -162.856      -49.650       -3.116       51.986       38.387       24.833     2702.554     1473.533      616.691        1.689        0.240      170.256       27.259        0.026      338.058       10.451      861.706
10/23/2014  03:19:00     -181.287      -46.967      -13.364       59.353       49.939       29.096     3522.807     2493.856      846.576        2.106        0.343      187.272       26.739        0.020      338.093       10.508      861.726
10/23/2014  03:20:00     -181.941      -41.812      -11.286       49.600       34.287       25.749     2460.112     1175.619      663.002        1.964        0.215      186.684       26.740        0.021      338.060       10.453      861.787
10/23/2014  03:21:00     -137.772      -57.209      -17.434       41.516       34.790       25.113     1723.566     1210.318      630.666        1.306        0.178      149.177       16.269        0.012      338.187       10.666      861.812
10/23/2014  03:22:00      -86.131      -26.152       -3.389       35.816       32.906       21.502     1282.754     1082.836      462.341        0.547        0.141       90.014       19.853        0.049      338.210       10.706      861.761
10/23/2014  03:23:00      -53.838      -14.270       -5.627       24.080       14.289        6.725      579.840      204.164       45.231        0.198        0.041       55.697        7.254        0.017      338.163       10.627      861.718
10/23/2014  03:24:00      -25.197      -22.204       -1.505       38.601       20.753       10.886     1490.045      430.681      118.495        0.158        0.102       33.584       12.492        0.138      338.196       10.683      861.711
10/23/2014  03:25:00      -69.554       13.024      -14.507       15.773        9.393        6.965      248.773       88.226       48.507        0.280        0.019       70.763        4.570        0.004      338.298       10.855      861.718
10/23/2014  03:26:00       -0.269       49.567       -4.045       23.069       24.113       12.409      532.183      581.439      153.971        0.187        0.063       49.567       10.204        0.042      338.419       11.059      861.705
10/23/2014  03:27:00        0.157      120.528      -17.397       12.660       13.854        7.842      160.264      191.925       61.496        0.762        0.021      120.528        7.111        0.003      338.373       10.980      861.688
10/23/2014  03:28:00      -51.059        4.279       -7.711       48.610       66.618       23.443     2362.893     4437.954      549.596        0.502        0.368       51.238       24.332        0.226      338.265       10.799      861.722
10/23/2014  03:29:00     -145.814      -94.368       -3.137       66.263       48.035       36.702     4390.828     2307.405     1347.033        1.911        0.402      173.687       32.002        0.034      338.076       10.481      861.763
10/23/2014  03:30:00     -160.143     -105.250        0.471       70.059       55.823       34.600     4908.303     3116.198     1197.189        2.297        0.461      191.633       35.030        0.033      338.206       10.698      861.767
10/23/2014  03:31:00     -160.229      -59.412      -10.031       46.364       49.024       32.030     2149.651     2403.345     1025.937        1.744        0.279      170.889       26.919        0.025      338.334       10.913      861.740
10/23/2014  03:32:00     -109.546       28.996      -10.106       48.249       36.987       25.775     2328.003     1368.060      664.343        0.865        0.218      113.319       17.136        0.023      338.448       11.107      861.741
10/23/2014  03:33:00      -60.249       63.410       -9.543       40.410       37.410       29.453     1633.007     1399.539      867.455        0.582        0.195       87.469       21.269        0.059      338.458       11.122      861.762
10/23/2014  03:34:00      -44.657       33.951       -9.900       27.088       25.891       19.880      733.763      670.330      395.198        0.252        0.090       56.098       11.962        0.045      338.522       11.230      861.742
10/23/2014  03:35:00      -52.956       48.383      -12.919       23.866       33.935       12.727      569.585     1151.561      161.967        0.360        0.094       71.730        9.497        0.018      338.698       11.526      861.704
10/23/2014  03:36:00      -45.599      114.394      -14.617       27.211       30.052       16.346      740.445      903.151      267.196        0.864        0.096      123.148       16.919        0.019      339.110       12.219      861.668
10/23/2014  03:37:00      -31.069      116.582      -14.933       21.274       29.953       14.577      452.573      897.204      212.481        0.817        0.078      120.651       11.601        0.009      339.390       12.690      861.642
10/23/2014  03:38:00      -28.774      100.087       -8.855       20.821       25.527       13.801      433.530      651.650      190.478        0.610        0.064      104.141        8.947        0.007      339.486       12.853      861.625
10/23/2014  03:39:00      -44.495       -5.814       -4.197       18.442       47.585       13.114      340.118     2264.335      171.986        0.240        0.139       44.873       12.099        0.073      338.971       11.987      861.627
10/23/2014  03:40:00      -61.709      -29.854       -9.840       23.110       18.189       14.767      534.061      330.853      218.078        0.294        0.054       68.551        6.346        0.009      338.363       10.963      861.633
10/23/2014  03:41:00      -53.215      -50.276       -1.474       25.955       18.983       15.917      673.672      360.367      253.353        0.332        0.064       73.209       14.360        0.038      338.283       10.828      861.604
10/23/2014  03:42:00      -67.506      -35.293       -0.682       35.963       19.238       17.519     1293.341      370.096      306.902        0.389        0.099       76.175       17.332        0.052      338.314       10.881      861.539
10/23/2014  03:43:00     -131.401      -47.489      -16.057       15.260       16.088       13.422      232.869      258.837      180.141        1.023        0.034      139.720        7.673        0.003      338.393       11.015      861.516
10/23/2014  03:44:00     -121.595      -61.183      -21.567       21.040       25.903       16.066      442.678      670.977      258.103        1.018        0.069      136.120       14.277        0.011      338.399       11.025      861.496
10/23/2014  03:45:00     -133.945       -6.621      -14.769       46.443       50.561       23.396     2156.907     2556.419      547.380        1.173        0.263      134.109       19.482        0.021      338.343       10.931      861.487
10/23/2014  03:46:00     -160.431       51.555      -17.778       68.094       44.881       31.241     4636.747     2014.279      976.006        1.817        0.381      168.511       31.975        0.036      338.554       11.282      861.488
10/23/2014  03:47:00     -160.904       57.755      -22.956       57.712       35.789       24.914     3330.646     1280.830      620.718        1.749        0.262      170.956       18.634        0.012      338.551       11.280      861.510
10/23/2014  03:48:00     -122.187       25.365      -11.629       48.308       27.903       14.734     2333.651      778.560      217.079        0.952        0.166      124.792        7.648        0.004      338.785       11.673      861.522
10/23/2014  03:49:00      -45.434       18.560       -7.487       26.078       22.217       19.279      680.051      493.589      371.679        0.200        0.077       49.079       14.963        0.093      338.773       11.652      861.515
10/23/2014  03:50:00      -34.706       -4.841      -10.307       13.749       24.248        7.683      189.036      587.979       59.028        0.108        0.042       35.042        5.340        0.023      338.765       11.639      861.481
10/23/2014  03:51:00      -73.999      -41.168      -10.305       21.637       14.136       13.457      468.166      199.832      181.084        0.406        0.042       84.680        5.411        0.004      338.483       11.164      861.464
10/23/2014  03:52:00     -115.233       -7.640      -12.144       48.007       34.527       17.047     2304.690     1192.143      290.584        0.864        0.189      115.486       19.005        0.027      338.362       10.962      861.484
10/23/2014  03:53:00     -107.214       -5.409      -10.959       54.117       34.988       22.855     2928.642     1224.159      522.341        0.816        0.234      107.350       17.771        0.027      338.259       10.791      861.522
10/23/2014  03:54:00     -140.482       -1.182      -11.501       42.003       34.599       27.828     1764.293     1197.083      774.399        1.180        0.187      140.487       22.720        0.026      338.320       10.890      861.532
10/23/2014  03:55:00     -149.367       -2.329       -8.174       48.623       36.256       25.203     2364.203     1314.517      635.209        1.335        0.216      149.385       26.274        0.031      338.399       11.025      861.516
10/23/2014  03:56:00     -171.272       17.029      -16.867       37.906       41.893       25.611     1436.862     1755.058      655.927        1.688        0.192      172.116       20.336        0.014      338.460       11.126      861.483
10/23/2014  03:57:00     -188.887       -6.623      -19.442       32.546       29.548       17.602     1059.259      873.068      309.823        1.917        0.112      189.003       14.303        0.006      338.459       11.123      861.475
10/23/2014  03:58:00     -167.734       -8.973      -20.245       43.147       32.243       19.879     1861.628     1039.624      395.193        1.596        0.165      167.974       16.980        0.010      338.367       10.970      861.511
10/23/2014  03:59:00     -173.031      -18.040      -22.732       39.242       32.512       23.800     1539.934     1057.021      566.453        1.697        0.158      173.969       20.800        0.014      338.388       11.006      861.548
10/23/2014  04:00:00     -162.601       -5.747      -17.077       52.583       34.962       26.220     2764.942     1222.329      687.513        1.572        0.234      162.703       30.936        0.036      338.382       10.996      861.590
10/23/2014  04:01:00     -199.870       21.999      -13.588       30.956       32.516       19.315      958.301     1057.291      373.054        2.150        0.119      201.077       12.333        0.004      338.432       11.079      861.609
10/23/2014  04:02:00     -226.068       37.282      -15.593       29.467       32.985       19.961      868.284     1088.041      398.451        2.755        0.118      229.121       17.745        0.006      338.542       11.260      861.606
10/23/2014  04:03:00     -214.721        2.800      -19.133       33.844       40.329       25.844     1145.403     1626.424      667.932        2.496        0.172      214.739       18.195        0.007      338.506       11.202      861.630
10/23/2014  04:04:00     -218.938       -9.188      -27.678       63.754       53.102       34.936     4064.616     2819.808     1220.502        2.844        0.405      219.130       37.387        0.029      338.558       11.287      861.661
10/23/2014  04:05:00     -218.416        0.294      -28.474       59.017       45.556       26.383     3482.978     2075.310      696.076        2.738        0.313      218.416       27.072        0.015      338.572       11.312      861.675
10/23/2014  04:06:00     -143.780      -25.397      -13.723       46.327       58.239       37.133     2146.169     3391.762     1378.846        1.421        0.346      146.006       22.825        0.024      338.494       11.182      861.660
10/23/2014  04:07:00     -247.651      -75.016      -17.766       63.987       38.974       31.546     4094.292     1518.979      995.145        3.694        0.330      258.763       24.638        0.009      338.506       11.198      861.661
10/23/2014  04:08:00     -259.181      -15.995      -31.733       57.358       37.414       30.816     3289.976     1399.775      949.630        3.704        0.282      259.674       34.838        0.018      338.572       11.311      861.653
10/23/2014  04:09:00     -242.871       40.191      -30.196       49.343       28.396       20.528     2434.690      806.315      421.415        3.259        0.183      246.174       21.942        0.008      338.852       11.780      861.595
10/23/2014  04:10:00      -73.470       18.219       -3.650       36.522       33.255       26.185     1333.877     1105.911      685.663        0.443        0.156       75.696       19.423        0.066      338.815       11.724      861.529
10/23/2014  04:11:00      -36.500       29.591       -4.569       20.500       31.491       15.734      420.240      991.653      247.567        0.194        0.083       46.988       17.713        0.142      338.940       11.931      861.481
10/23/2014  04:12:00      -24.397       35.916      -11.004       10.775       26.332       12.521      116.108      693.357      156.767        0.149        0.048       43.418        7.805        0.032      338.977       11.996      861.470
10/23/2014  04:13:00      -42.352      -16.199       -1.816       37.460       17.542       11.914     1403.224      307.706      141.950        0.196        0.093       45.344       13.508        0.089      338.878       11.828      861.467
10/23/2014  04:14:00     -105.521      -47.732      -11.974       24.261       18.485       14.783      588.617      341.693      218.537        0.735        0.057      115.814        9.518        0.007      338.623       11.400      861.484
10/23/2014  04:15:00     -134.260      -32.948      -12.787       28.732       22.907       15.704      825.526      524.746      246.608        1.044        0.080      138.243       13.145        0.009      338.642       11.432      861.501
10/23/2014  04:16:00     -126.896      -11.668      -11.370       20.942       20.407       12.592      438.583      416.448      158.567        0.869        0.051      127.432       11.737        0.008      338.751       11.617      861.509
10/23/2014  04:17:00     -145.803       20.254       -7.279       24.760       20.316       13.054      613.051      412.724      170.396        1.146        0.060      147.203        9.638        0.004      338.815       11.721      861.502
10/23/2014  04:18:00     -172.968       34.094      -22.764       39.409       24.572       18.674     1553.038      603.798      348.723        1.705        0.125      176.296       14.740        0.007      338.959       11.965      861.497
10/23/2014  04:19:00     -157.307        0.888      -13.606       33.038       26.288       22.464     1091.506      691.057      504.628        1.361        0.114      157.310       18.372        0.014      338.844       11.774      861.525
10/23/2014  04:20:00     -174.388       26.860      -19.336       21.357       25.560       17.542      456.111      653.312      307.728        1.646        0.071      176.444       11.343        0.004      338.809       11.713      861.570
10/23/2014  04:21:00     -174.794       13.062      -23.332       23.356       24.174       14.576      545.501      584.405      212.470        1.630        0.067      175.281        8.639        0.002      338.849       11.780      861.583
10/23/2014  04:22:00     -172.367        8.445      -18.869       21.410       23.313       17.889      458.368      543.491      320.027        1.573        0.066      172.574       12.091        0.005      338.955       11.958      861.577
10/23/2014  04:23:00     -121.180      -20.444      -12.511       35.754       26.518       16.594     1278.324      703.192      275.376        0.876        0.113      122.892       17.758        0.021      338.834       11.755      861.564
10/23/2014  04:24:00      -92.860      -45.905       -4.189       21.688       23.872       11.806      470.374      569.877      139.380        0.596        0.059      103.586        8.687        0.007      338.781       11.665      861.554
10/23/2014  04:25:00      -55.075      -30.284        3.823       34.132       31.908       22.928     1164.977     1018.094      525.706        0.334        0.135       62.852       16.425        0.068      338.607       11.374      861.547
10/23/2014  04:26:00      -38.898      -41.646        0.602       14.399       18.798       10.090      207.337      353.372      101.814        0.196        0.033       56.987        5.985        0.011      338.607       11.374      861.554
10/23/2014  04:27:00      -36.151       -6.465       -1.555       24.903       13.292       10.494      620.138      176.671      110.129        0.113        0.045       36.725        6.733        0.034      338.683       11.501      861.578
10/23/2014  04:28:00     -113.245      -38.573      -10.234       31.410       24.236       18.392      986.587      587.374      338.283        0.816        0.096      119.634       17.498        0.021      338.618       11.392      861.601
10/23/2014  04:29:00     -160.311      -38.897      -13.391       41.487       38.764       25.504     1721.141     1502.665      650.449        1.563        0.194      164.962       24.729        0.022      338.643       11.434      861.632
10/23/2014  04:30:00     -149.528       -0.142      -23.305       37.701       27.926       18.198     1421.384      779.882      331.159        1.272        0.127      149.528       13.832        0.009      338.849       11.780      861.674
10/23/2014  04:31:00      -95.823      -20.934      -12.204       16.458       28.109       10.279      270.861      790.091      105.661        0.547        0.058       98.083        5.093        0.003      338.765       11.638      861.691
10/23/2014  04:32:00      -56.935      -53.141        6.748       49.046       32.720       20.430     2405.502     1070.581      417.366        0.500        0.195       77.882       26.548        0.116      338.587       11.339      861.671
10/23/2014  04:33:00     -131.483      -70.666       -5.748       46.959       42.549       27.326     2205.174     1810.396      746.721        1.354        0.238      149.269       19.895        0.018      338.569       11.311      861.621
10/23/2014  04:34:00     -155.803      -84.707       -5.064       49.072       34.937       30.797     2408.065     1220.585      948.428        1.803        0.229      177.341       27.094        0.023      338.445       11.101      861.600
10/23/2014  04:35:00     -158.511      -94.318       -6.718       41.241       34.250       29.267     1700.811     1173.036      856.578        1.890        0.187      184.449       22.235        0.015      338.395       11.017      861.626
10/23/2014  04:36:00     -178.323      -65.781      -11.796       50.435       34.166       22.009     2543.683     1167.320      484.379        2.023        0.210      190.069       24.307        0.016      338.403       11.030      861.622
10/23/2014  04:37:00     -134.936      -23.649      -10.716       30.219       28.034       22.638      913.215      785.927      512.486        1.055        0.111      136.992       18.421        0.018      338.406       11.035      861.595
10/23/2014  04:38:00     -127.421      -56.538       -6.510       32.971       27.452       16.292     1087.108      753.591      265.422        1.079        0.105      139.402       16.744        0.014      338.532       11.248      861.576
10/23/2014  04:39:00     -181.748      -76.516       -7.924       39.641       40.664       26.360     1571.371     1653.544      694.832        2.143        0.196      197.198       22.834        0.013      338.526       11.235      861.577
10/23/2014  04:40:00     -175.099      -23.625      -14.248       47.237       31.618       23.893     2231.298      999.674      570.870        1.761        0.190      176.685       25.916        0.022      338.657       11.458      861.568
10/23/2014  04:41:00     -150.904       14.794      -16.025       23.685       21.697       15.270      560.987      470.745      233.164        1.226        0.063      151.627       11.311        0.006      338.692       11.517      861.556
10/23/2014  04:42:00     -109.125      -25.721      -12.113       23.072       19.137       15.003      532.316      366.235      225.098        0.692        0.056      112.116       13.704        0.015      338.742       11.601      861.564
10/23/2014  04:43:00     -148.551      -13.408      -10.317       27.231       27.921       16.019      741.538      779.593      256.615        1.207        0.089      149.155       12.845        0.007      338.767       11.642      861.585
10/23/2014  04:44:00      -84.324      -13.581       -1.356       44.090       25.389       21.162     1943.951      644.576      447.836        0.517        0.152       85.411       20.663        0.059      338.554       11.285      861.593
10/23/2014  04:45:00      -73.024        7.947       -2.047       31.822       16.773       12.285     1012.627      281.327      150.922        0.342        0.072       73.456       10.107        0.019      338.678       11.493      861.595
10/23/2014  04:46:00      -76.743      -14.010       -8.232       18.384       14.841       11.634      337.964      220.265      135.361        0.342        0.035       78.011        9.951        0.016      338.725       11.571      861.593
10/23/2014  04:47:00      -70.547       10.017       -5.839       14.249       19.588        9.132      203.032      383.690       83.395        0.289        0.034       71.255        6.744        0.009      338.799       11.695      861.569
10/23/2014  04:48:00        0.674       34.533       -0.068       35.930       16.828       12.091     1290.939      283.177      146.186        0.146        0.086       34.540       11.565        0.112      338.607       11.375      861.540
10/23/2014  04:49:00       64.506       47.533       -5.501       18.586       19.736       17.815      345.424      389.501      317.390        0.375        0.053       80.127        6.754        0.007      338.611       11.380      861.541
10/23/2014  04:50:00       46.073       27.799       -2.796       21.482       14.822       12.998      461.475      219.683      168.954        0.188        0.043       53.810        9.586        0.032      338.486       11.170      861.557
10/23/2014  04:51:00       15.436       10.375       -3.921       20.822       25.824       10.321      433.564      666.872      106.529        0.078        0.060       18.599        8.026        0.186      338.496       11.187      861.577
10/23/2014  04:52:00       -2.829       -2.195        2.740       13.724       16.294       12.769      188.353      265.487      163.038        0.032        0.031        3.580        9.160        6.545      338.286       10.834      861.575
10/23/2014  04:53:00       31.455       37.874       -3.665       10.717       12.060        9.750      114.862      145.438       95.062        0.140        0.018       49.233        4.674        0.009      338.107       10.535      861.566
10/23/2014  04:54:00       37.030        7.189       -1.783       10.893       26.802        9.998      118.664      718.324       99.960        0.118        0.047       37.722        8.100        0.046      338.175       10.648      861.571
10/23/2014  04:55:00       41.073        7.636        5.359       17.788       15.772       15.143      316.408      248.748      229.325        0.128        0.040       41.777        8.960        0.046      338.093       10.512      861.600
10/23/2014  04:56:00      -24.062      -14.098      -13.361       34.604       14.296       10.666     1197.439      204.390      113.755        0.124        0.076       27.888        8.632        0.096      338.121       10.556      861.638
10/23/2014  04:57:00     -101.179      -30.298      -11.194       17.131       29.620       12.578      293.461      877.368      158.205        0.630        0.066      105.618        6.826        0.004      338.176       10.649      861.638
10/23/2014  04:58:00      -98.730       19.188      -12.387       33.031       15.314       10.527     1091.023      234.521      110.817        0.585        0.072      100.577        7.360        0.005      338.109       10.537      861.609
10/23/2014  04:59:00      -67.082       57.146      -17.777       18.067       24.418       14.116      326.417      596.243      199.252        0.460        0.056       88.123       14.826        0.028      338.520       11.227      861.595
10/23/2014  05:00:00      -52.068       50.766      -13.578        8.712       12.516        7.496       75.904      156.647       56.197        0.288        0.014       72.721        6.688        0.008      338.665       11.472      861.597
10/23/2014  05:01:00      -19.957       36.081       -4.981       18.942       18.218       11.762      358.806      331.900      138.344        0.128        0.041       41.232       12.086        0.086      338.563       11.299      861.595
10/23/2014  05:02:00       41.177       23.298        9.682       19.542       16.486       17.751      381.908      271.773      315.095        0.165        0.048       47.311       10.923        0.053      338.538       11.257      861.558
10/23/2014  05:03:00       10.467       72.215      -12.873       10.915       26.865       15.522      119.134      721.737      240.926        0.329        0.054       72.970       17.642        0.058      338.280       10.825      861.565
10/23/2014  05:04:00       -2.448       32.063       -3.325       20.749       20.551       16.011      430.504      422.325      256.343        0.108        0.055       32.156       17.304        0.290      338.192       10.676      861.612
10/23/2014  05:05:00        3.574       75.625       -2.905       22.623       27.251       15.199      511.786      742.615      230.996        0.361        0.074       75.710       11.296        0.022      338.360       10.958      861.598
10/23/2014  05:06:00      -17.114       88.423      -14.639       14.571       13.737       10.032      212.317      188.714      100.641        0.441        0.025       90.064        6.973        0.006      338.473       11.148      861.563
10/23/2014  05:07:00      -56.306       10.565      -12.845       20.082       56.332       11.438      403.301     3173.271      130.836        0.358        0.185       57.289       18.338        0.102      338.453       11.114      861.577
10/23/2014  05:08:00     -108.159       -3.684      -13.947       26.180       23.208       12.649      685.383      538.589      160.008        0.664        0.069      108.221        7.137        0.004      338.036       10.415      861.583
10/23/2014  05:09:00       10.853       15.785       -1.324       42.023       13.347       15.217     1765.964      178.154      231.551        0.127        0.109       19.157       17.667        0.851      338.557       11.288      861.555
10/23/2014  05:10:00       78.859       30.459        2.693       21.040       20.527       23.506      442.672      421.349      552.541        0.428        0.071       84.536       13.899        0.027      338.335       10.917      861.529
10/23/2014  05:11:00       28.601       17.785       -1.588       20.245       16.438       12.233      409.853      270.202      149.641        0.098        0.041       33.680        9.002        0.071      338.436       11.085      861.547
10/23/2014  05:12:00        7.766       -9.228        0.447       17.174       21.592       15.681      294.947      466.194      245.909        0.058        0.050       12.061       11.358        0.887      338.082       10.491      861.586
10/23/2014  05:13:00       26.530       -7.270        7.189       22.580       16.067       11.695      509.872      258.136      136.772        0.086        0.045       27.508        7.953        0.084      338.236       10.751      861.607
10/23/2014  05:14:00       55.143        7.381       -3.132       15.564       17.940       19.850      242.235      321.860      394.032        0.203        0.048       55.635        9.806        0.031      338.352       10.946      861.630
10/23/2014  05:15:00       11.864      -23.933       -9.570       32.040       14.970       13.957     1026.559      224.108      194.797        0.113        0.072       26.713        8.720        0.107      338.175       10.647      861.651
10/23/2014  05:16:00       22.490      -32.449      -15.732       13.018       22.434       16.869      169.457      503.289      284.566        0.138        0.048       39.481        9.899        0.063      338.182       10.660      861.655
10/23/2014  05:17:00        8.798       13.980       27.858       15.872       13.337        9.386      251.925      177.879       88.104        0.078        0.026       16.518        7.638        0.214      338.147       10.601      861.642
10/23/2014  05:18:00        1.679       15.693        1.138       18.042       17.656       11.165      325.518      311.731      124.653        0.051        0.038       15.782        6.152        0.152      338.251       10.777      861.640
10/23/2014  05:19:00      -22.972       12.326       -1.957       12.387       16.534        7.068      153.445      273.364       49.956        0.058        0.024       26.070        5.850        0.050      338.323       10.896      861.673
10/23/2014  05:20:00       -7.853       -8.398       -3.955        7.786        9.025        5.505       60.625       81.449       30.300        0.016        0.009       11.498        5.284        0.211      338.247       10.770      861.739
10/23/2014  05:21:00        9.428      -15.442      -14.494       14.546       13.551       10.374      211.590      183.620      107.616        0.052        0.025       18.093        8.790        0.236      338.229       10.739      861.770
10/23/2014  05:22:00      -12.405      -15.283       -4.506       17.221       18.154       16.660      296.547      329.573      277.572        0.066        0.045       19.684       12.757        0.420      338.181       10.659      861.792
10/23/2014  05:23:00      -42.458      -36.309       -3.810       36.290       13.057       13.691     1316.932      170.495      187.431        0.240        0.084       55.867       11.628        0.043      338.046       10.432      861.840
10/23/2014  05:24:00      -99.784      -44.848      -11.400       16.919       12.318        8.363      286.244      151.726       69.946        0.630        0.025      109.399        5.437        0.002      338.049       10.436      861.887
10/23/2014  05:25:00     -119.139      -27.990      -19.378       27.357       26.539       15.221      748.386      704.316      231.686        0.852        0.084      122.383       12.294        0.010      337.848       10.099      861.905
10/23/2014  05:26:00     -134.123       -0.411      -20.178       13.023       13.974        9.677      169.597      195.284       93.642        0.943        0.023      134.124        6.843        0.003      337.776        9.979      861.886
10/23/2014  05:27:00     -114.291        3.620      -17.085        9.944        7.180        6.088       98.881       51.546       37.059        0.678        0.009      114.349        2.007        0.000      338.067       10.467      861.855
10/23/2014  05:28:00     -105.571       -9.862      -18.684       14.381       14.234        6.965      206.806      202.594       48.510        0.602        0.023      106.031        7.124        0.005      338.372       10.978      861.861
10/23/2014  05:29:00      -94.441      -45.205      -17.021       17.025       12.947       10.388      289.842      167.638      107.905        0.591        0.028      104.702        7.953        0.006      338.214       10.714      861.892
10/23/2014  05:30:00     -112.122      -22.423      -19.912       12.854       18.754        5.624      165.225      351.729       31.625        0.701        0.027      114.343        4.705        0.002      338.293       10.845      861.905
10/23/2014  05:31:00     -138.005       -9.061      -15.114       67.440       37.231       22.725     4548.219     1386.126      516.407        1.290        0.323      138.302       29.929        0.047      337.880       10.152      861.900
10/23/2014  05:32:00      -92.622      -12.132      -12.873       49.351       30.403       29.455     2435.493      924.346      867.591        0.656        0.211       93.413       29.333        0.099      337.776        9.977      861.905
10/23/2014  05:33:00      -44.491      -17.334        5.199       42.307       30.021       13.362     1789.853      901.267      178.531        0.259        0.143       47.749       12.964        0.074      337.894       10.177      861.922
10/23/2014  05:34:00      -33.413      -71.415        0.303       35.159       28.515       19.979     1236.129      813.088      399.165        0.433        0.122       78.845       19.669        0.062      338.205       10.699      861.913
10/23/2014  05:35:00       18.604        2.137       17.247       24.349       34.523       21.024      592.852     1191.840      442.012        0.144        0.111       18.726       24.993        1.781      338.032       10.408      861.836
10/23/2014  05:36:00       62.174       17.334       -3.859       29.876       24.302       21.050      892.593      590.567      443.099        0.305        0.096       64.545       14.597        0.051      337.987       10.333      861.780
10/23/2014  05:37:00       -1.598      -40.858       -2.512       19.619       25.020       23.353      384.908      626.006      545.370        0.162        0.078       40.889       13.164        0.104      337.997       10.350      861.795
10/23/2014  05:38:00        8.702      -35.225       -0.361       25.684       22.011       15.227      659.677      484.485      231.869        0.135        0.069       36.284        9.884        0.074      338.157       10.619      861.830
10/23/2014  05:39:00      -27.841       -0.223       -2.699       24.528       27.620       20.130      601.604      762.841      405.209        0.128        0.088       27.842       14.036        0.254      338.196       10.682      861.856
10/23/2014  05:40:00       58.406      -27.532        7.412       50.032       27.709       28.395     2503.204      767.789      806.260        0.415        0.204       64.570       24.404        0.143      338.219       10.721      861.859
10/23/2014  05:41:00       56.726      -20.318       13.784       39.656       43.796       38.342     1572.638     1918.061     1470.088        0.439        0.248       60.255       35.574        0.349      338.065       10.465      861.862
10/23/2014  05:42:00       15.135        4.758       18.663       27.118       21.158       19.990      735.406      447.641      399.604        0.109        0.079       15.865       10.208        0.414      337.934       10.242      861.866
10/23/2014  05:43:00       42.766       38.865       54.824       37.089       35.294       33.913     1375.596     1245.656     1150.094        0.506        0.189       57.787       30.288        0.275      337.854       10.107      861.815
10/23/2014  05:44:00       75.107       60.035       17.174       38.581       35.547       35.623     1488.527     1263.580     1268.972        0.678        0.201       96.153       26.946        0.079      337.895       10.178      861.732
10/23/2014  05:45:00       61.571       59.162        0.109       43.232       35.911       30.350     1868.988     1289.635      921.117        0.568        0.204       85.388       17.663        0.043      337.760        9.950      861.719
10/23/2014  05:46:00       -2.324       65.360      -11.837       27.015       24.594       15.372      729.821      604.845      236.307        0.299        0.079       65.401       13.180        0.041      337.879       10.151      861.717
10/23/2014  05:47:00      -69.339       37.264      -12.810       18.242       22.721       10.025      332.762      516.231      100.493        0.365        0.047       78.718        6.395        0.007      337.892       10.173      861.731
10/23/2014  05:48:00      -54.628      -23.874       -4.499       24.568       22.114       12.966      603.598      489.034      168.122        0.242        0.063       59.617       14.169        0.056      337.824       10.060      861.788
10/23/2014  05:49:00      -79.741      -45.104        6.037       39.431       26.325       17.309     1554.805      693.023      299.605        0.549        0.127       91.613       17.179        0.035      337.895       10.177      861.858
10/23/2014  05:50:00      -58.490      -16.142       -0.298       26.032       15.407       12.869      677.648      237.367      165.620        0.238        0.054       60.677        9.616        0.025      337.983       10.327      861.887
10/23/2014  05:51:00       29.426       16.978        7.455       28.277       19.662       16.439      799.594      386.588      270.227        0.133        0.073       33.973       18.383        0.293      337.950       10.272      861.857
10/23/2014  05:52:00       51.772       51.905       -0.377       26.924       11.698       18.506      724.925      136.836      342.454        0.329        0.060       73.311       14.075        0.037      338.029       10.403      861.782
10/23/2014  05:53:00      -12.471       40.348      -12.133       15.830       11.109        6.168      250.590      123.415       38.043        0.117        0.021       42.232        5.682        0.018      337.976       10.315      861.758
10/23/2014  05:54:00      -86.282       -5.102      -12.332       23.031       11.266       11.363      530.423      126.924      129.127        0.420        0.039       86.432       10.104        0.014      337.832       10.073      861.791
10/23/2014  05:55:00      -74.527       -1.353      -10.615       28.390       19.511       11.855      805.991      380.678      140.532        0.350        0.066       74.540       10.990        0.022      337.821       10.054      861.854
10/23/2014  05:56:00      -22.488       -2.723       -2.167       18.329       18.131       10.076      335.957      328.716      101.526        0.064        0.038       22.653        6.360        0.079      338.017       10.383      861.898
10/23/2014  05:57:00      -60.658      -37.802       -1.330       28.018       16.523       15.336      785.018      273.017      235.178        0.320        0.065       71.473       14.787        0.043      337.819       10.049      861.898
10/23/2014  05:58:00      -36.802      -10.232       -5.134       17.456       23.519        9.267      304.723      553.152       85.874        0.121        0.047       38.198        7.577        0.039      337.722        9.889      861.865
10/23/2014  05:59:00      -26.051       44.578       -8.544       24.694       25.815       13.152      609.808      666.413      172.981        0.209        0.072       51.632       11.633        0.051      337.840       10.087      861.826
10/23/2014  06:00:00       14.475       22.918       -2.991       10.206       18.416        8.197      104.156      339.162       67.187        0.063        0.026       27.106        9.223        0.116      337.778        9.981      861.800
10/23/2014  06:01:00       -5.832       33.048       -5.108        5.314        9.106        4.223       28.240       82.927       17.830        0.064        0.006       33.558        3.306        0.010      338.107       10.535      861.829
10/23/2014  06:02:00       -0.784        1.183        4.794        6.377       10.335        4.178       40.660      106.814       17.460        0.009        0.008        1.419        3.749        6.980      338.120       10.556      861.868
10/23/2014  06:03:00       19.528       13.061        5.140       14.052        9.240       16.987      197.464       85.381      288.563        0.057        0.029       23.493        5.914        0.063      337.906       10.197      861.876
10/23/2014  06:04:00        9.893        3.810      -10.438       11.094       10.928        9.227      123.082      119.412       85.145        0.027        0.016       10.601        5.617        0.281      337.902       10.190      861.859
10/23/2014  06:05:00      -29.012      -11.458      -11.410       17.484       12.773       10.588      305.682      163.145      112.102        0.084        0.029       31.193        8.183        0.069      337.827       10.064      861.834
10/23/2014  06:06:00      -79.414        9.765       -8.982       22.714       15.989       11.567      515.907      255.643      133.799        0.369        0.045       80.012        7.426        0.009      337.730        9.902      861.827
10/23/2014  06:07:00       14.781       43.290       -0.546       29.757       20.537       10.655      885.479      421.749      113.523        0.176        0.071       45.744       15.039        0.108      338.251       10.777      861.800
10/23/2014  06:08:00       40.167       38.660        3.261       23.727       15.807       16.871      562.980      249.865      284.629        0.211        0.055       55.749        9.629        0.030      338.213       10.712      861.791
10/23/2014  06:09:00      -51.395        0.047      -11.712       39.688       26.495       13.950     1575.112      701.991      194.616        0.262        0.124       51.395       15.983        0.097      338.091       10.504      861.822
10/23/2014  06:10:00     -230.336       -9.380      -23.316       65.269       48.448       40.329     4260.098     2347.236     1626.418        3.096        0.412      230.527       38.946        0.029      337.465        9.454      861.844
10/23/2014  06:11:00     -181.107       10.717      -25.592       60.356       67.962       27.991     3642.850     4618.787      783.496        2.131        0.452      181.424       28.306        0.024      337.465        9.455      861.855
10/23/2014  06:12:00     -127.150       42.712       -4.418       87.116       42.079       37.221     7589.116     1770.600     1385.407        1.438        0.537      134.132       44.608        0.111      337.635        9.741      861.878
10/23/2014  06:13:00      -51.366       48.672      -10.416       35.646       28.895       21.795     1270.631      834.918      475.009        0.385        0.129       70.763       18.011        0.065      338.324       10.898      861.917
10/23/2014  06:14:00       37.580       10.356        5.014       24.565       17.650       19.203      603.459      311.514      368.753        0.141        0.064       38.981       14.804        0.144      338.366       10.969      861.948
10/23/2014  06:15:00       44.909        5.396        8.131       13.056       14.857       16.826      170.448      220.733      283.103        0.139        0.034       45.232       10.145        0.050      338.555       11.286      861.982
10/23/2014  06:16:00       33.755      -22.307      -19.636       18.620       17.838       18.885      346.719      318.199      356.648        0.152        0.051       40.460       10.421        0.066      338.320       10.891      862.024
10/23/2014  06:17:00      -59.920        1.610       -7.259       35.318       14.235        9.287     1247.386      202.645       86.242        0.259        0.077       59.941       12.993        0.047      338.001       10.355      862.037
10/23/2014  06:18:00      -78.716        0.288      -12.678       10.706       13.987        7.022      114.618      195.649       49.306        0.336        0.018       78.717        6.871        0.008      338.031       10.405      862.043
10/23/2014  06:19:00      -92.439      -15.678       -6.592       37.942       31.631       19.650     1439.609     1000.515      386.103        0.583        0.141       93.760       16.249        0.030      337.813       10.040      862.062
10/23/2014  06:20:00      -72.641       -2.177       -3.289       36.819       37.695       25.630     1355.637     1420.890      656.919        0.436        0.172       72.674       18.318        0.064      337.664        9.791      862.091
10/23/2014  06:21:00      -86.608        8.616       -7.339       43.721       31.040       19.995     1911.568      963.451      399.787        0.545        0.164       87.035       14.481        0.028      337.893       10.174      862.108
10/23/2014  06:22:00       18.583      -20.609        3.346       21.878       17.787       18.026      478.666      316.369      324.924        0.095        0.056       27.750       16.892        0.371      337.811       10.038      862.115
10/23/2014  06:23:00       15.872      -18.184        2.715       13.978       14.135       14.031      195.373      199.804      196.880        0.059        0.030       24.137        9.950        0.170      337.858       10.118      862.096
10/23/2014  06:24:00       43.884        3.358        2.282       16.606       11.233       14.991      275.745      126.179      224.727        0.128        0.031       44.013        7.401        0.028      338.169       10.638      862.069
10/23/2014  06:25:00       64.757        7.263        3.275       19.630       14.813       20.287      385.349      219.433      411.554        0.264        0.051       65.163       11.651        0.032      338.504       11.201      862.045
10/23/2014  06:26:00       51.051        1.454      -11.295       23.165       16.139       15.621      536.629      260.483      244.012        0.189        0.052       51.071       11.271        0.049      338.372       10.978      862.052
10/23/2014  06:27:00        4.456        8.506       -9.287        8.137        8.703        6.710       66.208       75.749       45.018        0.018        0.009        9.602        3.502        0.133      338.451       11.109      862.101
10/23/2014  06:28:00      -49.327      -23.417       -8.136       26.617       19.151       11.052      708.479      366.752      122.148        0.212        0.060       54.603        8.687        0.025      338.184       10.663      862.154
10/23/2014  06:29:00      -78.355       -0.757      -10.819       21.250       12.535        9.396      451.562      157.122       88.287        0.348        0.035       78.358        7.967        0.010      337.754        9.942      862.174
10/23/2014  06:30:00      -62.003       16.590      -14.445       36.393       11.657        9.538     1324.433      135.885       90.965        0.294        0.078       64.185       13.807        0.046      338.289       10.838      862.122
10/23/2014  06:31:00       33.385       43.817       -0.134       20.054       23.394        9.800      402.149      547.285       96.033        0.204        0.052       55.087        5.900        0.011      338.558       11.292      862.058
10/23/2014  06:32:00       20.488       37.663       -4.926       20.096       16.821       13.028      403.840      282.945      169.740        0.136        0.043       42.875       10.138        0.056      338.313       10.880      862.052
10/23/2014  06:33:00      -67.516      -21.847      -11.455       38.909       29.264        9.111     1513.883      856.379       83.013        0.381        0.123       70.963        6.755        0.009      338.325       10.899      862.113
10/23/2014  06:34:00     -122.427      -62.866      -19.159       32.181       22.759       20.962     1035.598      517.976      439.411        1.065        0.100      137.624       12.494        0.008      337.933       10.241      862.142
10/23/2014  06:35:00      -66.890      -30.504       -9.549       25.043       17.445       11.072      627.166      304.326      122.595        0.327        0.053       73.517        9.578        0.017      338.033       10.409      862.131
10/23/2014  06:36:00        9.194        8.424       -2.680       27.740        8.251       15.187      769.495       68.080      230.639        0.062        0.053       12.470       12.615        1.023      338.171       10.641      862.099
10/23/2014  06:37:00       27.388        4.512       14.806       16.356       16.963       13.955      267.531      287.743      194.743        0.087        0.038       27.757       11.739        0.179      338.160       10.623      862.092
10/23/2014  06:38:00      -44.992      -21.506      -10.664       49.691       18.579       11.506     2469.239      345.161      132.396        0.277        0.147       49.867        3.031        0.004      338.296       10.851      862.100
10/23/2014  06:39:00     -100.521      -18.693       -8.924       16.474       19.037        9.331      271.399      362.393       87.073        0.563        0.036      102.245        8.522        0.007      338.028       10.402      862.086
10/23/2014  06:40:00      -90.608      -17.831      -11.898       20.384       12.565        8.310      415.516      157.891       69.056        0.466        0.032       92.346        5.777        0.004      338.154       10.613      862.068
10/23/2014  06:41:00      -41.644      -19.821       -6.888       16.569       10.960        7.321      274.538      120.127       53.601        0.131        0.022       46.121        7.452        0.026      338.143       10.593      862.078
10/23/2014  06:42:00     -112.209      -29.213      -15.989       59.279       19.979       15.436     3513.970      399.166      238.255        0.892        0.208      115.950       18.499        0.025      338.276       10.818      862.096
10/23/2014  06:43:00     -124.890       -4.226      -12.461       45.762       26.140       24.672     2094.148      683.286      608.684        0.958        0.169      124.962       27.129        0.047      337.929       10.236      862.096
10/23/2014  06:44:00     -103.765       37.043        0.474       46.445       24.786       20.590     2157.093      614.370      423.966        0.767        0.160      110.179       16.440        0.022      338.290       10.840      862.065
10/23/2014  06:45:00      -58.815       44.317      -10.540       16.773       18.369       16.457      281.331      337.436      270.842        0.321        0.044       73.642       11.527        0.025      338.663       11.468      862.052
10/23/2014  06:46:00      -55.016      -19.012       -4.636       17.619       31.605       14.813      310.423      998.873      219.420        0.247        0.076       58.208       10.001        0.030      338.498       11.191      862.116
10/23/2014  06:47:00     -106.459      -76.820       -1.864       38.390       23.700       20.687     1473.762      561.708      427.969        0.985        0.123      131.281       14.858        0.013      338.168       10.636      862.174
10/23/2014  06:48:00      -65.963      -38.652       -4.945       40.550       24.254        9.783     1644.265      588.240       95.703        0.410        0.116       76.453       12.540        0.027      338.123       10.561      862.200
10/23/2014  06:49:00        8.715       -7.558       -0.143       18.694       11.320        6.185      349.473      128.138       38.260        0.032        0.026       11.536       10.004        0.752      338.332       10.912      862.190
10/23/2014  06:50:00       33.077       -3.709       -6.844       38.725       16.761       18.066     1499.622      280.936      326.387        0.163        0.105       33.284        8.645        0.067      338.643       11.435      862.145
10/23/2014  06:51:00      -43.722        6.716       -6.146       17.216       22.502        6.699      296.388      506.337       44.873        0.142        0.042       44.235        6.984        0.025      338.564       11.300      862.144
10/23/2014  06:52:00      -51.358      -50.365       -7.893       18.992       19.007       13.572      360.685      361.272      184.211        0.307        0.045       71.932       11.274        0.025      338.336       10.918      862.219
10/23/2014  06:53:00      -60.073      -46.180        8.766       54.431       43.416       29.908     2962.690     1884.942      894.462        0.578        0.287       75.772       33.245        0.192      338.061       10.456      862.273
10/23/2014  06:54:00     -107.278      -46.358       -3.270       33.401       23.145       15.956     1115.651      535.668      254.609        0.779        0.095      116.866       14.346        0.015      338.144       10.594      862.287
10/23/2014  06:55:00     -101.160      -80.779       -5.674       31.131       32.136       21.064      969.130     1032.705      443.698        0.962        0.122      129.455       11.687        0.008      338.327       10.904      862.297
10/23/2014  06:56:00     -119.675      -59.219       -7.526       25.126       25.945       18.865      631.291      673.150      355.907        0.977        0.083      133.525       14.476        0.012      338.273       10.813      862.312
10/23/2014  06:57:00      -38.178       -2.551        1.577       39.302       28.576       14.443     1544.684      816.613      208.602        0.202        0.128       38.263       18.399        0.231      338.061       10.457      862.305
10/23/2014  06:58:00      -48.015      -24.041       -0.109       27.284       24.508       14.841      744.425      600.629      220.265        0.222        0.078       53.697       12.532        0.054      338.021       10.389      862.313
10/23/2014  06:59:00        3.874        3.716       -5.638        6.380       16.995        6.866       40.705      288.845       47.138        0.022        0.019        5.368        7.710        2.063      338.238       10.754      862.332
10/23/2014  07:00:00        5.772        1.384       -2.670       14.144       10.417        6.678      200.053      108.515       44.591        0.020        0.018        5.936        4.386        0.546      338.251       10.777      862.355
10/23/2014  07:01:00      -13.628       25.999       -5.884       17.524       18.037       11.990      307.075      325.346      143.769        0.084        0.039       29.354       12.617        0.185      338.588       11.342      862.358
10/23/2014  07:02:00       27.807       22.764        6.008       15.796        8.001        6.799      249.522       64.012       46.229        0.084        0.018       35.937        4.320        0.014      338.292       10.844      862.374
10/23/2014  07:03:00       20.566       33.007       -2.963       15.314        9.457        6.113      234.532       89.434       37.363        0.094        0.018       38.890        6.288        0.026      338.414       11.052      862.383
10/23/2014  07:04:00      -20.715        6.095       -4.651       18.956       20.635        8.712      359.316      425.788       75.893        0.067        0.043       21.593        7.589        0.124      338.577       11.324      862.400
10/23/2014  07:05:00      -66.750       -3.298       -8.603       19.922       14.673       15.607      396.879      215.285      243.573        0.270        0.043       66.831        7.401        0.012      338.090       10.506      862.393
10/23/2014  07:06:00      -57.348       19.012       -5.088       28.506       16.395       11.168      812.616      268.791      124.715        0.244        0.060       60.418        9.651        0.026      338.139       10.588      862.383
10/23/2014  07:07:00       49.168       46.590        5.592       15.102       11.499       11.120      228.056      132.232      123.650        0.255        0.024       67.736        8.731        0.017      338.623       11.399      862.365
10/23/2014  07:08:00       83.844       45.400       14.269       18.127       18.705       20.704      328.601      349.889      428.643        0.520        0.055       95.347        9.791        0.011      338.131       10.574      862.345
10/23/2014  07:09:00       55.350       70.425       44.611       53.534       29.524       40.813     2865.919      871.658     1665.686        0.771        0.270       89.573       37.322        0.174      337.841       10.087      862.325
10/23/2014  07:10:00       94.693       64.269       43.660       43.258       34.546       36.007     1871.286     1193.443     1296.531        0.968        0.218      114.443       29.118        0.065      337.656        9.778      862.320
10/23/2014  07:11:00      100.749       63.897       15.459       28.571       20.514       21.866      816.311      420.843      478.131        0.809        0.086      119.303       11.768        0.010      337.750        9.934      862.302
10/23/2014  07:12:00       93.449       57.925       13.773       20.397       18.538       20.269      416.034      343.643      410.843        0.672        0.059      109.945       14.906        0.018      337.768        9.965      862.292
10/23/2014  07:13:00       61.126       37.984        9.311       16.547       12.795       10.513      273.799      163.700      110.515        0.291        0.027       71.966        7.379        0.011      337.793       10.007      862.282
10/23/2014  07:14:00       63.920       35.065       15.641       13.424       11.554       11.091      180.194      133.489      123.007        0.300        0.022       72.906        9.173        0.016      338.042       10.424      862.282
10/23/2014  07:15:00       53.572       27.601        8.661       20.008       12.890       14.121      400.336      166.160      199.413        0.224        0.038       60.265        8.404        0.019      338.133       10.577      862.304
10/23/2014  07:16:00       17.439      -27.697       -3.210       17.599       38.208       15.393      309.739     1459.889      236.959        0.154        0.100       32.730       16.002        0.239      337.926       10.230      862.335
10/23/2014  07:17:00      -20.270      -17.565      -13.081       29.220       28.942       12.883      853.809      837.665      165.977        0.137        0.093       26.822        4.787        0.032      337.773        9.973      862.357
10/23/2014  07:18:00      -40.341       12.295       -3.304       21.352       16.136        8.743      455.890      260.369       76.447        0.129        0.040       42.173        6.266        0.022      337.877       10.148      862.342
10/23/2014  07:19:00      -81.652       25.652      -15.462       18.783       17.573       10.651      352.808      308.817      113.438        0.417        0.039       85.587        6.823        0.006      337.951       10.273      862.351
10/23/2014  07:20:00      -15.627        8.776       -1.424       41.689       11.780       11.937     1737.954      138.770      142.487        0.117        0.101       17.922       18.238        1.035      338.055       10.446      862.380
10/23/2014  07:21:00       36.104       54.671       35.305       26.154       33.717       28.106      684.012     1136.868      789.930        0.407        0.131       65.516       23.631        0.130      337.995       10.346      862.394
10/23/2014  07:22:00        4.441       55.410       61.696       21.711       21.621       17.157      471.386      467.466      294.355        0.406        0.062       55.588       14.922        0.072      337.808       10.033      862.413
10/23/2014  07:23:00      -28.623       18.810        3.546       34.082       16.502       19.353     1161.558      272.324      374.550        0.150        0.090       34.250       18.473        0.291      337.923       10.224      862.461
10/23/2014  07:24:00      -97.479        0.747       -3.857       39.220       33.594       19.400     1538.236     1128.571      376.350        0.628        0.152       97.482       19.881        0.042      337.748        9.931      862.530
10/23/2014  07:25:00     -160.584      -70.167       -3.112       37.805       35.387       25.706     1429.181     1252.264      660.820        1.703        0.167      175.244       10.970        0.004      337.799       10.018      862.577
10/23/2014  07:26:00      -21.652      -28.309       13.891       61.475       24.303       18.766     3779.181      590.615      352.177        0.309        0.236       35.640       29.213        0.672      337.902       10.189      862.558
10/23/2014  07:27:00       -1.686      -16.291       -7.767       17.232        9.096       10.415      296.940       82.736      108.467        0.041        0.024       16.378        7.678        0.220      337.908       10.201      862.519
10/23/2014  07:28:00      -16.579      -31.364      -11.443       18.198       11.790        9.936      331.156      139.012       98.720        0.098        0.028       35.476       10.065        0.080      337.910       10.204      862.535
10/23/2014  07:29:00      -49.897      -18.460       -7.591       10.335        9.552        6.417      106.809       91.248       41.174        0.156        0.012       53.202        5.276        0.010      337.976       10.311      862.556
10/23/2014  07:30:00      -19.956       -7.154       -1.431        7.492        5.160        4.362       56.136       26.630       19.026        0.028        0.005       21.199        3.036        0.021      337.945       10.261      862.538
10/23/2014  07:31:00       -0.480      -11.929      -13.324       10.515        9.891       12.503      110.556       97.836      156.320        0.034        0.018       11.939        8.937        0.560      337.947       10.265      862.522
10/23/2014  07:32:00        8.588       -4.368      -12.741       11.748       20.894       13.487      138.022      436.544      181.905        0.051        0.038        9.635        7.610        0.624      337.968       10.301      862.542
10/23/2014  07:33:00        8.254       -3.905      -10.679       12.085       11.896        8.493      146.048      141.523       72.126        0.028        0.018        9.131        3.111        0.116      338.027       10.400      862.569
10/23/2014  07:34:00       22.443        8.272       -4.256        9.454       16.676       10.846       89.382      278.083      117.629        0.054        0.024       23.919        4.053        0.029      338.219       10.722      862.566
10/23/2014  07:35:00        9.869       45.609       -4.236        7.852        6.898        4.614       61.647       47.588       21.290        0.116        0.007       46.664        2.888        0.004      338.451       11.113      862.546
10/23/2014  07:36:00        6.826       41.417       -4.183        4.275       11.703        4.084       18.273      136.966       16.677        0.098        0.009       41.976        3.682        0.008      338.425       11.068      862.557
10/23/2014  07:37:00       -0.548        7.318       -4.603        4.946        9.613        2.733       24.462       92.419        7.471        0.010        0.006        7.339        2.271        0.096      338.435       11.086      862.581
10/23/2014  07:38:00      -18.661      -20.976       -2.053       12.961       13.825        8.483      167.989      191.139       71.969        0.061        0.022       28.075        9.073        0.104      338.342       10.929      862.588
10/23/2014  07:39:00      -77.732      -26.678       -9.753       19.119        7.609        6.440      365.518       57.904       41.479        0.366        0.023       82.182        4.910        0.004      338.017       10.382      862.594
10/23/2014  07:40:00     -118.621      -33.406      -14.906       18.523       18.053       11.773      343.092      325.901      138.599        0.811        0.040      123.235        6.667        0.003      337.897       10.184      862.592
10/23/2014  07:41:00      -85.814      -40.409       -7.270       21.206       23.298       10.722      449.692      542.807      114.959        0.508        0.055       94.852        8.497        0.008      337.912       10.207      862.592
10/23/2014  07:42:00      -44.761        2.026       -2.762       13.609       14.856        7.183      185.207      220.713       51.592        0.124        0.023       44.807        4.439        0.010      338.134       10.577      862.569
10/23/2014  07:43:00       18.906        1.146        8.242       30.241       23.209       22.234      914.501      538.663      494.358        0.119        0.097       18.940       18.484        0.952      338.179       10.654      862.559
10/23/2014  07:44:00       43.327       -5.860        5.483       19.124       17.202       20.349      365.714      295.900      414.064        0.151        0.054       43.722        4.457        0.010      338.289       10.840      862.584
10/23/2014  07:45:00        2.241      -13.568        3.035       21.013       25.123       20.403      441.528      631.160      416.298        0.084        0.074       13.752       14.410        1.098      338.293       10.845      862.600
10/23/2014  07:46:00       23.675      -44.557       18.299       28.765       29.892       27.841      827.429      893.558      775.112        0.269        0.125       50.456       23.156        0.211      338.050       10.439      862.619
10/23/2014  07:47:00       58.427       45.428       19.698       21.201       19.488       20.010      449.480      379.772      400.387        0.355        0.061       74.009       15.903        0.046      338.051       10.439      862.621
10/23/2014  07:48:00       37.203       32.475       -8.697       19.198       16.522       14.170      368.551      272.982      200.799        0.168        0.042       49.383        8.604        0.030      337.973       10.308      862.605
10/23/2014  07:49:00       24.654       22.509       -1.952       16.514       23.000       13.632      272.696      528.978      185.834        0.105        0.049       33.384       14.443        0.187      337.828       10.063      862.594
10/23/2014  07:50:00        4.456        7.834       -0.767       11.731        7.556        9.728      137.622       57.096       94.632        0.019        0.014        9.012        4.506        0.250      337.854       10.109      862.628
10/23/2014  07:51:00        3.505        3.029       -1.019        4.201        4.202        3.665       17.645       17.656       13.435        0.004        0.002        4.632        4.013        0.751      337.966       10.295      862.678
10/23/2014  07:52:00       20.746        1.596       16.958       11.419        9.377       10.091      130.392       87.937      101.821        0.052        0.016       20.807        9.202        0.196      337.891       10.172      862.691
10/23/2014  07:53:00       12.256       -6.094       -4.080        8.525       16.278       12.743       72.678      264.974      162.375        0.035        0.025       13.688        5.979        0.191      338.090       10.505      862.678
10/23/2014  07:54:00      -47.667      -35.800      -10.515       41.823       18.260       14.853     1749.198      333.413      220.600        0.298        0.115       59.614        9.392        0.025      338.082       10.492      862.690
10/23/2014  07:55:00     -124.199      -46.051       -6.599       14.170       24.520       10.445      200.797      601.221      109.106        0.925        0.046      132.462        5.287        0.002      337.936       10.246      862.733
10/23/2014  07:56:00      -47.608      -22.929        2.308       35.494       28.787       15.571     1259.796      828.691      242.442        0.256        0.117       52.842       14.584        0.076      337.904       10.192      862.757
10/23/2014  07:57:00      -20.490       17.192        3.354        9.739       11.955       10.298       94.850      142.930      106.054        0.054        0.017       26.747        6.576        0.060      338.040       10.423      862.724
10/23/2014  07:58:00      -14.373       -7.247      -12.232        9.054        9.299        8.031       81.977       86.463       64.502        0.032        0.012       16.097        4.031        0.063      338.102       10.527      862.714
10/23/2014  07:59:00      -85.923      -33.797       -8.890       25.394       18.250        9.799      644.843      333.058       96.024        0.484        0.054       92.331        5.367        0.003      338.127       10.567      862.754
10/23/2014  08:00:00      -62.832      -35.211       -1.094       34.057       18.769       17.743     1159.876      352.282      314.830        0.351        0.091       72.025       14.721        0.042      338.105       10.531      862.782
10/23/2014  08:01:00        3.728       -5.405       -6.265       30.461       19.571        7.842      927.851      383.034       61.502        0.073        0.069        6.567        5.042        0.590      338.148       10.603      862.753
10/23/2014  08:02:00       33.697       32.165       18.717       23.316       14.827       18.069      543.655      219.838      326.487        0.181        0.054       46.584       15.311        0.108      338.100       10.522      862.707
10/23/2014  08:03:00      -25.641       -8.901       17.671       31.577       26.939       24.043      997.088      725.724      578.045        0.167        0.115       27.142       19.644        0.524      338.090       10.505      862.745
10/23/2014  08:04:00      -47.942      -27.763        1.502       51.535       21.149       17.038     2655.841      447.294      290.291        0.323        0.170       55.400        8.120        0.021      338.173       10.644      862.832
10/23/2014  08:05:00       14.444      -15.234        8.380       21.655       22.680       15.962      468.956      514.396      254.773        0.087        0.062       20.994       10.555        0.253      338.250       10.772      862.862
10/23/2014  08:06:00       64.484       52.525       11.851       27.531       18.234       23.010      757.971      332.470      529.451        0.434        0.081       83.169       14.252        0.029      338.132       10.574      862.818
10/23/2014  08:07:00       65.465       52.172       12.351       20.727       19.235       16.315      429.599      369.968      266.166        0.411        0.053       83.711       10.897        0.017      338.092       10.509      862.828
10/23/2014  08:08:00       26.623       37.463       35.296       28.204       31.104       13.715      795.484      967.460      188.104        0.265        0.098       45.959        8.296        0.033      338.074       10.479      862.852
10/23/2014  08:09:00       32.059       35.872       20.354       29.336       24.117       23.061      860.575      581.623      531.817        0.235        0.099       48.110       12.899        0.072      338.053       10.444      862.827
10/23/2014  08:10:00       39.867       25.176       -0.978       24.415       21.033       18.503      596.071      442.391      342.370        0.180        0.069       47.151       12.462        0.070      337.999       10.352      862.841
10/23/2014  08:11:00       19.504        4.058       -3.416       17.373       15.626        7.979      301.811      244.169       63.663        0.051        0.030       19.922        6.301        0.100      338.002       10.356      862.919
10/23/2014  08:12:00        0.762      -25.116        1.419       14.071       20.674       16.650      198.005      427.405      277.224        0.077        0.045       25.128       12.761        0.258      338.093       10.509      862.983
10/23/2014  08:13:00       39.786       35.337       10.243       14.193       15.041       11.042      201.455      226.236      121.915        0.174        0.027       53.213        8.589        0.026      337.964       10.293      862.993
10/23/2014  08:14:00       76.571       51.137        8.925       27.873       21.841       20.982      776.891      477.046      440.259        0.513        0.085       92.077       12.113        0.017      337.964       10.293      862.923
10/23/2014  08:15:00       57.302       24.298       -6.044       37.621       27.755       20.849     1415.357      770.317      434.693        0.326        0.131       62.241       13.227        0.045      337.960       10.287      862.912
10/23/2014  08:16:00       12.024      -40.713       -0.336       24.222       20.396       13.559      586.721      415.983      183.856        0.149        0.059       42.452        6.560        0.024      338.085       10.497      863.035
10/23/2014  08:17:00        8.141       -3.028        2.171       15.231       19.462       12.921      231.970      378.785      166.953        0.043        0.039        8.686        5.415        0.389      338.146       10.598      863.138
10/23/2014  08:18:00       -5.166        6.150       11.179       13.516       20.630       18.180      182.685      425.617      330.497        0.056        0.047        8.032        8.305        1.069      338.156       10.616      863.122
10/23/2014  08:19:00       98.122       48.546       17.422       42.946       16.677       24.333     1844.392      278.110      592.092        0.750        0.136      109.475       24.198        0.049      338.070       10.472      863.008
10/23/2014  08:20:00       67.878       41.993        0.293       30.475       18.587       22.324      928.738      345.489      498.357        0.407        0.089       79.818       14.215        0.032      338.014       10.379      862.987
10/23/2014  08:21:00       34.402       11.504        4.762       25.176       18.434       13.128      633.824      339.815      172.334        0.124        0.057       36.274       14.286        0.155      338.060       10.457      863.040
10/23/2014  08:22:00        2.944       -2.333        4.893       12.123        9.982        9.164      146.966       99.647       83.982        0.018        0.017        3.756        4.929        1.721      338.089       10.504      863.093
10/23/2014  08:23:00       33.199       32.856       15.445       15.205        9.203        7.084      231.177       84.699       50.188        0.139        0.018       46.709        6.349        0.018      337.998       10.349      863.098
10/23/2014  08:24:00       88.402       58.532       26.288       18.476       17.117       16.619      341.370      292.983      276.195        0.642        0.046      106.023        6.763        0.004      338.034       10.413      863.114
10/23/2014  08:25:00       33.194       58.659       61.610       39.573       33.744       28.158     1566.046     1138.660      792.896        0.592        0.175       67.400       20.011        0.088      338.054       10.444      863.153
10/23/2014  08:26:00       81.304       72.305       56.806       52.285       40.155       37.195     2733.735     1612.438     1383.471        1.040        0.286      108.805       30.035        0.076      337.968       10.300      863.137
10/23/2014  08:27:00       99.375       77.878       55.366       49.223       32.727       38.896     2422.869     1071.065     1512.903        1.201        0.250      126.255       19.512        0.024      337.907       10.199      863.065
10/23/2014  08:28:00       82.732       60.753       48.235       36.668       29.867       25.435     1344.555      892.059      646.958        0.787        0.144      102.643       11.520        0.013      337.860       10.121      863.048
10/23/2014  08:29:00       15.681       26.441       41.792       22.347       17.377       13.089      499.407      301.959      171.330        0.183        0.049       30.741       11.218        0.133      337.895       10.177      863.096
10/23/2014  08:30:00       19.464       29.125       18.556       23.503       18.952       19.412      552.405      359.171      376.823        0.143        0.064       35.030       14.965        0.183      337.899       10.185      863.113
10/23/2014  08:31:00       22.760        1.934        1.682       16.106       12.016       10.057      259.402      144.393      101.147        0.051        0.025       22.842        5.640        0.061      337.915       10.213      863.108
10/23/2014  08:32:00       42.161      -19.522       12.459       24.081       25.094       20.309      579.897      629.700      412.443        0.197        0.081       46.461       12.993        0.078      338.042       10.425      863.147
10/23/2014  08:33:00       45.558      -12.222       19.265       32.283       32.132       23.538     1042.199     1032.476      554.035        0.261        0.131       47.169       23.895        0.257      337.972       10.308      863.173
10/23/2014  08:34:00       16.642       12.918       24.861       25.025       38.725       27.987      626.240     1499.627      783.282        0.199        0.145       21.068       28.000        1.766      337.957       10.281      863.158
10/23/2014  08:35:00       19.649       11.091       24.543       20.568       26.911       27.522      423.048      724.191      757.467        0.151        0.095       22.564       21.575        0.914      337.988       10.335      863.131
10/23/2014  08:36:00        1.295       25.167       21.094       23.801       35.650       22.706      566.468     1270.897      515.544        0.172        0.118       25.200       16.656        0.437      338.015       10.379      863.107
10/23/2014  08:37:00       69.697       40.701       17.007       36.924       30.856       25.774     1363.411      952.111      664.280        0.489        0.149       80.711       16.192        0.040      337.961       10.289      863.113
10/23/2014  08:38:00        5.857       18.090      -11.761       26.275        9.131        8.735      690.391       83.370       76.297        0.067        0.043       19.015        8.923        0.220      337.922       10.222      863.162
10/23/2014  08:39:00      -35.192       -2.987       -1.213       17.166       20.447       11.053      294.670      418.067      122.169        0.104        0.042       35.319        7.163        0.041      337.975       10.313      863.215
10/23/2014  08:40:00      -10.339      -13.008        1.056        9.499       10.407        8.225       90.224      108.302       67.657        0.027        0.013       16.617        5.732        0.119      338.035       10.414      863.255
10/23/2014  08:41:00       25.998       14.639       15.061       36.236       44.114       28.104     1313.029     1946.060      789.816        0.258        0.202       29.836       30.848        1.069      338.066       10.465      863.239
10/23/2014  08:42:00      104.782       75.574       12.830       34.247       26.758       20.674     1172.890      716.004      427.419        0.959        0.116      129.192       11.544        0.008      337.952       10.275      863.152
10/23/2014  08:43:00      136.783       70.067        2.244       50.728       35.742       34.155     2573.321     1277.471     1166.596        1.432        0.251      153.684       20.818        0.018      337.960       10.287      863.050
10/23/2014  08:44:00       19.070       18.285        0.862       51.555       23.002       19.339     2657.929      529.085      373.982        0.213        0.178       26.420       18.095        0.469      338.019       10.387      863.079
10/23/2014  08:45:00      -66.437      -24.117       -7.509       38.822       25.201       19.290     1507.121      635.077      372.100        0.378        0.126       70.679       10.826        0.023      338.139       10.588      863.203
10/23/2014  08:46:00       -9.416      -18.443       16.527       40.895       22.256       24.977     1672.428      495.321      623.846        0.175        0.140       20.708       19.391        0.877      338.299       10.857      863.279
10/23/2014  08:47:00      -42.046      -42.407        3.310       46.184       24.454       18.816     2132.981      598.003      354.047        0.333        0.154       59.718       11.691        0.038      338.269       10.804      863.249
10/23/2014  08:48:00       46.822      -12.508       10.804       58.102       31.272       31.683     3375.852      977.960     1003.802        0.391        0.268       48.464       22.608        0.218      338.268       10.804      863.218
10/23/2014  08:49:00       17.539       -5.856       36.262       28.422       20.969       20.019      807.815      439.719      400.771        0.165        0.082       18.491       10.623        0.330      338.404       11.033      863.236
10/23/2014  08:50:00        9.198       13.496       33.326       31.195       32.892       22.201      973.141     1081.875      492.888        0.196        0.127       16.332       22.980        1.980      338.326       10.902      863.243
10/23/2014  08:51:00       12.086       19.088       36.554       29.757       35.980       23.471      885.501     1294.560      550.869        0.229        0.137       22.592       21.372        0.895      338.231       10.741      863.211
10/23/2014  08:52:00       19.384       42.158       30.329       24.659       23.194       19.438      608.058      537.975      377.845        0.230        0.076       46.401       19.158        0.170      338.239       10.753      863.141
10/23/2014  08:53:00       14.785       25.969        3.570       12.071       11.251       12.540      145.701      126.593      157.254        0.067        0.021       29.883        8.570        0.082      338.248       10.771      863.113
10/23/2014  08:54:00      -20.082       12.388       -1.311       15.938        8.844        6.058      254.023       78.211       36.698        0.046        0.018       23.595        6.022        0.065      338.300       10.858      863.163
10/23/2014  08:55:00      -34.533      -10.140       -5.535       29.450       15.213        9.980      867.297      231.434       99.604        0.126        0.060       35.990        4.216        0.014      338.350       10.941      863.219
10/23/2014  08:56:00      -11.242      -40.188        6.469       35.361       37.875       19.353     1250.417     1434.492      374.535        0.242        0.153       41.731       21.011        0.254      338.488       11.175      863.266
10/23/2014  08:57:00      -59.953      -50.498       -8.971       14.566       25.813        9.369      212.155      666.313       87.787        0.360        0.048       78.386        7.419        0.009      338.360       10.960      863.254
10/23/2014  08:58:00      -48.090      -17.406        3.319       19.258       14.674       15.674      370.854      215.322      245.687        0.173        0.042       51.143       13.381        0.068      338.461       11.128      863.202
10/23/2014  08:59:00      -54.469      -38.041       -4.106       22.293       27.546       12.184      496.984      758.785      148.448        0.292        0.070       66.438       10.266        0.024      338.426       11.069      863.155
10/23/2014  09:00:00      -57.288      -50.525       -1.470       30.302       22.145       19.134      918.232      490.409      366.109        0.381        0.089       76.385       17.898        0.055      338.460       11.129      863.189
10/23/2014  09:01:00      -64.625      -63.250       10.035       55.089       40.594       27.665     3034.783     1647.883      765.327        0.686        0.272       90.426       31.985        0.125      338.514       11.217      863.272
10/23/2014  09:02:00     -131.012      -93.383       -1.623       62.386       51.218       34.757     3892.061     2623.291     1208.032        1.680        0.386      160.887       33.858        0.044      338.480       11.160      863.312
10/23/2014  09:03:00      -86.768      -34.613        1.452       54.706       34.689       26.797     2992.724     1203.315      718.059        0.682        0.246       93.417       27.025        0.084      338.463       11.132      863.271
10/23/2014  09:04:00      -85.514       15.515       -6.201       35.264        9.702        8.348     1243.526       94.129       69.683        0.450        0.070       86.910       14.228        0.027      338.389       11.006      863.159
10/23/2014  09:05:00      -28.108       10.233       -5.406        9.528        7.402        4.971       90.789       54.795       24.713        0.055        0.009       29.913        3.200        0.011      338.465       11.134      863.080
10/23/2014  09:06:00      -29.424      -16.011       -8.360       21.761       20.020       12.267      473.544      400.805      150.468        0.111        0.051       33.498       12.191        0.132      338.571       11.311      863.085
10/23/2014  09:07:00     -112.719      -47.993       -4.378       40.325       29.382       16.515     1626.146      863.310      272.736        0.889        0.138      122.511       13.408        0.012      338.552       11.281      863.132
10/23/2014  09:08:00      -58.155      -29.350        4.620       42.552       34.575       19.731     1810.662     1195.456      389.296        0.383        0.170       65.141       12.492        0.037      338.632       11.416      863.151
10/23/2014  09:09:00      -43.481      -11.909        7.851       47.885       31.265       25.638     2292.951      977.473      657.302        0.301        0.196       45.083       28.297        0.394      338.759       11.629      863.144
10/23/2014  09:10:00      -63.063      -20.367        2.133       27.640       32.175       17.161      763.979     1035.215      294.515        0.324        0.105       66.270       17.676        0.071      338.665       11.472      863.098
10/23/2014  09:11:00      -59.428       36.121      -17.843       21.122       32.400       13.561      446.135     1049.752      183.902        0.342        0.084       69.545       13.009        0.035      338.706       11.540      863.043
10/23/2014  09:12:00      -53.316       -1.390       -5.305       20.171       14.915       11.577      406.864      222.447      134.017        0.182        0.038       53.334        9.274        0.030      338.789       11.679      863.021
10/23/2014  09:13:00      -57.939      -11.616      -11.643       20.737       26.821       11.962      430.036      719.375      143.078        0.246        0.065       59.092       12.385        0.044      338.816       11.725      863.046
10/23/2014  09:14:00      -11.576      -13.853       12.098       29.983       20.909       21.362      898.974      437.166      456.336        0.113        0.090       18.053       15.505        0.738      339.131       12.253      863.104
10/23/2014  09:15:00      -53.219      -59.388       -0.073       40.201       30.802       18.861     1616.151      948.759      355.754        0.464        0.146       79.745       18.773        0.055      338.905       11.875      863.138
10/23/2014  09:16:00      -49.569      -59.931       -4.129       28.575       17.358       13.451      816.523      301.303      180.939        0.368        0.065       77.774       11.488        0.022      338.804       11.704      863.131
10/23/2014  09:17:00      -27.749      -18.445       -7.698       14.002        9.739        8.734      196.067       94.847       76.275        0.077        0.018       33.321        3.687        0.012      338.929       11.914      863.158
10/23/2014  09:18:00      -10.332        3.247       13.195       14.246       20.452       27.988      202.940      418.302      783.301        0.085        0.070       10.830       21.094        3.793      339.304       12.545      863.174
10/23/2014  09:19:00      -14.671       26.567       29.954       10.519       11.793       11.894      110.644      139.083      141.478        0.110        0.020       30.348        6.001        0.039      339.232       12.426      863.149
10/23/2014  09:20:00       -6.556        9.743       14.266       12.149       11.335       12.723      147.610      128.476      161.871        0.039        0.022       11.743        5.297        0.203      339.485       12.851      863.107
10/23/2014  09:21:00      -13.770       69.530       -5.839       24.588       34.970       16.252      604.589     1222.889      264.127        0.357        0.105       70.880        9.435        0.018      339.174       12.326      863.045
10/23/2014  09:22:00      -28.323       79.372       -1.575       18.103       28.870       18.872      327.724      833.469      356.162        0.431        0.076       84.274       16.256        0.037      339.234       12.428      863.010
10/23/2014  09:23:00      -14.459       37.535       -6.768       18.882       24.431       13.665      356.532      596.871      186.733        0.140        0.057       40.223       13.882        0.119      339.256       12.464      863.042
10/23/2014  09:24:00     -144.690      -81.286      -13.952       49.530       48.079       17.653     2453.242     2311.607      311.641        1.641        0.254      165.960       15.571        0.009      339.145       12.276      863.108
10/23/2014  09:25:00      -71.909       -7.039       13.433       46.525       51.013       29.737     2164.559     2602.334      884.299        0.553        0.283       72.253       26.825        0.138      339.307       12.549      863.160
10/23/2014  09:26:00      -78.163       12.047        4.317       53.743       23.558       30.032     2888.285      554.965      901.910        0.531        0.217       79.086       33.689        0.181      339.346       12.616      863.131
10/23/2014  09:27:00      -55.267       65.937       -9.734       29.940       56.430       14.497      896.420     3184.345      210.154        0.589        0.215       86.036       13.075        0.023      339.319       12.572      863.068
10/23/2014  09:28:00       -6.234       55.991       -0.503       20.942       42.154       19.704      438.562     1776.970      388.246        0.289        0.130       56.337       21.042        0.140      339.753       13.303      863.042
10/23/2014  09:29:00      -26.287       38.500        2.689       31.214       46.158       28.085      974.330     2130.586      788.784        0.304        0.195       46.618       24.301        0.272      339.864       13.491      863.065
10/23/2014  09:30:00      -55.979        4.609       -6.559       20.412       25.347       15.099      416.664      642.465      227.972        0.224        0.064       56.169       12.773        0.052      339.550       12.960      863.073
10/23/2014  09:31:00       -0.679       17.255       21.389       37.261       32.372       20.050     1388.377     1047.933      401.998        0.180        0.142       17.268       18.522        1.150      339.907       13.563      863.043
10/23/2014  09:32:00       -5.567      132.383      -10.437       25.486       44.602       23.022      649.559     1989.356      530.026        1.042        0.158      132.500       19.284        0.021      339.764       13.321      862.982
10/23/2014  09:33:00      -20.445      114.782      -10.010       27.028       47.148       25.179      730.499     2222.964      633.967        0.864        0.179      116.589       26.804        0.053      339.821       13.417      862.976
10/23/2014  09:34:00      -43.552       50.952       -2.202       39.993       45.105       20.542     1599.443     2034.475      421.989        0.428        0.203       67.029       15.723        0.055      339.882       13.520      863.027
10/23/2014  09:35:00     -119.957      -38.683       -5.786       78.060       43.599       35.484     6093.365     1900.911     1259.131        1.258        0.463      126.040       44.282        0.123      339.728       13.260      863.093
10/23/2014  09:36:00     -115.813      -15.525       -8.419       42.875       31.658       22.503     1838.302     1002.238      506.369        0.854        0.167      116.849       22.479        0.037      339.657       13.140      863.144
10/23/2014  09:37:00      -95.334      -21.239       -3.323       34.473       24.608       16.274     1188.394      605.568      264.855        0.580        0.103       97.671       17.486        0.032      339.758       13.310      863.150
10/23/2014  09:38:00      -37.627        4.631       -1.619       28.589       13.360       11.326      817.318      178.488      128.286        0.128        0.056       37.910       12.108        0.102      339.881       13.521      863.092
10/23/2014  09:39:00       20.233       18.623       11.456       22.577       15.283       18.697      509.721      233.559      349.583        0.099        0.055       27.499        9.444        0.118      340.261       14.160      863.005
10/23/2014  09:40:00        9.575       57.104       -3.420       29.852       44.747       22.199      891.153     2002.251      492.782        0.337        0.169       57.901       24.191        0.175      340.319       14.259      862.930
10/23/2014  09:41:00      -35.960       63.105      -14.185       15.215       30.830       13.592      231.504      950.502      184.730        0.342        0.068       72.632        6.966        0.009      340.135       13.949      862.932
10/23/2014  09:42:00      -78.888       -6.116      -15.774       27.331       16.467       21.202      746.998      271.147      449.542        0.399        0.073       79.125       14.572        0.034      340.060       13.821      862.989
10/23/2014  09:43:00      -58.129      -49.162       -0.103       41.761       19.776       19.229     1743.996      391.108      369.745        0.415        0.125       76.130       16.643        0.048      340.097       13.881      863.052
10/23/2014  09:44:00      -50.871      -15.113        7.414       60.094       36.793       23.927     3611.292     1353.730      572.522        0.420        0.277       53.069       22.223        0.175      340.335       14.284      863.065
10/23/2014  09:45:00       -2.015       48.838       18.275       20.194       21.473       17.129      407.782      461.074      293.419        0.194        0.058       48.880       13.738        0.079      340.615       14.758      863.040
10/23/2014  09:46:00        0.997       21.761       24.878       20.837       19.344       14.748      434.178      374.204      217.515        0.106        0.051       21.784       11.599        0.284      340.974       15.365      863.023
10/23/2014  09:47:00      -17.110       -6.402       15.676        8.393       20.461       13.118       70.443      418.645      172.090        0.062        0.033       18.269       13.190        0.521      340.634       14.790      863.025
10/23/2014  09:48:00      -22.523      -12.453       -4.202        8.760       10.041        9.463       76.736      100.813       89.547        0.047        0.013       25.737        7.785        0.092      340.530       14.614      863.028
10/23/2014  09:49:00      -35.606      -21.048        2.288       15.665        8.744        8.055      245.390       76.461       64.891        0.105        0.019       41.362        7.264        0.031      340.429       14.442      863.041
10/23/2014  09:50:00      -49.334       -7.503       -3.807       10.800        6.810        7.705      116.645       46.377       59.374        0.136        0.011       49.901        3.900        0.006      340.362       14.329      863.047
10/23/2014  09:51:00      -23.359       -1.438      -10.029        5.232        5.572        5.291       27.373       31.045       27.995        0.037        0.004       23.403        3.657        0.024      340.448       14.475      863.035
10/23/2014  09:52:00      -11.814        5.660       -0.963        9.152        7.020       14.531       83.750       49.274      211.142        0.026        0.017       13.099        4.277        0.107      340.866       15.181      863.037
10/23/2014  09:53:00      -13.404        6.858       15.085       13.517        8.125       14.026      182.718       66.013      196.732        0.045        0.022       15.056       11.263        0.560      341.033       15.466      863.050
10/23/2014  09:54:00       -5.132        2.733       15.353       10.320        5.698        8.830      106.509       32.468       77.965        0.024        0.011        5.814        6.743        1.345      341.199       15.746      863.053
10/23/2014  09:55:00       -9.566        4.130       20.374       14.429       17.484       11.765      208.197      305.682      138.412        0.059        0.033       10.420        8.544        0.672      341.152       15.667      863.046
10/23/2014  09:56:00       10.573        0.795       17.502        9.944        8.916        8.309       98.879       79.501       69.041        0.033        0.012       10.603        4.049        0.146      340.903       15.245      863.031
10/23/2014  09:57:00       31.533        0.522        3.147       17.142       15.932       15.742      293.850      253.844      247.814        0.090        0.040       31.537        5.730        0.033      340.470       14.513      863.008
10/23/2014  09:58:00      -22.089       13.446        2.941       15.757       14.581       20.420      248.278      212.595      416.986        0.078        0.044       25.859       11.796        0.208      340.837       15.133      862.987
10/23/2014  09:59:00      -27.205        9.015       12.175       10.147        9.546       12.210      102.954       91.127      149.090        0.066        0.017       28.659        7.894        0.076      340.930       15.292      862.993
10/23/2014  10:00:00      -23.716      -16.569        2.184       15.743        7.344        8.646      247.840       53.929       74.753        0.061        0.019       28.931        5.772        0.040      340.817       15.100      863.008
10/23/2014  10:01:00      -24.063      -34.826        4.782       16.245       26.264       16.590      263.904      689.787      275.229        0.152        0.061       42.330       15.214        0.129      340.811       15.090      863.018
10/23/2014  10:02:00       20.922      -21.609       23.905       31.059       43.176       26.280      964.663     1864.131      690.663        0.250        0.176       30.078       21.639        0.518      340.832       15.126      863.019
10/23/2014  10:03:00       11.814       12.362       36.077       30.832       22.336       27.442      950.611      498.914      753.055        0.190        0.110       17.099       21.965        1.650      341.266       15.858      863.018
10/23/2014  10:04:00        9.371      -45.421        7.289       27.714       36.318       24.206      768.068     1318.986      585.932        0.244        0.134       46.378       14.666        0.100      340.972       15.362      863.018
10/23/2014  10:05:00      -23.157       -9.497       15.181       12.776       31.775       18.704      163.230     1009.651      349.832        0.119        0.076       25.028       19.349        0.598      341.042       15.480      863.003
10/23/2014  10:06:00       -9.170      -10.679       18.466       13.357       15.212       13.506      178.408      231.409      182.424        0.057        0.030       14.076        9.246        0.431      341.324       15.956      862.979
10/23/2014  10:07:00       13.771      -13.975        7.124       21.049       14.803       18.515      443.048      219.125      342.792        0.072        0.050       19.620       14.588        0.553      341.030       15.460      862.970
10/23/2014  10:08:00        3.025      -33.422        2.015       36.243       31.337       23.703     1313.575      982.018      561.824        0.199        0.143       33.559       15.428        0.211      340.738       14.967      862.970
10/23/2014  10:09:00       45.122      -15.705       14.420       38.578       35.542       29.059     1488.247     1263.221      844.432        0.304        0.180       47.777       32.664        0.467      340.789       15.052      862.960
10/23/2014  10:10:00       39.081        7.278       20.993       30.852       23.479       27.477      951.863      551.266      754.995        0.214        0.113       39.753       14.333        0.130      340.867       15.182      862.941
10/23/2014  10:11:00       38.845       64.081       72.285       44.956       67.732       58.322     2021.013     4587.685     3401.401        1.042        0.501       74.935       55.856        0.556      340.860       15.170      862.879
10/23/2014  10:12:00      143.347       86.021       29.163       73.238       48.580       65.055     5363.808     2360.047     4232.129        2.038        0.598      167.176       48.649        0.085      340.828       15.117      862.809
10/23/2014  10:13:00      112.701       85.942        1.299       51.161       42.117       34.605     2617.434     1773.827     1197.495        1.284        0.279      141.730       24.149        0.029      340.987       15.387      862.802
10/23/2014  10:14:00       52.711       45.643       17.875       37.644       31.727       28.337     1417.083     1006.633      803.005        0.420        0.161       69.726       15.829        0.052      341.179       15.713      862.849
10/23/2014  10:15:00        6.544       -9.493       -6.077       25.589       30.651       20.003      654.817      939.505      400.130        0.108        0.100       11.529       14.287        1.536      341.208       15.761      862.910
10/23/2014  10:16:00      -19.838       27.005       -1.703       22.674       29.555       23.611      514.118      873.524      557.494        0.154        0.097       33.509       16.767        0.250      341.163       15.685      862.948
10/23/2014  10:17:00       24.790       38.740        7.177       42.018       30.205       25.578     1765.540      912.339      654.232        0.275        0.167       45.993       15.851        0.119      341.505       16.264      862.924
10/23/2014  10:18:00       72.319       68.687       71.456       70.730       44.393       42.986     5002.706     1970.739     1847.828        1.194        0.441       99.739       34.705        0.121      341.285       15.892      862.872
10/23/2014  10:19:00       76.766      105.347       85.361       56.906       47.800       30.658     3238.344     2284.875      939.896        1.537        0.323      130.350       20.156        0.024      341.451       16.172      862.817
10/23/2014  10:20:00       91.412       20.656       21.605       71.263       83.099       63.779     5078.484     6905.452     4067.810        1.265        0.803       93.717       46.817        0.250      341.268       15.863      862.791
10/23/2014  10:21:00       60.752      -57.299       14.190       64.282       45.291       36.223     4132.172     2051.297     1312.110        0.733        0.375       83.511       32.602        0.152      341.131       15.631      862.798
10/23/2014  10:22:00       16.699        5.214       11.764       44.453       53.211       39.413     1976.072     2831.432     1553.369        0.340        0.318       17.494       24.228        1.918      341.423       16.126      862.862
10/23/2014  10:23:00       61.954       50.514        6.744       47.675       34.487       24.626     2272.933     1189.378      606.449        0.525        0.203       79.937       15.335        0.037      341.323       15.955      862.903
10/23/2014  10:24:00       21.208      -37.893       12.630       54.764       59.383       32.433     2999.135     3526.295     1051.919        0.481        0.379       43.424       32.236        0.551      341.704       16.603      862.914
10/23/2014  10:25:00       36.300       32.277       54.003       29.230       45.675       22.402      854.388     2086.169      501.843        0.436        0.172       48.575       23.027        0.225      341.667       16.537      862.900
10/23/2014  10:26:00       56.532       65.190       58.260       43.623       31.984       32.335     1903.001     1022.957     1045.537        0.740        0.199       86.287       24.080        0.078      341.268       15.863      862.892
10/23/2014  10:27:00       -7.858       27.990       38.456       41.970       40.168       21.423     1761.504     1613.437      458.965        0.308        0.192       29.072       15.266        0.276      341.535       16.314      862.891
10/23/2014  10:28:00       19.187       -5.894       32.937       26.408       52.896       26.096      697.382     2797.954      681.005        0.283        0.209       20.072       24.085        1.440      341.439       16.153      862.879
10/23/2014  10:29:00        1.455       57.055       75.666       28.497       37.710       22.271      812.063     1422.063      495.997        0.586        0.137       57.073       16.946        0.088      341.407       16.098      862.863
10/23/2014  10:30:00       36.475       43.508       47.405       44.182       37.575       40.511     1952.017     1411.860     1641.134        0.524        0.250       56.775       36.920        0.423      341.363       16.024      862.852
10/23/2014  10:31:00      -14.401       -2.734       19.010       29.970       27.374       19.868      898.183      749.354      394.741        0.131        0.102       14.658       21.217        2.095      341.447       16.166      862.852
10/23/2014  10:32:00       22.607       22.950       37.759       22.563       35.129       26.540      509.098     1234.037      704.368        0.246        0.122       32.215       20.445        0.403      341.532       16.310      862.853
10/23/2014  10:33:00       58.133      -86.256        9.900       65.456       74.138       41.607     4284.553     5496.486     1731.127        1.121        0.576      104.018       32.665        0.099      341.640       16.494      862.864
10/23/2014  10:34:00       49.338      -62.818        4.963       44.630       76.903       43.910     1991.823     5914.073     1928.116        0.812        0.492       79.877       40.787        0.261      341.551       16.343      862.869
10/23/2014  10:35:00       64.101      -89.022      -11.262       76.882       58.564       45.201     5910.891     3429.700     2043.109        1.177        0.569      109.699       44.599        0.165      341.479       16.220      862.886
10/23/2014  10:36:00       14.590        7.500       41.879       29.020       47.227       20.841      842.152     2230.403      434.339        0.276        0.175       16.405       15.765        0.923      341.715       16.620      862.877
10/23/2014  10:37:00       23.787       73.045       85.609       49.627       50.566       37.379     2462.861     2556.945     1397.188        0.982        0.321       76.820       31.738        0.171      341.464       16.196      862.869
10/23/2014  10:38:00       57.161       57.954       58.117       58.408       49.528       35.961     3411.513     2453.020     1293.190        0.858        0.358       81.401       27.673        0.116      341.452       16.175      862.846
10/23/2014  10:39:00       29.304       70.644       73.731       70.216       44.275       39.553     4930.287     1960.267     1564.476        0.987        0.423       76.481       44.722        0.342      341.540       16.323      862.837
10/23/2014  10:40:00      121.516       57.382       19.068       43.028       54.420       35.210     1851.403     2961.516     1239.730        1.224        0.303      134.384       20.280        0.023      341.529       16.306      862.829
10/23/2014  10:41:00       25.779       57.254       70.061       44.228       42.403       25.549     1956.080     1798.047      652.740        0.663        0.220       62.790       12.470        0.039      341.693       16.586      862.801
10/23/2014  10:42:00        3.739       27.794       -1.656       26.065       29.232       24.459      679.388      854.525      598.224        0.146        0.107       28.044       10.216        0.133      341.748       16.677      862.799
10/23/2014  10:43:00       59.922      -65.915       35.274       67.969      108.765       51.445     4619.835    11829.735     2646.548        1.413        0.955       89.081       49.971        0.315      341.652       16.513      862.773
10/23/2014  10:44:00       71.196      -14.218       66.364       68.794       94.259       59.912     4732.560     8884.786     3589.402        1.344        0.860       72.602       67.969        0.876      341.674       16.551      862.756
10/23/2014  10:45:00      114.900      -97.770       16.972       53.820       90.949       62.840     2896.642     8271.757     3948.860        1.908        0.756      150.867       58.385        0.150      341.631       16.476      862.757
10/23/2014  10:46:00       92.408      -11.299       63.615       84.274      101.027       78.854     7102.189    10206.435     6217.938        1.812        1.176       93.096       85.497        0.843      341.800       16.763      862.746
10/23/2014  10:47:00       59.123      -25.502       46.515       63.073       63.665       49.668     3978.184     4053.217     2466.915        0.840        0.525       64.388       45.149        0.492      341.842       16.835      862.739
10/23/2014  10:48:00       30.218       40.088       63.572       39.066       77.612       41.231     1526.122     6023.573     1699.995        0.790        0.462       50.201       45.737        0.830      341.824       16.806      862.716
10/23/2014  10:49:00      115.148       87.208       73.371      104.217       84.594       64.618    10861.229     7156.181     4175.444        2.422        1.110      144.445       63.724        0.195      341.573       16.379      862.709
10/23/2014  10:50:00       43.559       75.475       83.973       64.128       73.087       51.465     4112.360     5341.730     2648.665        1.337        0.605       87.143       46.772        0.288      341.701       16.597      862.710
10/23/2014  10:51:00       82.799       96.626       64.508       52.362       40.819       46.726     2741.742     1666.199     2183.279        1.347        0.330      127.249       38.785        0.093      341.635       16.484      862.699
10/23/2014  10:52:00       43.867       35.909       44.205       52.772       52.998       49.264     2784.838     2808.776     2426.906        0.659        0.401       56.690       36.769        0.421      341.862       16.869      862.682
10/23/2014  10:53:00       66.815      -24.663       48.942       74.188       63.101       40.231     5503.931     3981.765     1618.513        0.928        0.555       71.221       32.620        0.210      341.886       16.910      862.653
10/23/2014  10:54:00       61.449       37.206       30.272       69.286       51.788       49.810     4800.514     2681.972     2481.014        0.802        0.498       71.835       39.244        0.298      341.870       16.883      862.613
10/23/2014  10:55:00       30.769       17.880       39.437       45.803       59.880       42.893     2097.901     3585.659     1839.832        0.517        0.376       35.587       26.097        0.538      342.216       17.470      862.583
10/23/2014  10:56:00       53.067       83.490      100.816       86.142       71.650       61.911     7420.452     5133.663     3833.018        1.817        0.819       98.928       66.457        0.451      341.757       16.691      862.548
10/23/2014  10:57:00       15.487       31.757       24.504       45.636       59.010       47.411     2082.603     3482.127     2247.780        0.483        0.391       35.331       36.933        1.093      341.864       16.873      862.537
10/23/2014  10:58:00       26.318      -10.403       35.392       37.080       53.231       36.307     1374.896     2833.495     1318.175        0.379        0.276       28.300       18.993        0.450      341.862       16.869      862.564
10/23/2014  10:59:00       27.621      -21.191       26.071       48.725       75.081       46.134     2374.145     5637.209     2128.302        0.601        0.507       34.814       48.675        1.955      341.997       17.100      862.605
10/23/2014  11:00:00      149.973     -150.814      -20.948       44.819       39.385       30.385     2008.741     1551.142      923.238        2.508        0.224      212.689       20.059        0.009      341.632       16.477      862.638
10/23/2014  11:01:00       70.228      -98.108       -1.621       48.982       68.086       39.636     2399.247     4635.709     1570.973        1.158        0.430      120.653       41.337        0.117      341.949       17.017      862.649
10/23/2014  11:02:00       74.379      -85.874       13.960       65.387       73.731       38.277     4275.502     5436.315     1465.167        1.214        0.559      113.607       25.552        0.051      341.826       16.807      862.643
10/23/2014  11:03:00       87.931      -51.369       10.986       50.696       48.476       45.087     2570.062     2349.881     2032.875        0.872        0.348      101.837       32.169        0.100      341.519       16.289      862.629
10/23/2014  11:04:00       82.675      -49.687       11.713       53.446       51.025       40.749     2856.473     2603.573     1660.488        0.828        0.356       96.457       22.556        0.055      341.573       16.379      862.579
10/23/2014  11:05:00      117.933      -95.225       -7.886       49.028       65.735       40.030     2403.717     4321.122     1602.363        1.568        0.416      151.579       31.666        0.044      341.636       16.486      862.554
10/23/2014  11:06:00       73.911      -61.333       -1.416       51.937      121.871       44.627     2697.435    14852.564     1991.608        1.438        0.977       96.045       39.044        0.165      342.068       17.220      862.560
10/23/2014  11:07:00       20.655       18.150        1.832       36.629       38.211       30.369     1341.656     1460.111      922.271        0.224        0.186       27.497       18.991        0.477      342.275       17.573      862.581
10/23/2014  11:08:00       73.109       55.043       16.671       55.665       36.452       31.975     3098.552     1328.731     1022.396        0.705        0.272       91.513       18.700        0.042      342.173       17.397      862.587
10/23/2014  11:09:00       14.947      -20.909       13.992       28.046       35.323       26.964      786.559     1247.740      727.046        0.181        0.138       25.703       22.470        0.764      342.090       17.257      862.575
10/23/2014  11:10:00        4.799       37.978       48.806       43.545       44.301       37.836     1896.150     1962.544     1431.540        0.457        0.265       38.280       31.471        0.676      342.066       17.215      862.574
10/23/2014  11:11:00       92.706       73.114       65.580       53.539       44.354       41.883     2866.384     1967.289     1754.156        1.241        0.329      118.068       31.438        0.071      341.648       16.507      862.567
10/23/2014  11:12:00       17.696      -26.746       33.403       36.416       57.416       33.420     1326.141     3296.563     1116.897        0.394        0.287       32.070       34.232        1.139      341.837       16.828      862.573
10/23/2014  11:13:00       71.969      -37.586       16.000       51.251       44.654       32.246     2626.670     1993.961     1039.795        0.625        0.283       81.193       35.985        0.196      341.813       16.786      862.562
10/23/2014  11:14:00        7.859       53.314       65.759       26.238       37.056       30.267      688.447     1373.152      916.071        0.510        0.149       53.890       24.400        0.205      342.196       17.437      862.533
10/23/2014  11:15:00       44.716       22.741       37.113       43.056       49.341       34.711     1853.827     2434.551     1204.878        0.469        0.275       50.166       23.963        0.228      342.198       17.440      862.509
10/23/2014  11:16:00       43.672      -30.101       22.143       63.690       27.530       32.222     4056.475      757.899     1038.282        0.458        0.293       53.041       28.401        0.287      342.076       17.232      862.506
10/23/2014  11:17:00       10.930       -8.713       11.010       42.190       29.208       22.329     1779.988      853.106      498.580        0.172        0.157       13.978       12.210        0.763      342.190       17.428      862.515
10/23/2014  11:18:00       47.261      -65.335       -1.005       34.783       33.534       24.622     1209.857     1124.498      606.258        0.472        0.147       80.637       19.827        0.060      341.818       16.795      862.523
10/23/2014  11:19:00       21.949      -53.996        8.048       34.607       62.593       29.765     1197.643     3917.914      885.944        0.473        0.300       58.286       29.523        0.257      342.084       17.248      862.512
10/23/2014  11:20:00       47.276       -5.552       31.686       52.033       43.190       41.881     2707.428     1865.405     1754.010        0.480        0.316       47.601       39.229        0.679      342.086       17.249      862.504
10/23/2014  11:21:00       38.807       15.836       15.768       21.147       14.763       20.713      447.178      217.949      429.035        0.155        0.055       41.914        6.709        0.026      341.911       16.952      862.485
10/23/2014  11:22:00       34.518      -12.133        6.964       32.440       32.957       24.885     1052.345     1086.133      619.278        0.207        0.138       36.589       17.715        0.234      341.816       16.791      862.429
10/23/2014  11:23:00      114.729       76.160       33.383       49.575       26.450       32.388     2457.658      699.592     1048.986        1.214        0.210      137.707       17.144        0.015      341.989       17.086      862.385
10/23/2014  11:24:00      120.250       74.643       52.014       55.462       39.979       42.975     3076.040     1598.342     1846.884        1.463        0.326      141.533       27.797        0.039      342.245       17.519      862.357
10/23/2014  11:25:00       96.051       64.609       19.861       55.123       34.236       35.040     3038.574     1172.099     1227.767        0.962        0.272      115.759       14.556        0.016      342.173       17.397      862.340
10/23/2014  11:26:00       22.956       42.483        4.830       31.436       17.090       21.118      988.214      292.066      445.972        0.204        0.086       48.289        7.170        0.022      342.205       17.451      862.316
10/23/2014  11:27:00        7.369      -19.857       14.269       26.184       46.296       26.051      685.608     2143.304      678.631        0.208        0.175       21.180       21.081        0.991      342.667       18.236      862.319
10/23/2014  11:28:00       15.365      -38.807       27.289       33.779       29.298       24.193     1141.050      858.393      585.287        0.254        0.129       41.738       18.890        0.205      342.499       17.952      862.332
10/23/2014  11:29:00       12.764       16.449       17.136       17.274       26.507       30.595      298.381      702.631      936.024        0.133        0.097       20.820       19.703        0.896      342.749       18.376      862.349
10/23/2014  11:30:00        7.067      -29.698       12.120       26.704       32.070       30.696      713.079     1028.468      942.231        0.188        0.134       30.527       22.556        0.546      342.509       17.968      862.345
10/23/2014  11:31:00       94.060       57.086       24.080       58.669       42.248       37.289     3442.026     1784.866     1390.491        0.965        0.331      110.027       20.798        0.036      342.524       17.994      862.344
10/23/2014  11:32:00      115.474       98.827       11.526       39.927       29.712       31.851     1594.199      882.793     1014.460        1.336        0.175      151.990       22.435        0.022      342.357       17.709      862.316
10/23/2014  11:33:00       27.123       72.316        4.296       39.466       33.082       29.829     1557.551     1094.403      889.785        0.476        0.177       77.235       23.037        0.089      342.536       18.014      862.301
10/23/2014  11:34:00       38.160       41.837        0.333       30.215       22.810       21.670      912.921      520.284      469.593        0.255        0.095       56.626       11.834        0.044      342.474       17.908      862.278
10/23/2014  11:35:00        8.793      128.743      -18.578       28.182       47.840       25.965      794.215     2288.679      674.193        1.038        0.188      129.043       29.632        0.053      342.489       17.936      862.254
10/23/2014  11:36:00       44.556       71.825       -1.508       57.126       55.490       33.806     3263.407     3079.107     1142.838        0.731        0.374       84.523       32.145        0.145      342.664       18.232      862.256
10/23/2014  11:37:00       84.551       52.736       18.197       64.603       56.044       36.259     4173.504     3140.978     1314.700        0.944        0.431       99.649       24.036        0.058      342.670       18.244      862.271
10/23/2014  11:38:00       90.204       45.572        2.733       35.157       22.639       22.125     1235.995      512.534      489.508        0.623        0.112      101.062       17.048        0.028      342.407       17.793      862.288
10/23/2014  11:39:00       71.932       48.552        6.506       38.246       32.709       27.412     1462.759     1069.869      751.443        0.543        0.164       86.784       14.211        0.027      342.584       18.096      862.280
10/23/2014  11:40:00       56.724       31.726       23.234       41.855       26.647       28.582     1751.851      710.075      816.918        0.402        0.164       64.994       11.977        0.034      342.671       18.243      862.286
10/23/2014  11:41:00        6.007       21.839       -9.603       35.313       34.946       21.438     1247.007     1221.225      459.602        0.177        0.146       22.650       21.702        0.918      342.644       18.197      862.297
10/23/2014  11:42:00        2.262       -2.313       14.207       17.149       20.074       17.566      294.094      402.953      308.565        0.061        0.050        3.235        9.832        9.238      342.815       18.488      862.303
10/23/2014  11:43:00        3.505       13.262       23.822       13.950       12.512       12.576      194.607      156.553      158.161        0.063        0.025       13.718        7.279        0.282      342.925       18.676      862.297
10/23/2014  11:44:00        0.186        3.751       17.059       20.234       13.634       11.880      409.432      185.874      141.144        0.052        0.037        3.755        8.083        4.633      343.046       18.882      862.283
10/23/2014  11:45:00       51.443       11.402       24.697       24.607       16.798       24.594      605.526      282.171      604.886        0.244        0.075       52.692       13.240        0.063      342.485       17.927      862.262
10/23/2014  11:46:00       15.830       38.831        9.967       20.177       15.241       18.571      407.097      232.292      344.896        0.142        0.049       41.933        6.252        0.022      342.507       17.965      862.241
10/23/2014  11:47:00       57.273       39.216       14.954       33.300       30.793       23.685     1108.860      948.207      560.981        0.383        0.131       69.413       20.956        0.091      342.377       17.744      862.211
10/23/2014  11:48:00       29.202      114.739      -27.678       21.396       32.295       18.157      457.805     1042.979      329.690        0.831        0.092      118.397       12.644        0.011      342.520       17.987      862.196
10/23/2014  11:49:00       33.248       66.870       -7.295       41.969       44.254       24.781     1761.364     1958.408      614.094        0.498        0.217       74.680       25.203        0.114      342.637       18.186      862.186
10/23/2014  11:50:00      -26.245       35.140      -25.773       25.217       32.780       12.567      635.884     1074.532      157.939        0.223        0.093       43.860        9.553        0.047      342.568       18.068      862.170
10/23/2014  11:51:00      -28.671        3.993        3.709       29.137       20.594       15.419      848.977      424.107      237.744        0.118        0.076       28.947       10.084        0.121      343.015       18.828      862.174
10/23/2014  11:52:00      -34.376      -20.414        5.532       30.633       20.183       14.197      938.351      407.347      201.566        0.159        0.077       39.980        6.886        0.030      343.019       18.836      862.166
10/23/2014  11:53:00      -32.012       24.753       13.024       29.175       27.734       18.717      851.162      769.151      350.341        0.189        0.099       40.466       15.612        0.149      343.322       19.353      862.163
10/23/2014  11:54:00      -21.085       10.913       15.722       42.705       23.885       31.210     1823.698      570.500      974.071        0.209        0.168       23.742       27.578        1.349      343.389       19.468      862.161
10/23/2014  11:55:00        5.140        4.383       12.844       20.257       20.537       21.098      410.328      421.769      445.129        0.074        0.064        6.755       16.057        5.650      343.012       18.823      862.137
10/23/2014  11:56:00      -48.183       22.507      -29.782       53.215       50.874       28.940     2831.810     2588.119      837.549        0.499        0.313       53.181        9.691        0.033      342.936       18.694      862.127
10/23/2014  11:57:00        9.810       14.184        0.081       22.676       23.415       28.998      514.198      548.278      840.906        0.110        0.095       17.246       11.025        0.409      343.134       19.033      862.112
10/23/2014  11:58:00        9.588       48.353        7.282       25.831       29.196       23.766      667.250      852.391      564.835        0.228        0.104       49.295       15.064        0.093      343.022       18.842      862.102
10/23/2014  11:59:00       12.393      135.592      -11.244       49.932       54.007       32.794     2493.215     2916.708     1075.442        1.257        0.324      136.157       27.347        0.040      342.886       18.609      862.108
10/23/2014  12:00:00      -40.460       40.234      -11.161       36.784       28.527       19.595     1353.044      813.799      383.946        0.297        0.128       57.060       12.774        0.050      342.913       18.655      862.103
10/23/2014  12:01:00      -55.484       73.774       -6.626       30.044       50.291       25.202      902.638     2529.143      635.119        0.632        0.203       92.310       17.039        0.034      342.936       18.694      862.109
10/23/2014  12:02:00      -33.781       38.990        2.400       34.688       38.220       26.143     1203.257     1460.776      683.438        0.301        0.167       51.588       24.698        0.229      343.049       18.887      862.131
10/23/2014  12:03:00      -44.544       93.424        2.607       32.877       42.035       33.287     1080.887     1766.914     1108.048        0.734        0.198      103.500       24.779        0.057      343.019       18.836      862.139
10/23/2014  12:04:00      -71.965       58.466       -6.930       45.494       35.642       27.744     2069.716     1270.322      769.720        0.638        0.205       92.721       20.625        0.049      343.155       19.068      862.141
10/23/2014  12:05:00      -62.790       81.269       -9.260       33.757       54.456       27.444     1139.558     2965.416      753.167        0.774        0.243      102.700       18.291        0.032      343.059       18.903      862.111
10/23/2014  12:06:00     -235.493     -115.152      -16.995       68.671       60.319       39.829     4715.765     3638.402     1586.351        3.947        0.497      262.139       24.995        0.009      342.738       18.352      862.099
10/23/2014  12:07:00     -151.649      -64.759       -4.863       66.037       39.299       23.626     4360.941     1544.395      558.205        1.684        0.323      164.897       27.112        0.027      342.711       18.311      862.085
10/23/2014  12:08:00      -94.600      -84.961       -0.598       47.501       29.297       23.575     2256.311      858.317      555.788        0.992        0.184      127.152       24.372        0.037      342.744       18.367      862.080
10/23/2014  12:09:00      -57.830      -43.712       -4.416       30.130       26.650       18.252      907.820      710.239      333.138        0.361        0.098       72.492       17.258        0.057      342.800       18.463      862.070
10/23/2014  12:10:00      -73.009       -8.329       -3.900       42.823       23.957       17.775     1833.802      573.961      315.964        0.407        0.136       73.483       22.582        0.094      342.993       18.794      862.072
10/23/2014  12:11:00      -29.557      -43.311        9.472       34.510       22.236       16.211     1190.916      494.446      262.788        0.239        0.097       52.435       13.180        0.063      343.095       18.966      862.059
10/23/2014  12:12:00      -50.840      -92.690       -4.494       40.894       56.790       23.821     1672.353     3225.128      567.419        0.833        0.273      105.718       23.708        0.050      342.807       18.476      862.030
10/23/2014  12:13:00      -63.262      -89.167      -12.070       20.200       34.064       19.024      408.035     1160.370      361.910        0.701        0.097      109.329       15.978        0.021      342.701       18.294      862.024
10/23/2014  12:14:00      -20.678      -26.754      -15.715       41.047       27.741       22.104     1684.842      769.572      488.608        0.217        0.147       33.814       22.366        0.438      342.997       18.799      862.001
10/23/2014  12:15:00       -9.230        2.684       19.326       16.381       13.545       13.522      268.334      183.479      182.843        0.055        0.032        9.612       11.605        1.458      343.434       19.542      861.952
10/23/2014  12:16:00      -86.512      -15.123       -0.770       31.789       28.630       17.533     1010.571      819.669      307.396        0.493        0.107       87.824       21.322        0.059      342.960       18.736      861.938
10/23/2014  12:17:00      -95.391      -35.045      -10.215       33.435       19.792       18.836     1117.912      391.726      354.796        0.615        0.093      101.625       20.484        0.041      343.046       18.884      861.924
10/23/2014  12:18:00      -66.803      -43.956        1.333       43.492       22.022       18.910     1891.553      484.978      357.589        0.456        0.137       79.968       14.141        0.031      342.995       18.795      861.907
10/23/2014  12:19:00      -44.573      -12.984        8.023       37.704       49.009       18.636     1421.571     2401.914      347.284        0.319        0.209       46.426       12.517        0.073      343.063       18.910      861.902
10/23/2014  12:20:00       -5.910      -47.046        1.824       12.140       21.239       17.594      147.387      451.081      309.553        0.158        0.045       47.416        8.205        0.030      342.934       18.690      861.863
10/23/2014  12:21:00       21.076      -25.369       13.419       31.656       20.496       23.204     1002.133      420.068      538.448        0.161        0.098       32.982       12.392        0.141      342.646       18.201      861.831
10/23/2014  12:22:00       39.670       -0.791       17.099       22.517       16.104       21.493      507.022      259.333      461.968        0.155        0.061       39.678       10.567        0.071      342.424       17.824      861.833
10/23/2014  12:23:00       54.998      -15.836       25.078       37.756       23.573       23.157     1425.496      555.685      536.226        0.321        0.126       57.232       14.870        0.068      342.428       17.830      861.836
10/23/2014  12:24:00       22.848      -19.304       22.286       25.030       42.842       30.383      626.523     1835.403      923.129        0.239        0.169       29.911       27.549        0.848      342.638       18.187      861.843
10/23/2014  12:25:00        9.286       -5.936       20.937       32.017       26.723       26.234     1025.072      714.098      688.237        0.149        0.121       11.021       25.884        5.516      342.855       18.557      861.845
10/23/2014  12:26:00       38.932       21.112       34.027       37.541       30.351       29.062     1409.349      921.156      844.620        0.315        0.159       44.288       17.059        0.148      342.498       17.949      861.822
10/23/2014  12:27:00       41.009       50.495       14.654       50.212       47.423       28.768     2521.253     2248.953      827.583        0.502        0.280       65.050       34.977        0.289      343.152       19.061      861.785
10/23/2014  12:28:00       24.367      -27.417       11.850       33.984       33.198       27.679     1154.939     1102.092      766.119        0.225        0.151       36.680       20.628        0.316      342.948       18.716      861.770
10/23/2014  12:29:00       24.511      -10.548       23.435       48.248       30.213       29.927     2327.832      912.809      895.651        0.270        0.207       26.684       22.743        0.726      342.904       18.641      861.754
10/23/2014  12:30:00       -5.531      -52.182       -3.853       25.455       24.422       18.269      647.939      596.445      333.742        0.217        0.079       52.475       10.266        0.038      342.692       18.278      861.730
10/23/2014  12:31:00       -6.660      -19.660       -1.983       34.848       18.885       15.086     1214.356      356.634      227.594        0.112        0.090       20.757       10.691        0.265      342.840       18.533      861.719
10/23/2014  12:32:00       38.851        0.997       19.100       29.100       24.900       27.339      846.801      619.993      747.422        0.204        0.111       38.864       11.848        0.093      342.601       18.125      861.714
10/23/2014  12:33:00      -18.127       -5.383       15.532       26.521       27.132       19.110      703.387      736.123      365.183        0.120        0.090       18.909       21.052        1.240      343.190       19.127      861.686
10/23/2014  12:34:00      -35.879      -11.380        7.676       44.195       29.180       19.465     1953.214      851.444      378.883        0.233        0.159       37.640       25.400        0.455      343.383       19.456      861.657
10/23/2014  12:35:00      -81.452      -27.894        2.376       42.694       31.782       20.017     1822.778     1010.089      400.690        0.533        0.162       86.096       18.373        0.046      343.224       19.185      861.641
10/23/2014  12:36:00      -56.088       -8.574        8.864       39.928       22.212       15.366     1594.270      493.363      236.109        0.281        0.116       56.740       15.191        0.072      343.258       19.243      861.659
10/23/2014  12:37:00      -45.627      -36.727        2.761       28.305       21.586       14.351      801.145      465.936      205.961        0.246        0.074       58.572       18.012        0.095      343.230       19.196      861.687
10/23/2014  12:38:00      -40.833      -24.912       -7.815       21.914       15.506        8.741      480.228      240.431       76.399        0.157        0.040       47.832       10.758        0.051      343.095       18.964      861.696
10/23/2014  12:39:00      -45.418      -28.966        0.988       22.966       25.662       18.539      527.453      658.514      343.706        0.222        0.076       53.868       16.959        0.099      343.259       19.244      861.695
10/23/2014  12:40:00      -69.743      -60.692        7.302       57.013       43.577       26.345     3250.509     1898.976      694.077        0.722        0.292       92.453       29.717        0.103      343.224       19.185      861.695
10/23/2014  12:41:00      -90.176     -115.087      -14.562       38.051       30.036       21.553     1447.905      902.164      464.537        1.220        0.141      146.207       16.659        0.013      343.072       18.924      861.707
10/23/2014  12:42:00      -87.036      -47.018        0.146       36.061       25.892       21.596     1300.388      670.401      466.377        0.611        0.122       98.924       17.439        0.031      343.168       19.089      861.704
10/23/2014  12:43:00      -46.057      -94.666        6.430       33.668       33.178       17.008     1133.516     1100.764      289.258        0.682        0.126      105.275       14.734        0.020      343.132       19.029      861.681
10/23/2014  12:44:00      -51.784     -101.601        1.017       15.486       35.396       14.651      239.830     1252.894      214.638        0.736        0.085      114.037       12.990        0.013      343.129       19.022      861.633
10/23/2014  12:45:00     -100.782      -49.759       -5.232       29.274       44.020       19.846      856.939     1937.720      393.849        0.792        0.159      112.397       14.397        0.016      343.147       19.053      861.605
10/23/2014  12:46:00      -55.943        0.150       -3.351       35.996       21.240       15.271     1295.735      451.137      233.190        0.256        0.099       55.943       17.157        0.094      343.231       19.198      861.588
10/23/2014  12:47:00        8.442      -22.347        6.821       32.076       25.145       16.304     1028.877      632.295      265.805        0.127        0.096       23.889       14.780        0.383      343.416       19.513      861.585
10/23/2014  12:48:00      -54.597      -12.350      -10.448       33.398       16.023       14.825     1115.399      256.724      219.777        0.242        0.080       55.976       16.978        0.092      343.233       19.200      861.590
10/23/2014  12:49:00      -45.370       -4.579        3.513       56.908       31.619       28.968     3238.520      999.758      839.150        0.358        0.254       45.601       32.097        0.495      343.299       19.312      861.567
10/23/2014  12:50:00     -121.564      -52.781       -6.996       55.158       26.474       20.200     3042.363      700.871      408.054        1.088        0.208      132.528       24.939        0.035      343.201       19.144      861.538
10/23/2014  12:51:00      -46.044      -25.681        3.312       41.302       42.157       21.070     1705.824     1777.249      443.965        0.336        0.196       52.721       25.646        0.237      343.333       19.371      861.493
10/23/2014  12:52:00      -39.990       -0.436        0.561       45.954       28.071       20.405     2111.764      787.980      416.359        0.246        0.166       39.993       19.335        0.234      343.505       19.665      861.441
10/23/2014  12:53:00     -118.273      -53.212       -7.908       36.358       42.740       20.773     1321.907     1826.723      431.530        1.023        0.179      129.692       18.595        0.021      343.403       19.489      861.444
10/23/2014  12:54:00      -77.949      -64.657       -0.098       56.900       47.399       23.712     3237.641     2246.631      562.255        0.815        0.302      101.275       25.983        0.066      343.337       19.378      861.457
10/23/2014  12:55:00      -63.905      -27.244        0.765       22.282       36.415       11.862      496.470     1326.039      140.706        0.339        0.098       69.470        7.810        0.013      343.411       19.504      861.475
10/23/2014  12:56:00       12.621      -88.607       20.875       29.208       41.179       22.208      853.104     1695.722      493.203        0.574        0.152       89.501       14.551        0.026      343.485       19.629      861.496
10/23/2014  12:57:00      -25.096      -79.590        5.938       31.177       48.843       20.716      972.027     2385.678      429.164        0.539        0.189       83.452       16.253        0.038      343.630       19.877      861.504
10/23/2014  12:58:00        1.184      -18.361       17.938       23.729       32.050       21.653      563.078     1027.177      468.851        0.136        0.103       18.399       11.427        0.386      343.404       19.492      861.495
10/23/2014  12:59:00        6.182       12.501       31.457       24.781       23.290       18.925      614.082      542.403      358.172        0.135        0.076       13.946       11.554        0.686      343.196       19.136      861.467
10/23/2014  13:00:00       -2.990       -9.655        5.162       38.923       33.226       24.199     1515.014     1103.964      585.586        0.167        0.160       10.108       22.393        4.908      343.487       19.633      861.452
10/23/2014  13:01:00       10.041      -74.350        5.195       72.045       44.020       34.624     5190.505     1937.774     1198.796        0.699        0.416       75.025       19.645        0.069      343.716       20.021      861.443
10/23/2014  13:02:00      -43.254      -94.029       -8.401       36.240       57.549       17.690     1313.363     3311.865      312.954        0.786        0.247      103.501       10.415        0.010      343.473       19.611      861.437
10/23/2014  13:03:00      -35.114        4.025        2.904       19.152       23.735       16.403      366.800      563.347      269.050        0.123        0.060       35.344       11.251        0.101      343.694       19.985      861.424
10/23/2014  13:04:00      -79.913       -3.569       -8.654       27.968       23.544       16.985      782.224      554.324      288.505        0.405        0.081       79.993       12.737        0.025      343.618       19.857      861.413
10/23/2014  13:05:00      -79.667      -51.369        2.644       48.697       50.218       23.160     2371.429     2521.849      536.390        0.721        0.271       94.792       24.374        0.066      343.763       20.103      861.410
10/23/2014  13:06:00      -70.459      -28.740        4.749       57.080       48.799       30.522     3258.076     2381.324      931.609        0.619        0.329       76.095       38.591        0.257      343.820       20.201      861.399
10/23/2014  13:07:00      -95.175      -81.897      -16.264       40.840       40.563       19.133     1667.930     1645.339      366.086        0.985        0.184      125.560       15.810        0.016      343.621       19.862      861.390
10/23/2014  13:08:00      -63.835      -37.468      -13.212       20.746       38.587       14.649      430.415     1488.921      214.607        0.389        0.107       74.019        8.715        0.014      343.741       20.066      861.385
10/23/2014  13:09:00      -77.442     -140.394      -11.301       56.053       60.333       35.862     3141.949     3640.022     1286.118        1.695        0.403      160.336       37.095        0.054      343.862       20.272      861.381
10/23/2014  13:10:00       -9.652      -93.180      -24.722       75.736       56.694       34.729     5735.966     3214.157     1206.091        0.977        0.508       93.679       37.659        0.162      344.081       20.646      861.342
10/23/2014  13:11:00      -17.671      -40.548        5.219       94.844       41.714       32.853     8995.347     1740.039     1079.349        0.690        0.591       44.231       21.376        0.234      344.338       21.087      861.320
10/23/2014  13:12:00     -203.401     -109.991       -2.514       68.636       49.780       43.132     4710.894     2478.069     1860.408        3.126        0.452      231.236       43.875        0.036      343.820       20.197      861.305
10/23/2014  13:13:00     -177.746      -22.150      -19.655       50.629       30.876       27.229     2563.341      953.297      741.413        1.836        0.213      179.121       24.621        0.019      343.818       20.197      861.301
10/23/2014  13:14:00     -202.669      -49.496      -11.751       70.216       49.390       28.906     4930.247     2439.327      835.536        2.593        0.410      208.626       34.849        0.028      343.953       20.425      861.313
10/23/2014  13:15:00     -117.930      -60.298        3.224       88.780       62.134       35.026     7881.802     3860.582     1226.818        1.526        0.648      132.452       39.752        0.090      344.213       20.872      861.333
10/23/2014  13:16:00      -61.354      -77.575       11.171       73.327       57.104       41.976     5376.834     3260.883     1761.944        1.015        0.520       98.905       42.622        0.186      344.241       20.920      861.333
10/23/2014  13:17:00      -68.189      -71.568      -10.547       34.946       46.207       16.899     1221.199     2135.045      285.564        0.676        0.182       98.852       19.761        0.040      344.021       20.545      861.347
10/23/2014  13:18:00      -37.924      -55.483       -8.611       17.274       20.252       13.868      298.399      410.163      192.324        0.275        0.045       67.205        7.851        0.014      344.027       20.553      861.335
10/23/2014  13:19:00      -26.737      -61.660       -5.005       14.636       14.660       12.634      214.222      214.907      159.627        0.257        0.029       67.207        6.230        0.009      344.037       20.572      861.345
10/23/2014  13:20:00       -7.813      -17.538       -1.698       15.928       21.609       11.549      253.711      466.950      133.372        0.061        0.043       19.200       14.613        0.579      344.217       20.879      861.351
10/23/2014  13:21:00        4.636       15.643       23.103       14.759       13.324        9.789      217.842      177.540       95.831        0.065        0.025       16.316        4.342        0.071      344.728       21.753      861.340
10/23/2014  13:22:00       29.430       41.597       49.483       50.640       31.741       29.780     2564.416     1007.485      886.824        0.475        0.223       50.955       33.780        0.439      344.381       21.159      861.326
10/23/2014  13:23:00       -3.058       36.355       -7.075       28.267       15.140       22.307      799.028      229.223      497.611        0.145        0.076       36.483       18.610        0.260      344.120       20.713      861.309
10/23/2014  13:24:00      -41.333       37.082       11.990       44.018       37.113       24.673     1937.602     1377.392      608.746        0.357        0.196       55.529       19.871        0.128      344.353       21.111      861.311
10/23/2014  13:25:00      -67.167       38.891      -11.672       40.878       24.080       20.242     1671.015      579.828      409.744        0.441        0.133       77.614       17.773        0.052      344.363       21.128      861.321
10/23/2014  13:26:00     -102.032       84.057      -25.646       48.700       28.222       23.456     2371.663      796.470      550.183        1.093        0.186      132.198       28.342        0.046      344.197       20.845      861.324
10/23/2014  13:27:00       21.960       34.798        7.200       28.055       23.552       22.577      787.099      554.717      509.704        0.180        0.093       41.147       11.183        0.074      344.378       21.155      861.288
10/23/2014  13:28:00      129.241       68.629        4.575       60.086       36.410       31.306     3610.287     1325.703      980.092        1.367        0.296      146.333       11.913        0.007      344.186       20.825      861.241
10/23/2014  13:29:00       61.974       64.469       40.495       66.202       45.823       61.685     4382.650     2099.767     3805.093        0.996        0.514       89.426       57.508        0.414      344.364       21.130      861.194
10/23/2014  13:30:00       57.132       53.368       48.540       52.943       35.093       46.670     2802.965     1231.487     2178.135        0.734        0.311       78.180       21.750        0.077      344.336       21.083      861.197
10/23/2014  13:31:00      -11.810      -22.409       -0.575       50.909       44.542       23.185     2591.711     1983.973      537.556        0.288        0.256       25.331       22.085        0.760      344.217       20.880      861.197
10/23/2014  13:32:00     -110.410        2.547      -11.706       64.188       53.992       29.127     4120.117     2915.115      848.395        1.011        0.394      110.439       21.934        0.039      344.348       21.101      861.184
10/23/2014  13:33:00     -126.307       22.852      -15.618       43.413       54.469       24.933     1884.714     2966.835      621.651        1.110        0.274      128.357       19.093        0.022      344.315       21.047      861.174
10/23/2014  13:34:00     -114.192      -76.206       -9.027       82.802       50.222       31.463     6856.199     2522.259      989.918        1.465        0.518      137.285       32.157        0.055      344.285       20.995      861.163
10/23/2014  13:35:00      -82.623      -93.752      -11.736       41.802       41.746       29.446     1747.377     1742.769      867.065        1.005        0.218      124.964       27.038        0.047      344.223       20.889      861.158
10/23/2014  13:36:00        4.714        5.102       -0.857       36.386       23.930       15.156     1323.966      572.639      229.697        0.109        0.106        6.946       18.634        7.197      344.264       20.962      861.145
10/23/2014  13:37:00       21.027      -78.548       -3.094       67.412       76.652       25.781     4544.334     5875.478      664.647        0.885        0.554       81.313       25.200        0.096      344.287       21.000      861.104
10/23/2014  13:38:00       35.748      -46.628       57.193       93.520      111.923       68.060     8746.023    12526.850     4632.186        1.631        1.295       58.754       84.063        2.047      344.287       20.998      861.065
10/23/2014  13:39:00      -31.914       19.002       40.046       72.805       49.734       48.293     5300.572     2473.428     2332.180        0.654        0.505       37.143       52.723        2.015      344.426       21.237      860.964
10/23/2014  13:40:00      -73.065      -22.649       -3.312       62.528       68.642       36.425     3909.786     4711.760     1326.780        0.790        0.497       76.495       33.315        0.190      344.378       21.154      860.953
10/23/2014  13:41:00     -158.062     -229.713      -16.500      168.773      143.629       72.136    28484.458    20629.164     5203.593        6.616        2.716      278.840       79.028        0.080      344.442       21.260      860.941
10/23/2014  13:42:00     -347.468     -173.767      -15.021      175.735      133.595       74.071    30882.957    17847.679     5486.534       10.268        2.711      388.496       87.106        0.050      344.513       21.381      860.943
10/23/2014  13:43:00     -460.920     -148.027      -40.469      187.330      182.436       78.529    35092.547    33283.039     6166.857       15.526        3.727      484.106       69.346        0.021      344.339       21.084      860.939
10/23/2014  13:44:00     -407.445       19.141      -12.506      225.335      155.223       85.136    50775.822    24094.146     7248.070       12.431        4.106      407.894       97.894        0.058      344.493       21.347      860.771
10/23/2014  13:45:00     -390.776     -219.855       -8.215      202.538      153.835       91.019    41021.481    23665.335     8284.526       13.703        3.649      448.377       91.544        0.042      344.504       21.368      860.768
10/23/2014  13:46:00     -285.847     -208.924        7.132      184.267      174.751       87.962    33954.410    30537.910     7737.336        9.881        3.611      354.059       91.598        0.067      344.508       21.372      860.750
10/23/2014  13:47:00     -349.170     -197.906       -6.208      203.433      126.831       74.403    41385.052    16086.032     5535.751       11.206        3.150      401.356       73.029        0.033      344.488       21.339      860.774
10/23/2014  13:48:00     -352.834     -160.702        9.651      267.873      174.744      105.479    71756.069    30535.347    11125.761       13.189        5.671      387.707      126.175        0.106      344.507       21.371      860.774
10/23/2014  13:49:00     -385.656      -41.067      -23.647      159.872      140.921       68.905    25559.210    19858.702     4747.909       10.056        2.508      387.837       66.535        0.029      344.540       21.428      860.799
10/23/2014  13:50:00     -293.563     -177.878       -6.820      155.245       92.153       66.991    24101.083     8492.111     4487.742        7.747        1.854      343.250       74.543        0.047      344.537       21.423      860.811
10/23/2014  13:51:00     -326.160     -245.166      -23.294      151.564      114.427       57.466    22971.792    13093.462     3302.386       10.319        1.968      408.028       57.845        0.020      344.584       21.502      860.828
10/23/2014  13:52:00     -128.554     -140.398        1.069      248.688      133.259       75.684    61845.710    17758.061     5728.127        6.077        4.267      190.362       76.028        0.160      344.558       21.460      860.824
10/23/2014  13:53:00      -20.813     -158.179       -8.818      123.278       82.104       61.370    15197.568     6741.025     3766.338        2.561        1.285      159.542       61.371        0.148      344.564       21.472      860.896
10/23/2014  13:54:00      -56.710     -174.363        6.460       57.030       74.012       57.701     3252.369     5477.783     3329.350        2.286        0.603      183.353       25.285        0.019      344.532       21.414      860.941
10/23/2014  13:55:00       54.557     -213.440        8.850      120.544      163.956       77.047    14530.792    26881.487     5936.269        4.797        2.367      220.302       75.563        0.118      344.490       21.342      860.922
10/23/2014  13:56:00      -23.051      -13.959       66.338      113.454      122.509      103.240    12871.894    15008.466    10658.495        2.183        1.927       26.948       92.800       11.859      344.625       21.573      860.841
10/23/2014  13:57:00     -263.943     -214.344       -3.238      273.768      155.884       68.257    74949.113    24299.780     4658.955       10.975        5.195      340.014       83.418        0.060      344.459       21.288      860.974
10/23/2014  13:58:00     -568.705      -78.602      -30.186      243.438      182.232      107.359    59261.894    33208.520    11525.971       21.724        5.200      574.111      131.896        0.053      344.314       21.042      860.835
10/23/2014  13:59:00     -292.433      -77.097       -2.025      185.219      117.682       72.274    34306.121    13848.942     5223.494        7.241        2.669      302.425       88.363        0.085      344.455       21.283      860.889
10/23/2014  14:00:00     -361.708     -185.407      -25.393      226.839      167.633       89.074    51455.875    28100.817     7934.107       12.666        4.375      406.459       99.318        0.060      344.432       21.243      860.883
10/23/2014  14:01:00     -411.458     -172.062       -5.022      224.917      202.974      106.097    50587.494    41198.362    11256.594       15.097        5.152      445.986      110.251        0.061      344.304       21.025      860.813
10/23/2014  14:02:00     -229.276      -79.512       22.887      239.122      178.385       92.685    57179.567    31821.356     8590.467        7.849        4.880      242.672       93.902        0.150      344.378       21.152      860.813
10/23/2014  14:03:00     -297.913     -237.827        8.516      214.742      177.667      102.854    46114.281    31565.589    10578.926       11.681        4.413      381.201      118.984        0.097      344.353       21.108      860.822
10/23/2014  14:04:00     -351.205     -156.120        1.338      215.637      128.043       86.795    46499.252    16395.095     7533.398       10.906        3.521      384.341      104.315        0.074      344.397       21.183      860.784
10/23/2014  14:05:00     -458.507     -177.729       -6.696      305.484      163.023       89.621    93320.369    26576.473     8031.946       18.487        6.396      491.748      119.153        0.059      344.370       21.137      860.737
10/23/2014  14:06:00     -220.872     -114.857       -4.884      158.717      126.587       66.925    25191.230    16024.394     4479.013        5.384        2.285      248.951       71.505        0.082      344.462       21.295      860.734
10/23/2014  14:07:00     -293.141       17.021       -8.641      179.335      134.284       59.156    32161.046    18032.153     3499.436        6.999        2.685      293.634       62.465        0.045      344.521       21.396      860.683
10/23/2014  14:08:00     -367.639     -235.310      -10.801      230.515      223.176      113.309    53137.016    49807.640    12838.846       15.320        5.789      436.496      125.399        0.083      344.513       21.381      860.616
10/23/2014  14:09:00     -470.366     -298.483      -11.761      236.713      227.606       96.088    56033.172    51804.652     9232.927       21.375        5.854      557.078      111.528        0.040      344.455       21.282      860.619
10/23/2014  14:10:00     -538.812     -176.361      -26.198      270.415      221.643       98.722    73124.209    49125.648     9745.939       22.703        6.600      566.941      114.861        0.041      344.424       21.229      860.648
10/23/2014  14:11:00     -316.593      -60.842        5.968      249.398      179.189      109.746    62199.299    32108.645    12044.161       10.514        5.318      322.386      135.815        0.177      344.468       21.304      860.649
10/23/2014  14:12:00     -262.174     -140.196        6.047      276.069      180.392       91.565    76213.945    32541.100     8384.065       10.276        5.857      297.304      112.745        0.144      344.438       21.254      860.641
10/23/2014  14:13:00     -417.801     -315.613      -20.586      220.669      194.605      105.493    48694.869    37871.089    11128.834       18.613        4.885      523.612      117.512        0.050      344.247       20.928      860.622
10/23/2014  14:14:00     -344.770     -205.881      -15.494      187.629      155.042       84.871    35204.513    24037.958     7203.084       11.396        3.322      401.564      101.538        0.064      344.356       21.114      860.620
10/23/2014  14:15:00     -576.150     -169.396      -22.523      238.932      190.481      106.705    57088.677    36282.987    11386.011       23.294        5.238      600.536      115.060        0.037      344.301       21.020      860.601
10/23/2014  14:16:00     -421.495     -122.332      -19.944      185.711      177.542       91.862    34488.463    31521.245     8438.641       13.372        3.722      438.889       93.077        0.045      344.312       21.037      860.595
10/23/2014  14:17:00     -529.874     -116.328      -28.957      238.907      188.161       99.608    57076.367    35404.432     9921.793       19.875        5.120      542.493      115.272        0.045      344.334       21.076      860.617
10/23/2014  14:18:00     -312.024     -146.016        8.158      193.844      160.831       87.244    37575.346    25866.636     7611.539        9.489        3.553      344.499       98.831        0.082      344.447       21.270      860.666
10/23/2014  14:19:00     -238.694     -157.163       29.052      176.789      146.942       89.666    31254.285    21592.040     8039.972        7.169        3.044      285.788      100.252        0.123      344.349       21.102      860.682
10/23/2014  14:20:00     -382.253      -58.164       -9.871      185.157      165.237       90.606    34283.053    27303.132     8209.489       10.969        3.490      386.653      104.209        0.073      344.352       21.107      860.648
10/23/2014  14:21:00     -434.655     -162.168      -10.612      254.362      203.347      102.389    64700.122    41349.809    10483.513       16.592        5.827      463.922      135.478        0.085      344.354       21.110      860.656
10/23/2014  14:22:00     -382.246     -120.907       -1.849      230.368      162.011       94.908    53069.567    26247.635     9007.554       12.451        4.416      400.912      109.969        0.075      344.294       21.008      860.651
10/23/2014  14:23:00     -313.027      -45.267      -16.702      190.407      142.833       80.843    36254.984    20401.303     6535.598        8.174        3.160      316.283       95.857        0.092      344.341       21.088      860.648
10/23/2014  14:24:00     -415.038     -227.698      -22.202      213.634      212.166      105.253    45639.384    45014.521    11078.157       16.315        5.087      473.395      116.056        0.060      344.285       20.992      860.652
10/23/2014  14:25:00     -400.496     -322.887       -3.260      198.018      165.387       94.848    39210.949    27352.930     8996.107       17.010        3.778      514.445      104.462        0.041      344.209       20.861      860.632
10/23/2014  14:26:00     -381.073     -174.760      -15.218      194.850      191.477       83.092    37966.600    36663.465     6904.225       12.875        4.077      419.235       75.194        0.032      344.141       20.746      860.649
10/23/2014  14:27:00     -396.547     -291.946        4.015      249.705      198.311      113.586    62352.744    39327.310    12901.834       17.852        5.729      492.425      134.718        0.075      344.209       20.861      860.607
10/23/2014  14:28:00     -501.753     -268.323       -6.556      345.831      195.293      110.108   119598.814    38139.352    12123.770       24.680        8.493      568.993      111.796        0.039      344.178       20.811      860.609
10/23/2014  14:29:00     -512.845     -206.974      -37.376      281.167      196.973       93.203    79054.711    38798.459     8686.729       21.687        6.327      553.035      125.068        0.051      344.134       20.735      860.637
10/23/2014  14:30:00     -350.412     -198.363       -5.724      199.692      184.939       87.179    39876.891    34202.484     7600.092       12.191        4.084      402.661      100.510        0.062      344.233       20.903      860.660
10/23/2014  14:31:00     -194.097      -54.207       19.809      189.882      137.791       98.733    36055.014    18986.309     9748.229        5.289        3.239      201.525       92.253        0.210      344.429       21.239      860.615
10/23/2014  14:32:00     -236.698     -213.560      -10.549      216.823      179.222      121.822    47012.089    32120.458    14840.491        9.784        4.699      318.800      127.026        0.159      344.306       21.028      860.618
10/23/2014  14:33:00     -422.574     -359.678       -4.288      294.940      217.193      125.938    86989.630    47172.638    15860.467       22.896        7.501      554.921      156.052        0.079      344.085       20.651      860.586
10/23/2014  14:34:00     -511.813     -155.797      -40.065      264.939      182.729       99.510    70192.425    33389.745     9902.193       20.064        5.674      535.000      112.293        0.044      344.103       20.682      860.576
10/23/2014  14:35:00     -358.776     -176.867       -9.215      263.061      158.071       98.207    69201.159    24986.540     9644.621       13.194        5.192      400.003      118.432        0.088      344.158       20.775      860.561
10/23/2014  14:36:00     -351.981     -209.377       -7.294      213.154      148.747      112.067    45434.665    22125.800    12558.975       12.394        4.006      409.548      121.945        0.089      344.203       20.853      860.574
10/23/2014  14:37:00     -506.867     -244.932      -22.373      239.194      176.350      101.805    57213.918    31099.261    10364.335       20.803        4.934      562.944      120.943        0.046      344.127       20.722      860.557
10/23/2014  14:38:00     -409.670     -112.703      -12.727      204.660      153.564       91.539    41885.600    23581.811     8379.340       12.726        3.692      424.890       83.724        0.039      344.142       20.748      860.544
10/23/2014  14:39:00     -381.159     -201.063      -15.176      227.833      116.416       86.353    51908.033    13552.656     7456.832       12.942        3.646      430.939       98.152        0.052      344.100       20.677      860.524
10/23/2014  14:40:00     -393.228     -235.925      -19.298      204.574      160.425       88.672    41850.427    25736.325     7862.749       14.304        3.772      458.573       76.434        0.028      344.127       20.722      860.496
10/23/2014  14:41:00     -415.839     -187.844      -14.066      212.111      181.054      106.939    44991.058    32780.602    11435.978       14.879        4.460      456.297      115.803        0.064      344.050       20.591      860.495
10/23/2014  14:42:00     -497.709      -53.549      -18.859      169.105      162.795       84.573    28596.431    26502.101     7152.677       15.658        3.113      500.581       89.947        0.032      344.098       20.674      860.509
10/23/2014  14:43:00     -341.879       15.396      -16.935      146.148      113.451       76.610    21359.267    12871.055     5869.094        7.875        2.005      342.225       79.517        0.054      344.135       20.735      860.524
10/23/2014  14:44:00     -145.535      -70.301      -10.890      100.754      109.922       65.910    10151.390    12082.908     4344.118        2.641        1.329      161.625       63.159        0.153      344.223       20.888      860.507
10/23/2014  14:45:00     -467.293     -182.386       -8.822      144.539      105.952       68.846    20891.544    11225.752     4739.704       14.428        1.843      501.625       73.853        0.022      344.233       20.902      860.518
10/23/2014  14:46:00     -165.139      -80.097       23.710      161.364      111.913       70.048    26038.381    12524.549     4906.749        3.885        2.173      183.539       75.747        0.170      344.379       21.154      860.540
10/23/2014  14:47:00     -347.915     -181.737      -12.335      213.233      196.584       93.440    45468.287    38645.407     8730.997       12.352        4.642      392.522      117.092        0.089      344.244       20.923      860.530
10/23/2014  14:48:00     -273.109     -169.265       -0.845      185.304      151.843       87.265    34337.632    23056.152     7615.225        8.411        3.250      321.308       99.756        0.096      344.182       20.817      860.492
10/23/2014  14:49:00     -330.466     -222.803      -10.636      224.476      188.322       93.727    50389.466    35465.236     8784.703       12.678        4.732      398.558      121.612        0.093      344.200       20.848      860.482
10/23/2014  14:50:00     -258.290     -118.622       12.021      174.586      168.674       83.172    30480.395    28450.992     6917.521        7.338        3.292      284.227       85.137        0.090      344.173       20.801      860.486
10/23/2014  14:51:00     -387.363     -232.006       -1.714      207.306      146.012       94.018    42975.673    21319.543     8839.323       13.849        3.657      451.527      110.312        0.060      344.071       20.626      860.490
10/23/2014  14:52:00     -239.991      -91.219      -23.807      244.386      109.092       86.646    59724.723    11901.029     7507.523        7.280        3.957      256.742      106.587        0.172      344.150       20.763      860.492
10/23/2014  14:53:00     -451.818      -83.382      -16.173      211.990      184.551       88.352    44939.954    34059.124     7806.024       14.906        4.340      459.447       97.256        0.045      344.188       20.828      860.478
10/23/2014  14:54:00     -503.951     -124.540      -21.064      226.052      184.760       94.345    51099.656    34136.173     8901.044       18.201        4.707      519.111      104.381        0.040      344.152       20.764      860.482
10/23/2014  14:55:00     -339.156     -122.963       11.924      292.163      188.556       95.738    85359.312    35553.391     9165.734       13.016        6.504      360.759      121.492        0.113      344.043       20.579      860.502
10/23/2014  14:56:00     -331.676     -134.149       -7.657      218.537      168.879       91.600    47758.537    28520.208     8390.634       10.635        4.233      357.778      108.517        0.092      344.095       20.669      860.540
10/23/2014  14:57:00     -479.693      -80.487        2.219      277.611      161.991       97.435    77067.699    26241.223     9493.583       17.468        5.640      486.399      118.502        0.059      344.016       20.532      860.555
10/23/2014  14:58:00     -303.375     -107.511        9.599      217.193      151.958       70.415    47172.696    23091.153     4958.304        8.944        3.761      321.861       83.101        0.067      344.094       20.666      860.593
10/23/2014  14:59:00     -384.718     -112.617      -17.025      153.082      117.916       81.030    23434.249    13904.202     6565.878       10.243        2.195      400.862       81.379        0.041      343.986       20.481      860.605
10/23/2014  15:00:00     -307.226     -154.271        9.353      170.355      122.829       71.029    29020.675    15086.991     5045.101        8.371        2.458      343.784       74.924        0.047      344.003       20.509      860.615
10/23/2014  15:01:00     -198.009     -131.598        9.000      205.671      126.974       79.080    42300.480    16122.330     6253.630        6.063        3.234      237.752       93.690        0.155      343.995       20.496      860.622
10/23/2014  15:02:00     -195.975      -77.594        6.944      173.764       92.793       67.647    30193.876     8610.558     4576.070        4.392        2.169      210.777       83.073        0.155      344.074       20.633      860.639
10/23/2014  15:03:00     -329.040     -202.433      -18.241      175.893      160.208       85.431    30938.203    25666.631     7298.537       10.673        3.195      386.325      102.045        0.070      344.035       20.566      860.638
10/23/2014  15:04:00     -299.527     -131.542      -19.332      202.490      149.990       77.056    41002.191    22497.002     5937.689        8.840        3.472      327.138       83.438        0.065      344.040       20.574      860.618
10/23/2014  15:05:00     -469.451      -97.195       -5.879      188.792      162.105       80.342    35642.456    26277.909     6454.794       14.911        3.419      479.407       89.065        0.035      344.005       20.515      860.603
10/23/2014  15:06:00     -449.019     -143.135      -28.639      167.851      148.823       84.412    28174.059    22148.204     7125.398       14.018        2.872      471.281       82.981        0.031      344.021       20.540      860.601
10/23/2014  15:07:00     -493.025     -132.703      -20.922      226.594      162.196       92.648    51345.009    26307.398     8583.575       17.366        4.312      510.572      118.900        0.054      343.924       20.377      860.596
10/23/2014  15:08:00     -381.244      -82.071      -26.069      150.499      153.434       73.901    22649.931    23541.979     5461.336       10.220        2.583      389.978       73.271        0.035      343.921       20.370      860.606
10/23/2014  15:09:00     -362.859     -243.838       -1.002      188.787      142.418       95.380    35640.363    20282.919     9097.258       12.806        3.251      437.177      100.850        0.053      343.918       20.365      860.598
10/23/2014  15:10:00     -278.776     -225.492        0.141      207.484      150.829       94.027    43049.496    22749.408     8841.070       10.159        3.732      358.556      101.558        0.080      343.974       20.462      860.571
10/23/2014  15:11:00     -432.214     -116.527      -17.740      303.450      186.495       94.009    92081.653    34780.269     8837.646       16.818        6.785      447.647      131.299        0.086      343.979       20.469      860.610
10/23/2014  15:12:00     -210.343     -111.891        3.263      113.121      114.356       68.186    12796.250    13077.254     4649.354        4.364        1.526      238.251       69.115        0.084      343.974       20.460      860.637
10/23/2014  15:13:00     -456.574      -79.732      -27.486      197.790      138.972       72.339    39120.701    19313.134     5232.928       13.961        3.183      463.483       82.627        0.032      343.954       20.427      860.683
10/23/2014  15:14:00     -309.442      -38.363      -19.339      184.444      132.484       79.732    34019.417    17552.126     6357.230        7.775        2.896      311.811       97.127        0.097      343.956       20.430      860.717
10/23/2014  15:15:00     -425.481     -115.617      -20.523      219.497      183.873       90.126    48179.028    33809.450     8122.641       14.245        4.506      440.910       94.192        0.046      343.911       20.353      860.708
10/23/2014  15:16:00     -301.408      -46.479      -13.631      155.971      155.348       73.950    24327.029    24133.025     5468.557        7.355        2.696      304.970       69.169        0.051      343.895       20.326      860.727
10/23/2014  15:17:00     -221.739       -0.995      -10.229      147.071      131.097       71.240    21629.882    17186.311     5075.177        4.658        2.195      221.741       59.844        0.073      343.964       20.443      860.748
10/23/2014  15:18:00     -298.038      -41.854       -6.004      146.856      114.419       72.096    21566.695    13091.815     5197.813        6.523        1.993      300.962       74.806        0.062      343.887       20.314      860.738
10/23/2014  15:19:00     -299.591      -54.243       -8.025      128.195      132.459       59.545    16434.080    17545.311     3545.659        6.514        1.876      304.462       51.146        0.028      343.881       20.302      860.696
10/23/2014  15:20:00     -388.108      -96.508       -5.330      175.987      111.856       73.748    30971.489    12511.818     5438.816       10.444        2.446      399.927       82.221        0.042      343.888       20.315      860.669
10/23/2014  15:21:00     -474.548     -111.628      -25.689      200.600      167.823       96.913    40240.543    28164.453     9392.220       15.804        3.890      487.501      110.661        0.052      343.804       20.172      860.679
10/23/2014  15:22:00     -401.816     -134.316      -21.442      151.675      148.566       82.624    23005.327    22071.742     6826.757       11.592        2.595      423.671       87.652        0.043      343.817       20.193      860.723
10/23/2014  15:23:00     -350.270     -217.609      -21.987      189.227      140.374       78.968    35806.882    19704.882     6235.989       11.613        3.087      412.363       74.662        0.033      343.770       20.113      860.740
10/23/2014  15:24:00     -210.676      -69.733       -5.339      167.100      106.431       83.473    27922.342    11327.643     6967.789        4.774        2.311      221.917       89.987        0.164      343.865       20.274      860.754
10/23/2014  15:25:00     -199.773     -111.210        1.235      224.773      170.601       85.614    50522.788    29104.630     7329.831        6.960        4.348      228.641      111.414        0.237      343.868       20.282      860.761
10/23/2014  15:26:00     -448.937     -111.350      -21.225      212.431      156.982       95.404    45127.057    24643.218     9101.863       14.662        3.944      462.541      104.623        0.051      343.814       20.187      860.761
10/23/2014  15:27:00     -373.998      -65.150       -4.683      229.706      164.027       87.956    52764.676    26904.970     7736.200       11.576        4.370      379.630       82.699        0.047      343.829       20.213      860.781
10/23/2014  15:28:00     -484.232     -132.684      -23.114      194.268      170.759       71.202    37740.016    29158.758     5069.670       16.228        3.598      502.081       63.614        0.016      343.791       20.148      860.786
10/23/2014  15:29:00     -597.691      -77.861      -45.124      215.074      172.402       92.293    46256.957    29722.531     8518.045       22.490        4.225      602.741      110.446        0.034      343.696       19.986      860.797
10/23/2014  15:30:00     -363.296      -44.478      -13.937      229.092      183.252       84.027    52483.227    33581.317     7060.607       11.363        4.656      366.009      102.723        0.079      343.717       20.021      860.799
10/23/2014  15:31:00     -196.716     -114.826        2.534      168.990      130.394       77.390    28557.752    17002.666     5989.282        5.171        2.577      227.777       81.350        0.128      343.757       20.089      860.796
10/23/2014  15:32:00     -431.905     -153.590      -17.994      216.958      139.637       92.885    47070.646    19498.357     8627.631       14.281        3.760      458.401      104.188        0.052      343.690       19.975      860.803
10/23/2014  15:33:00     -377.388     -127.103      -15.155      176.154      107.915       70.677    31030.146    11645.576     4995.213       10.323        2.384      398.217       76.382        0.037      343.685       19.968      860.824
10/23/2014  15:34:00     -194.223     -142.078       -8.330      164.894       92.341       68.242    27190.018     8526.893     4656.975        4.917        2.019      240.643       68.924        0.082      343.740       20.061      860.800
10/23/2014  15:35:00     -446.086     -137.899      -16.988      204.253      155.096       90.032    41719.108    24054.652     8105.698       14.608        3.694      466.914      101.444        0.047      343.644       19.899      860.755
10/23/2014  15:36:00     -395.951       11.870       -8.797      187.916      126.939       82.862    35312.291    16113.631     6866.118       10.763        2.915      396.129       95.850        0.059      343.655       19.917      860.743
10/23/2014  15:37:00     -238.839      -45.584        8.778      201.907      112.109       79.918    40766.546    12568.506     6386.901        5.945        2.986      243.150       97.827        0.162      343.674       19.948      860.720
10/23/2014  15:38:00     -233.723      -69.870       -8.407      151.756      119.372       63.238    23029.944    14249.774     3999.045        5.042        2.064      243.943       37.771        0.024      343.682       19.962      860.715
10/23/2014  15:39:00     -185.651      -72.825       16.672      147.234      127.169       75.266    21677.806    16171.954     5664.945        4.177        2.176      199.424       87.143        0.191      343.674       19.949      860.739
10/23/2014  15:40:00     -202.705     -104.017       -3.728      133.072      120.356       65.128    17708.163    14485.619     4241.612        4.417        1.822      227.835       66.367        0.085      343.685       19.966      860.785
10/23/2014  15:41:00     -475.609      -60.652      -32.870      188.191      127.908       72.803    35415.881    16360.451     5300.331       14.401        2.854      479.461       80.110        0.028      343.621       19.859      860.800
10/23/2014  15:42:00     -378.575     -161.952      -12.731      202.562      167.876      104.322    41031.560    28182.463    10883.009       12.489        4.005      411.761      107.539        0.068      343.574       19.778      860.803
10/23/2014  15:43:00     -418.749     -208.659      -11.283      205.968      163.481      102.120    42422.778    26725.887    10428.526       14.928        3.979      467.856       98.294        0.044      343.518       19.682      860.835
10/23/2014  15:44:00     -304.963     -154.477        1.181      215.938      138.475       83.219    46629.285    19175.360     6925.422        9.479        3.637      341.856       89.348        0.068      343.535       19.712      860.845
10/23/2014  15:45:00     -496.173      -53.682      -22.217      170.996      147.305       77.449    29239.773    21698.790     5998.320       15.324        2.847      499.069       81.322        0.027      343.541       19.721      860.876
10/23/2014  15:46:00     -442.226      -97.013      -24.737      215.005      182.121       98.047    46227.092    33168.225     9613.253       14.728        4.450      452.742      112.254        0.061      343.495       19.643      860.903
10/23/2014  15:47:00     -464.033     -154.275      -13.789      198.237      177.906       90.418    39297.729    31650.691     8175.408       15.921        3.956      489.007      107.042        0.048      343.464       19.593      860.918
10/23/2014  15:48:00     -514.035      -79.553      -18.911      194.457      154.551       75.084    37813.457    23885.891     5637.549       16.912        3.367      520.154       87.879        0.029      343.480       19.619      860.894
10/23/2014  15:49:00     -251.521      -15.998      -21.301      108.941      128.001       63.214    11868.139    16384.260     3995.974        4.811        1.612      252.029       61.398        0.059      343.556       19.747      860.860
10/23/2014  15:50:00     -313.933      -92.836       14.764      208.014      164.548      103.281    43269.646    27076.011    10667.032        9.419        4.051      327.372      104.273        0.101      343.524       19.693      860.822
10/23/2014  15:51:00     -318.708      -50.180        3.677      215.427      126.723       85.216    46408.847    16058.637     7261.690        8.691        3.486      322.634      102.450        0.101      343.501       19.654      860.837
10/23/2014  15:52:00     -335.635     -210.795      -29.842      136.695      140.384       65.939    18685.416    19707.745     4347.940       10.035        2.137      396.340       54.831        0.019      343.475       19.607      860.836
10/23/2014  15:53:00     -357.771      -61.292      -13.278      219.379      164.591       86.129    48126.983    27090.173     7418.140       10.727        4.132      362.983       90.856        0.063      343.506       19.662      860.807
10/23/2014  15:54:00     -477.461      -93.943      -27.765      219.195      155.324       86.997    48046.418    24125.555     7568.523       15.864        3.987      486.615      109.137        0.050      343.462       19.587      860.818
10/23/2014  15:55:00     -382.119     -276.776      -23.522      211.242      176.445      100.847    44623.268    31132.823    10170.156       15.454        4.296      471.826      113.044        0.057      343.443       19.556      860.833
10/23/2014  15:56:00     -301.582     -186.704        8.038      222.233      149.456      112.372    49387.354    22337.023    12627.425       10.510        4.218      354.697      136.874        0.149      343.488       19.631      860.858
10/23/2014  15:57:00     -370.752     -105.637      -15.989      172.212      102.312       79.139    29657.132    10467.847     6263.018        9.762        2.319      385.508       73.477        0.036      343.479       19.616      860.860
10/23/2014  15:58:00     -288.644      -16.728      -14.617      148.386      113.199       64.498    22018.497    12813.975     4160.045        6.139        1.950      289.128       72.323        0.063      343.542       19.724      860.851
10/23/2014  15:59:00     -531.856      -79.049      -36.338      194.053      161.426       87.560    37656.654    26058.385     7666.727       18.090        3.569      537.698       91.068        0.029      343.416       19.510      860.853
10/23/2014  16:00:00     -410.301      -87.362      -15.613      163.337      125.088       72.176    26678.967    15646.894     5209.422       11.187        2.377      419.499       80.619        0.037      343.414       19.506      860.835
10/23/2014  16:01:00     -426.169     -136.609      -18.195      172.472      128.049       74.695    29746.579    16396.673     5579.402       12.616        2.586      447.528       80.769        0.033      343.439       19.549      860.810
10/23/2014  16:02:00     -450.970     -144.432      -30.669      183.309      132.301       77.890    33602.133    17503.443     6066.848       14.116        2.859      473.534       85.831        0.033      343.444       19.556      860.773
10/23/2014  16:03:00     -427.409     -143.138      -30.644      260.221      149.198       80.885    67714.970    22259.908     6542.337       15.030        4.826      450.740       88.560        0.039      343.450       19.567      860.732
10/23/2014  16:04:00     -410.009      -96.751       -4.349      166.081      176.870       85.405    27582.833    31282.902     7293.958       12.181        3.308      421.270       95.298        0.051      343.478       19.615      860.754
10/23/2014  16:05:00     -266.112      -39.908       -6.487      131.187      134.916       63.224    17210.109    18202.452     3997.267        5.592        1.970      269.088       59.312        0.049      343.556       19.748      860.771
10/23/2014  16:06:00     -255.352     -174.999      -14.269      126.842      113.354       65.550    16089.006    12849.075     4296.839        6.463        1.662      309.563       54.029        0.030      343.543       19.726      860.763
10/23/2014  16:07:00     -303.331      -54.862      -21.247      161.576      173.434       80.516    26106.652    30079.515     6482.799        7.906        3.133      308.252       73.932        0.058      343.532       19.707      860.744
10/23/2014  16:08:00     -422.313     -129.678       -7.132      192.452      163.972       81.734    37037.854    26886.735     6680.451       13.290        3.530      441.775       91.952        0.043      343.478       19.614      860.716
10/23/2014  16:09:00     -536.470      -20.160      -28.653      185.400      170.858       95.756    34373.217    29192.419     9169.303       18.087        3.637      536.849      102.686        0.037      343.457       19.579      860.684
10/23/2014  16:10:00     -429.379      -50.254      -12.142      171.050      129.506       79.519    29258.231    16771.898     6323.236       11.969        2.618      432.310       85.656        0.039      343.569       19.771      860.654
10/23/2014  16:11:00     -486.102      -60.882      -25.884      235.823      138.176       91.428    55612.585    19092.480     8359.034       16.185        4.153      489.900      115.105        0.055      343.525       19.694      860.649
10/23/2014  16:12:00     -461.331      -20.574      -28.137      170.971      179.235       87.958    29231.031    32125.306     7736.604       14.156        3.455      461.790       81.081        0.031      343.529       19.701      860.676
10/23/2014  16:13:00     -292.740     -186.571      -21.936      154.584      126.018       71.095    23896.206    15880.484     5054.521        8.290        2.242      347.139       57.697        0.028      343.567       19.765      860.710
10/23/2014  16:14:00     -290.374     -150.667      -10.827      199.139      134.725       83.954    39656.158    18150.895     7048.232        8.598        3.243      327.135      101.033        0.095      343.556       19.747      860.754
10/23/2014  16:15:00     -352.052      -89.681      -14.048      144.415      104.163       64.564    20855.800    10850.014     4168.463        8.402        1.794      363.295       63.246        0.030      343.603       19.826      860.810
10/23/2014  16:16:00     -409.439      -92.571      -35.781      148.249       99.244       69.656    21977.687     9849.451     4851.898       10.708        1.834      419.774       73.563        0.031      343.518       19.682      860.818
10/23/2014  16:17:00     -368.071       37.711      -12.323      130.930      153.485       70.442    17142.563    23557.529     4962.085        9.135        2.283      369.998       63.084        0.029      343.553       19.742      860.804
10/23/2014  16:18:00     -268.098      -85.865       -8.991      169.348      110.709       65.254    28678.829    12256.401     4258.111        6.225        2.260      281.513       76.549        0.074      343.622       19.860      860.794
10/23/2014  16:19:00     -326.284     -108.010       -1.620      240.588      150.616       92.412    57882.427    22685.272     8539.935       10.360        4.455      343.696      109.937        0.102      343.520       19.687      860.795
10/23/2014  16:20:00     -538.836      -78.585      -44.086      272.701      137.564       88.135    74365.588    18923.814     7767.756       19.974        5.053      544.536      124.725        0.052      343.440       19.549      860.809
10/23/2014  16:21:00     -271.310      -66.731       14.235      197.411      145.213       88.992    38970.988    21086.835     7919.639        7.311        3.399      279.396      103.723        0.138      343.543       19.726      860.802
10/23/2014  16:22:00     -311.223     -122.608       -8.418      210.273      168.559       93.916    44214.925    28412.118     8820.123        9.669        4.072      334.503      112.793        0.114      343.541       19.724      860.825
10/23/2014  16:23:00     -213.445      -98.985        7.357      149.842      124.414       75.051    22452.525    15478.792     5632.597        4.948        2.178      235.280       86.213        0.134      343.596       19.816      860.841
10/23/2014  16:24:00     -397.557     -105.995       -7.706      200.941      136.482       78.290    40377.160    18627.226     6129.315       11.723        3.257      411.445       90.857        0.049      343.571       19.773      860.856
10/23/2014  16:25:00     -422.730      -12.436      -15.724      211.575      178.449       90.694    44763.975    31844.211     8225.414       13.195        4.242      422.913      104.763        0.061      343.535       19.712      860.809
10/23/2014  16:26:00     -260.343     -112.581       -1.721      173.179      141.538       73.757    29990.850    20032.904     5440.029        6.795        2.773      283.643       97.515        0.118      343.652       19.912      860.757
10/23/2014  16:27:00     -471.851      -74.047      -30.147      189.551      132.457       69.471    35929.438    17544.865     4826.181       14.366        2.915      477.626       84.753        0.031      343.579       19.785      860.743
10/23/2014  16:28:00     -432.298      -98.210      -14.149      184.748      174.105       86.380    34131.677    30312.536     7461.528       13.430        3.595      443.314       96.225        0.047      343.518       19.683      860.764
10/23/2014  16:29:00     -414.908      -10.766      -35.441      173.892      145.533       84.214    30238.486    21179.845     7091.948       11.601        2.926      415.048       88.069        0.045      343.523       19.692      860.821
10/23/2014  16:30:00     -413.255      -50.520      -32.993      167.762      132.462       80.287    28144.218    17546.059     6445.989       11.327        2.607      416.331       89.953        0.047      343.559       19.753      860.840
10/23/2014  16:31:00     -412.005        2.660      -23.956      241.822      130.245       87.265    58477.918    16963.721     7615.173       12.668        4.153      412.014      103.432        0.063      343.515       19.677      860.862
10/23/2014  16:32:00     -441.285     -117.027      -23.751      167.827      150.186       75.562    28165.780    22555.868     5709.610       13.270        2.822      456.539       78.997        0.030      343.458       19.580      860.821
10/23/2014  16:33:00     -372.314     -115.997      -19.267      142.327      178.671       78.995    20256.839    31923.366     6240.164       10.542        2.921      389.965       66.514        0.029      343.565       19.762      860.756
10/23/2014  16:34:00     -247.825      -86.868       -0.670      186.873       96.418       71.256    34921.436     9296.385     5077.473        5.912        2.465      262.608       78.907        0.090      343.635       19.883      860.731
10/23/2014  16:35:00     -204.980      -48.977       15.546      175.085      147.622       74.386    30654.697    21792.164     5533.312        5.131        2.899      210.750       93.236        0.196      343.700       19.993      860.726
10/23/2014  16:36:00     -199.934      -70.786       -1.052      137.310      117.985       68.979    18854.093    13920.483     4758.035        4.125        1.877      212.094       72.299        0.116      343.672       19.946      860.741
10/23/2014  16:37:00     -312.630      -54.123      -29.825      200.723      120.300       75.606    40289.810    14472.086     5716.305        8.101        3.024      317.280       82.160        0.067      343.643       19.895      860.742
10/23/2014  16:38:00     -368.555      -39.315      -19.512      144.746      119.687       68.812    20951.288    14325.016     4735.158        8.888        2.001      370.646       67.778        0.033      343.640       19.890      860.752
10/23/2014  16:39:00     -301.781     -100.760        0.377      236.297      167.078       95.195    55836.133    27914.995     9062.058        9.700        4.641      318.158      108.136        0.116      343.699       19.991      860.746
10/23/2014  16:40:00     -384.831      -77.127      -13.492      208.340      156.199       78.633    43405.506    24398.262     6183.214       11.409        3.699      392.484       89.704        0.052      343.622       19.859      860.766
10/23/2014  16:41:00     -421.681      -41.100       -0.042      177.364      152.906       91.285    31457.860    23380.131     8332.990       12.133        3.159      423.679       77.900        0.034      343.571       19.772      860.746
10/23/2014  16:42:00     -456.253     -105.806      -16.973      193.706      152.837       90.039    37521.959    23359.265     8106.970       14.431        3.449      468.361       98.395        0.044      343.531       19.705      860.788
10/23/2014  16:43:00     -467.519     -120.703      -26.512      119.138      121.181       63.909    14193.799    14684.776     4084.316       13.340        1.648      482.849       59.968        0.015      343.492       19.639      860.798
10/23/2014  16:44:00     -463.446      -79.167      -41.256      156.630      124.474       67.997    24533.007    15493.677     4623.533       13.369        2.233      470.159       49.479        0.011      343.540       19.719      860.806
10/23/2014  16:45:00     -445.959     -108.812      -18.443      186.632      124.328       78.902    34831.488    15457.467     6225.510       13.378        2.826      459.042       84.011        0.033      343.538       19.717      860.805
10/23/2014  16:46:00     -378.133     -139.013       -8.062      187.491      131.020       90.235    35152.785    17166.331     8142.359       11.141        3.023      402.876       92.116        0.052      343.605       19.830      860.776
10/23/2014  16:47:00     -458.640      -78.194      -14.662      182.476      148.928       81.133    33297.343    22179.410     6582.624       13.936        3.103      465.258       94.006        0.041      343.572       19.772      860.777
10/23/2014  16:48:00     -184.485     -131.117       19.636      117.380      107.485       65.140    13778.083    11552.954     4243.169        4.059        1.479      226.333       63.260        0.078      343.673       19.947      860.804
10/23/2014  16:49:00     -159.371     -149.609        3.613      125.790       95.391       68.579    15823.148     9099.404     4703.068        3.871        1.481      218.591       71.402        0.107      343.691       19.979      860.813
10/23/2014  16:50:00     -216.592     -154.891        3.243      152.988      118.260       63.931    23405.256    13985.403     4087.152        5.619        2.074      266.277       80.291        0.091      343.664       19.933      860.798
10/23/2014  16:51:00     -348.922     -142.649      -30.495      192.693      129.486       67.473    37130.645    16766.668     4552.599       10.073        2.922      376.955       63.380        0.028      343.666       19.935      860.791
10/23/2014  16:52:00     -308.609     -111.610      -19.171      134.487       97.589       66.208    18086.844     9523.639     4383.553        7.002        1.600      328.171       73.938        0.051      343.590       19.805      860.792
10/23/2014  16:53:00     -331.833     -223.844        3.767      189.264      153.201       89.698    35820.918    23470.494     8045.729       11.377        3.367      400.274      101.798        0.065      343.640       19.892      860.740
10/23/2014  16:54:00     -218.818      -84.296       10.111      138.159      122.795       68.178    19087.930    15078.663     4648.299        4.695        1.941      234.494       66.643        0.081      343.703       19.997      860.762
10/23/2014  16:55:00     -175.449     -149.723       -2.050      147.250      123.566       71.495    21682.571    15268.525     5111.561        4.763        2.103      230.650       72.273        0.098      343.690       19.976      860.759
10/23/2014  16:56:00     -241.105     -105.729       -1.947      125.318      116.904       68.943    15704.502    13666.534     4753.089        5.171        1.706      263.268       56.519        0.046      343.725       20.036      860.765
10/23/2014  16:57:00     -251.963      -66.279       -7.558      102.772       90.045       62.423    10561.998     8108.149     3896.636        4.525        1.128      260.534       61.479        0.056      343.759       20.094      860.790
10/23/2014  16:58:00     -252.858      -76.650      -19.478      101.825       83.827       47.998    10368.374     7027.010     2303.794        4.494        0.985      264.221       42.139        0.025      343.716       20.021      860.796
10/23/2014  16:59:00     -261.716      -25.445       -4.456      131.287      109.436       58.485    17236.258    11976.333     3420.443        5.089        1.632      262.950       71.820        0.075      343.736       20.055      860.801
10/23/2014  17:00:00     -330.121      -19.889      -12.062      181.467      121.004       68.825    32930.182    14641.898     4736.857        8.091        2.615      330.719       80.854        0.060      343.684       19.967      860.792
10/23/2014  17:01:00     -367.896      -91.662      -14.043      166.925      121.847       69.359    27863.892    14846.572     4810.728        9.573        2.376      379.143       69.960        0.034      343.666       19.935      860.772
10/23/2014  17:02:00     -314.563       10.519      -10.459      192.465      112.119       77.139    37042.623    12570.624     5950.487        7.736        2.778      314.739       98.121        0.097      343.632       19.879      860.755
10/23/2014  17:03:00     -373.830      -30.183       -6.367      120.218      100.277       60.864    14452.434    10055.414     3704.463        8.445        1.411      375.047       47.610        0.016      343.632       19.876      860.741
10/23/2014  17:04:00     -464.121     -111.341      -20.830      179.622      157.044       81.162    32264.000    24662.926     6587.327       14.587        3.176      477.290       84.350        0.031      343.548       19.733      860.730
10/23/2014  17:05:00     -486.672      -96.207      -19.100      177.270      131.100       74.782    31424.482    17187.204     5592.274       15.033        2.710      496.090       82.822        0.028      343.528       19.700      860.721
10/23/2014  17:06:00     -273.603      -51.779       -4.490      177.121      132.670       62.584    31371.976    17601.321     3916.794        6.522        2.645      278.459       70.032        0.063      343.625       19.865      860.737
10/23/2014  17:07:00     -195.248     -136.063        6.559      150.715      105.962       70.724    22715.115    11227.968     5001.954        4.780        1.947      237.981       74.059        0.097      343.675       19.950      860.772
10/23/2014  17:08:00     -298.140     -139.365       -1.062      134.787      105.104       72.741    18167.585    11046.843     5291.322        7.140        1.725      329.105       73.299        0.050      343.605       19.831      860.770
10/23/2014  17:09:00     -212.847      -22.322        0.306      133.679       87.386       58.849    17870.041     7636.290     3463.243        3.738        1.448      214.015       64.506        0.091      343.672       19.946      860.768
10/23/2014  17:10:00     -243.852      -68.849       -5.018      154.745      101.072       67.955    23945.875    10215.615     4617.823        5.150        1.939      253.385       72.336        0.081      343.649       19.908      860.764
10/23/2014  17:11:00     -409.062      -99.975      -32.132      127.065       96.112       66.272    16145.633     9237.443     4391.927       10.406        1.489      421.102       63.314        0.023      343.571       19.772      860.784
10/23/2014  17:12:00     -368.496     -102.195      -22.623      141.160      105.412       51.438    19926.088    11111.612     2645.860        9.021        1.684      382.404       47.723        0.016      343.596       19.816      860.807
10/23/2014  17:13:00     -240.721      -66.563       -5.386      130.074      135.472       58.170    16919.256    18352.628     3383.758        5.052        1.933      249.754       64.343        0.066      343.629       19.871      860.814
10/23/2014  17:14:00     -299.062      -83.779       -9.068      142.853      124.884       70.876    20406.842    15596.108     5023.462        6.878        2.051      310.575       76.906        0.061      343.566       19.765      860.805
10/23/2014  17:15:00     -292.948      -46.572       -9.511      153.864      127.519       65.286    23674.142    16261.101     4262.298        6.613        2.210      296.627       70.361        0.056      343.577       19.784      860.795
10/23/2014  17:16:00     -383.448     -119.235      -11.641      189.534      105.738       66.314    35923.085    11180.507     4397.533       10.643        2.575      401.559       81.012        0.041      343.543       19.725      860.781
10/23/2014  17:17:00     -188.714     -129.915       -2.075      140.691      105.191       70.229    19794.077    11065.245     4932.050        4.414        1.790      229.109       80.689        0.124      343.541       19.722      860.791
10/23/2014  17:18:00     -254.044      -79.245        0.315      198.270      109.544       78.952    39311.019    11999.997     6233.439        6.417        2.877      266.117       83.969        0.100      343.523       19.694      860.793
10/23/2014  17:19:00     -425.068     -168.708      -27.068      169.211      151.020       83.132    28632.363    22807.136     6910.862       13.410        2.918      457.324       86.326        0.036      343.468       19.599      860.776
10/23/2014  17:20:00     -422.588     -169.776      -19.075      208.822      133.004       77.757    43606.732    17690.187     6046.199       13.754        3.367      455.417       96.432        0.045      343.425       19.524      860.763
10/23/2014  17:21:00     -348.607      -57.307      -36.729      193.356      111.834       64.789    37386.481    12506.893     4197.610        9.012        2.705      353.286       88.135        0.062      343.428       19.528      860.741
10/23/2014  17:22:00     -177.898      -29.351       -0.368      129.575       88.887       57.715    16789.561     7900.904     3330.965        3.026        1.401      180.303       58.341        0.105      343.511       19.671      860.698
10/23/2014  17:23:00     -389.042     -114.809       -8.361      228.642      141.008       85.611    52277.117    19883.181     7329.282       12.203        3.974      405.629       99.376        0.060      343.401       19.482      860.685
10/23/2014  17:24:00     -484.954      -67.841      -17.561      208.905      147.626       80.560    43641.182    21793.519     6489.983       15.600        3.596      489.676       92.067        0.035      343.385       19.455      860.690
10/23/2014  17:25:00     -524.221      -97.338      -23.588      194.811      124.524       90.663    37951.424    15506.197     8219.739       17.325        3.084      533.181      102.418        0.037      343.308       19.323      860.703
10/23/2014  17:26:00     -303.116      -61.917       -4.035      165.580      123.442       80.698    27416.830    15237.863     6512.212        7.244        2.458      309.375       85.580        0.077      343.341       19.382      860.752
10/23/2014  17:27:00     -216.655      -80.626       -5.687      167.148      115.016       73.082    27938.592    13228.737     5341.047        4.998        2.325      231.171       77.675        0.113      343.333       19.368      860.776
10/23/2014  17:28:00     -378.253      -88.231      -25.183      150.625      110.170       60.841    22687.795    12137.502     3701.643        9.500        1.926      388.407       65.852        0.029      343.279       19.274      860.817
10/23/2014  17:29:00      -96.940      -60.235       23.017       90.088       95.209       46.974     8115.836     9064.844     2206.567        1.647        0.969      114.130       46.110        0.163      343.317       19.342      860.847
10/23/2014  17:30:00      -98.569      -62.818        8.346      102.335       65.396       42.533    10472.425     4276.623     1809.019        1.514        0.828      116.884       56.830        0.236      343.317       19.342      860.864
10/23/2014  17:31:00     -238.980     -163.509        8.468      189.224      143.002       85.881    35805.807    20449.457     7375.564        7.376        3.182      289.562       94.414        0.106      343.286       19.287      860.860
10/23/2014  17:32:00     -240.624     -118.436      -11.785      128.445      107.547       53.019    16498.078    11566.455     2810.985        5.147        1.544      268.192       43.264        0.026      343.279       19.276      860.901
10/23/2014  17:33:00     -258.272      -93.501       -8.918      174.893      128.884       64.579    30587.411    16611.204     4170.483        6.344        2.568      274.676       57.605        0.044      343.231       19.193      860.889
10/23/2014  17:34:00     -153.364      -84.280       11.293      124.088      136.298       66.347    15397.812    18577.125     4401.878        3.456        1.919      174.996       62.741        0.129      343.228       19.189      860.883
10/23/2014  17:35:00     -293.706     -161.411       10.417      126.203      132.206       67.057    15927.273    17478.551     4496.621        7.516        1.895      335.137       65.690        0.038      343.181       19.108      860.895
10/23/2014  17:36:00     -380.670     -212.929      -40.205      159.271      130.149       76.037    25367.234    16938.765     5781.660       11.997        2.404      436.175       79.987        0.034      343.152       19.060      860.896
10/23/2014  17:37:00     -306.292      -72.140      -19.933      114.775      132.923       69.419    13173.237    17668.597     4818.977        6.753        1.783      314.673       64.646        0.042      343.141       19.039      860.919
10/23/2014  17:38:00     -271.890     -170.514       -3.481      131.904       80.508       57.717    17398.587     6481.557     3331.212        6.511        1.361      320.935       63.898        0.040      343.118       19.003      860.921
10/23/2014  17:39:00     -280.035     -188.105        1.332      175.960      172.082       94.082    30962.086    29612.277     8851.338        9.160        3.471      337.347      108.393        0.103      343.107       18.982      860.958
10/23/2014  17:40:00     -248.558      -31.348       -8.007      105.589      139.102       63.078    11149.023    19349.466     3978.841        4.865        1.724      250.527       53.857        0.046      343.087       18.946      860.945
10/23/2014  17:41:00     -137.758     -112.024        4.776      124.037       98.800       59.484    15385.119     9761.502     3538.298        3.011        1.434      177.557       57.036        0.103      343.064       18.911      860.869
10/23/2014  17:42:00     -292.714     -253.182      -13.446      174.614      124.366       73.128    30490.108    15466.865     5347.657       10.063        2.565      387.018       87.817        0.051      343.128       19.018      860.902
10/23/2014  17:43:00     -245.704     -156.712       -5.322      129.124      131.085       69.126    16673.053    17183.193     4778.437        6.179        1.932      291.426       77.694        0.071      343.076       18.930      860.936
10/23/2014  17:44:00     -394.170     -203.512      -29.539      151.953       99.306       74.367    23089.756     9861.670     5530.412       11.806        1.924      443.607       68.548        0.024      343.064       18.910      860.925
10/23/2014  17:45:00     -287.492     -142.390      -27.970      121.794       58.705       46.771    14833.838     3446.260     2187.535        6.208        1.023      320.822       41.292        0.017      343.035       18.858      860.889
10/23/2014  17:46:00     -261.845     -102.129        1.580      260.559       73.753       48.759    67891.058     5439.508     2377.447        7.734        3.785      281.057       61.658        0.048      343.091       18.955      860.830
10/23/2014  17:47:00     -410.089     -122.052      -15.826      200.447      151.475       87.746    40178.918    22944.599     7699.362       12.706        3.541      427.866      100.214        0.055      343.060       18.901      860.800
10/23/2014  17:48:00     -371.245     -207.522       -7.537      186.232      130.164       88.097    34682.417    16942.737     7761.030       12.016        2.969      425.310       94.583        0.049      343.019       18.832      860.875
10/23/2014  17:49:00     -247.786      -73.637      -10.544      147.640       93.839       73.885    21797.427     8805.801     5459.041        5.149        1.803      258.496       84.301        0.106      343.002       18.804      860.861
10/23/2014  17:50:00     -170.687      -43.369       12.799      185.110      106.026       73.392    34265.855    11241.532     5386.426        4.103        2.545      176.111       82.694        0.220      342.985       18.775      860.846
10/23/2014  17:51:00     -182.756     -123.488        7.473      153.976      117.298       63.440    23708.612    13758.889     4024.622        4.509        2.075      220.566       70.545        0.102      342.990       18.782      860.859
10/23/2014  17:52:00     -313.905     -185.022      -16.889      135.636       86.859       61.172    18397.046     7544.468     3742.023        8.136        1.484      364.376       66.239        0.033      343.027       18.846      860.858
10/23/2014  17:53:00     -279.031     -119.678       -2.364      154.181      129.893       64.242    23771.869    16872.064     4127.044        6.847        2.239      303.614       77.204        0.065      343.007       18.811      860.853
10/23/2014  17:54:00     -242.534      -74.808       -6.363       96.944       69.581       52.194     9398.072     4841.510     2724.200        4.071        0.848      253.809       47.142        0.034      342.937       18.695      860.816
10/23/2014  17:55:00     -185.929      -51.286        3.228      121.537      103.279       61.907    14771.332    10666.503     3832.468        3.324        1.464      192.872       48.274        0.063      342.886       18.606      860.794
10/23/2014  17:56:00     -214.825      -63.437       10.074      120.587       89.011       57.533    14541.277     7922.949     3310.066        3.802        1.289      223.996       60.463        0.073      342.825       18.502      860.804
10/23/2014  17:57:00     -304.577     -122.337      -13.949      214.920      155.788       77.724    46190.558    24269.970     6040.953        9.220        3.825      328.228       90.822        0.077      342.866       18.574      860.833
10/23/2014  17:58:00     -247.885      -43.668        5.669      147.324      106.289       74.364    21704.221    11297.367     5529.937        5.095        1.927      251.702       76.448        0.092      342.792       18.448      860.834
10/23/2014  17:59:00     -315.211     -163.080       -8.122      159.501       96.644       67.706    25440.439     9340.000     4584.102        8.269        1.968      354.898       66.319        0.035      342.824       18.500      860.829
10/23/2014  18:00:00     -278.226     -183.908        0.558      168.292      114.620       74.340    28322.132    13137.703     5526.509        7.910        2.349      333.514       84.257        0.064      342.860       18.562      860.834
10/23/2014  18:01:00     -238.342     -178.800        0.202      169.968      129.142       72.547    28888.955    16677.528     5263.062        6.979        2.541      297.954       83.925        0.079      342.849       18.543      860.853
10/23/2014  18:02:00     -111.003      -49.198        6.444       98.600       93.220       56.981     9721.983     8690.035     3246.874        1.822        1.083      121.417       55.851        0.212      342.791       18.444      860.827
10/23/2014  18:03:00     -286.330     -105.020       -4.969      152.535       96.828       72.539    23266.863     9375.712     5261.943        6.547        1.895      304.983       78.634        0.066      342.780       18.425      860.806
10/23/2014  18:04:00     -428.056     -136.571      -22.084      186.834      133.555       87.683    34907.005    17836.946     7688.293       13.139        3.022      449.314       89.273        0.039      342.803       18.465      860.795
10/23/2014  18:05:00     -411.368      -12.038      -13.415      163.172      143.190       69.130    26625.240    20503.505     4778.968       11.072        2.595      411.544       72.439        0.031      342.797       18.454      860.831
10/23/2014  18:06:00     -321.017      -65.648      -13.281      190.589      141.435       83.891    36324.091    20003.978     7037.646        8.544        3.168      327.660       96.914        0.087      342.784       18.432      860.860
10/23/2014  18:07:00     -196.238      -68.095        8.567      127.643       76.283       65.113    16292.662     5819.170     4239.697        3.478        1.318      207.717       71.856        0.120      342.739       18.357      860.878
10/23/2014  18:08:00     -212.144      -20.392       -0.210      128.171       76.237       54.778    16427.864     5812.132     3000.619        3.533        1.262      213.122       67.347        0.100      342.774       18.416      860.848
10/23/2014  18:09:00     -235.252      -96.874      -12.163       81.583       79.571       49.579     6655.795     6331.593     2458.063        4.016        0.772      254.417       42.621        0.028      342.767       18.404      860.830
10/23/2014  18:10:00     -170.110      -98.429      -12.479      107.698       83.344       62.970    11598.795     6946.204     3965.192        3.064        1.126      196.534       62.088        0.100      342.734       18.348      860.828
10/23/2014  18:11:00     -242.539     -155.130       -3.312      104.810       68.894       48.466    10985.183     4746.450     2348.933        5.049        0.904      287.907       46.824        0.026      342.718       18.321      860.855
10/23/2014  18:12:00     -150.566      -78.340       -1.802      116.906       78.842       45.883    13667.063     6216.103     2105.207        2.540        1.099      169.727       55.504        0.107      342.689       18.272      860.876
10/23/2014  18:13:00     -186.440     -175.166        3.071      149.190      113.042       81.789    22257.633    12778.579     6689.440        5.358        2.086      255.818       80.797        0.100      342.695       18.280      860.869
10/23/2014  18:14:00     -262.615     -134.058       -5.766      100.953       79.726       54.951    10191.472     6356.195     3019.635        5.327        0.978      294.853       50.093        0.029      342.674       18.245      860.899
10/23/2014  18:15:00     -231.986     -118.453       -1.191      114.368      106.869       58.622    13079.943    11420.906     3436.532        4.789        1.397      260.478       63.811        0.060      342.704       18.297      860.893
10/23/2014  18:16:00     -138.834     -187.787      -20.703       91.024       57.301       39.152     8285.447     3283.382     1532.909        3.403        0.655      233.535       32.748        0.020      342.748       18.371      860.884
10/23/2014  18:17:00     -164.341     -110.525       -4.173      102.945       59.769       33.712    10597.757     3572.336     1136.478        2.727        0.765      198.050       34.319        0.030      342.744       18.366      860.813
10/23/2014  18:18:00      -43.278      -37.332       17.900       91.063       62.670       38.882     8292.498     3927.543     1511.800        0.866        0.687       57.155       42.215        0.546      342.576       18.084      860.770
10/23/2014  18:19:00     -264.515      -96.061       -6.275       84.220       55.667       40.449     7093.071     3098.838     1636.134        4.553        0.591      281.417       38.773        0.019      342.612       18.141      860.821
10/23/2014  18:20:00     -149.494     -104.180        4.058      104.881       73.128       52.133    11000.036     5347.775     2717.798        2.614        0.953      182.214       56.046        0.095      342.603       18.126      860.905
10/23/2014  18:21:00     -125.235     -106.698        6.638      124.971       73.835       43.147    15617.735     5451.642     1861.679        2.502        1.147      164.524       48.051        0.085      342.632       18.176      860.896
10/23/2014  18:22:00     -244.493     -167.259       -8.247      153.295       95.266       72.070    23499.451     9075.620     5194.108        6.279        1.888      296.230       78.280        0.070      342.521       17.986      860.884
10/23/2014  18:23:00      -89.373      -51.496       22.686       97.723       83.138       53.040     9549.837     6911.957     2813.224        1.521        0.964      103.147       60.530        0.344      342.470       17.901      860.870
10/23/2014  18:24:00     -123.856      -69.980        4.110       89.579       70.831       58.223     8024.429     5017.015     3389.967        1.834        0.822      142.258       57.582        0.164      342.467       17.896      860.858
10/23/2014  18:25:00     -177.062     -100.450       -9.575       75.921       58.328       33.490     5764.021     3402.142     1121.593        2.591        0.514      203.571       33.185        0.027      342.584       18.096      860.825
10/23/2014  18:26:00     -308.446      -74.529      -19.393       84.802       78.240       44.419     7191.390     6121.546     1973.011        5.818        0.764      317.323       44.353        0.020      342.590       18.104      860.793
10/23/2014  18:27:00      -74.499      -14.647       30.342      104.765       74.897       51.259    10975.671     5609.599     2627.449        1.295        0.961       75.926       51.878        0.467      342.490       17.936      860.819
10/23/2014  18:28:00     -237.292     -105.011      -13.188       78.051       64.454       39.746     6091.942     4154.336     1579.754        3.967        0.591      259.490       36.302        0.020      342.539       18.016      860.856
10/23/2014  18:29:00     -132.080      -78.074       -0.728       88.026       57.141       33.197     7748.654     3265.132     1102.011        1.783        0.606      153.430       32.435        0.045      342.517       17.979      860.871
10/23/2014  18:30:00     -198.629     -146.295       -2.258      121.460       84.607       63.635    14752.583     7158.394     4049.429        4.341        1.298      246.690       62.189        0.064      342.558       18.048      860.869
10/23/2014  18:31:00     -141.329      -99.427       10.568      121.799       77.710       44.104    14835.017     6038.856     1945.139        2.639        1.141      172.799       56.891        0.108      342.506       17.962      860.851
10/23/2014  18:32:00     -140.982      -85.135        5.084       98.017       54.776       51.475     9607.263     3000.454     2649.637        2.120        0.763      164.694       54.791        0.111      342.522       17.990      860.839
10/23/2014  18:33:00     -209.536     -143.480        1.659      139.962      107.925       58.925    19589.352    11647.881     3472.112        4.960        1.735      253.953       70.038        0.076      342.530       18.004      860.833
10/23/2014  18:34:00     -154.442     -155.742       -7.166       88.423       78.669       48.579     7818.652     6188.800     2359.901        3.226        0.818      219.335       48.363        0.049      342.509       17.966      860.833
10/23/2014  18:35:00      -40.342      -60.271       12.858       56.433       47.533       23.923     3184.651     2259.408      572.314        0.572        0.301       72.527       14.514        0.040      342.459       17.882      860.848
10/23/2014  18:36:00      -14.516     -121.650       12.707       60.090       57.288       32.414     3610.808     3281.949     1050.685        1.156        0.397      122.513       32.547        0.071      342.507       17.965      860.851
10/23/2014  18:37:00      -61.615     -135.253       -0.037       66.342       61.989       30.453     4401.240     3842.604      927.409        1.563        0.459      148.627       30.109        0.041      342.485       17.927      860.885
10/23/2014  18:38:00     -161.289     -107.960      -18.237       67.383       56.917       36.889     4540.485     3239.598     1360.774        2.357        0.457      194.086       35.720        0.034      342.443       17.853      860.871
10/23/2014  18:39:00     -258.116     -164.822       -9.428       95.698       78.283       44.832     9158.161     6128.248     2009.879        5.558        0.865      306.252       48.114        0.025      342.529       18.000      860.851
10/23/2014  18:40:00     -335.801        7.550      -33.200       70.730       58.762       37.158     5002.718     3452.962     1380.700        6.188        0.492      335.886       32.845        0.010      342.769       18.406      860.722
10/23/2014  18:41:00     -112.121     -128.602       -2.165      110.084      103.085       55.798    12118.513    10626.483     3113.455        2.748        1.293      170.615       53.347        0.098      342.603       18.127      860.772
10/23/2014  18:42:00     -144.715     -184.206        4.777      106.056       81.448       52.382    11247.833     6633.703     2743.851        3.776        1.031      234.253       41.083        0.031      342.565       18.059      860.846
10/23/2014  18:43:00     -114.991     -204.629      -11.100       89.614       79.741       53.825     8030.710     6358.598     2897.095        3.625        0.864      234.725       45.266        0.037      342.598       18.116      860.853
10/23/2014  18:44:00     -146.895     -113.103       -0.850      104.487       75.750       53.926    10917.494     5738.004     2908.061        2.696        0.978      185.393       45.906        0.061      342.552       18.040      860.868
10/23/2014  18:45:00     -205.656     -148.545      -13.373       83.456       95.380       39.445     6964.835     9097.344     1555.945        4.108        0.881      253.693       31.676        0.016      342.680       18.254      860.830
10/23/2014  18:46:00     -128.292     -114.897       -3.370       93.056       74.144       49.379     8659.452     5497.355     2438.287        2.313        0.830      172.221       39.763        0.053      342.862       18.567      860.843
10/23/2014  18:47:00     -332.140     -121.646       -9.513      114.983      113.047       66.410    13221.065    12779.627     4410.276        7.780        1.521      353.716       63.367        0.032      342.614       18.144      860.877
10/23/2014  18:48:00     -268.278     -159.444       -7.076      106.543       85.347       53.341    11351.328     7284.027     2845.216        5.946        1.074      312.082       53.720        0.030      342.509       17.965      860.883
10/23/2014  18:49:00     -226.226      -46.790       -9.747       75.139       66.023       43.803     5645.805     4359.063     1918.662        3.269        0.596      231.014       39.131        0.029      342.590       18.102      860.940
10/23/2014  18:50:00     -159.615     -103.866       -5.286       72.412       65.028       41.340     5243.454     4228.581     1708.993        2.374        0.559      190.434       36.664        0.037      342.502       17.954      860.955
10/23/2014  18:51:00     -123.739      -28.890      -15.361       86.259       50.925       31.313     7440.543     2593.389      980.521        1.370        0.551      127.067       36.030        0.080      342.499       17.950      860.927
10/23/2014  18:52:00     -165.910      -27.477       -9.802       55.866       33.541       32.726     3120.993     1124.988     1071.012        1.685        0.266      168.170       29.096        0.030      342.488       17.932      860.866
10/23/2014  18:53:00     -118.293        1.443       -1.829       85.403       39.803       38.153     7293.658     1584.260     1455.649        1.216        0.517      118.302       44.870        0.144      342.444       17.856      860.819
10/23/2014  18:54:00       11.275      -76.582        3.107       28.729       50.965       25.023      825.340     2597.421      626.139        0.502        0.202       77.408       22.764        0.086      342.323       17.653      860.848
10/23/2014  18:55:00      -42.740     -138.191       -3.962       35.943       45.660       20.768     1291.884     2084.851      431.292        1.237        0.190      144.649       16.453        0.013      342.343       17.686      860.965
10/23/2014  18:56:00       51.056      -79.219        5.566       81.883       79.653       34.086     6704.825     6344.675     1161.825        1.156        0.711       94.247       43.967        0.218      342.249       17.527      861.043
10/23/2014  18:57:00      -19.783      -41.909       -7.497       38.329       42.236       33.829     1469.079     1783.890     1144.379        0.330        0.220       46.344       27.421        0.350      342.267       17.556      861.057
10/23/2014  18:58:00      -36.985      -62.913        1.398       24.207       28.869       17.742      585.987      833.401      314.765        0.353        0.087       72.979       11.827        0.026      342.353       17.702      861.055
10/23/2014  18:59:00      -79.072      -17.368        0.049       33.711       42.483       18.628     1136.405     1804.793      347.017        0.492        0.164       80.957       18.500        0.052      342.273       17.569      861.016
10/23/2014  19:00:00       -3.148       14.835        2.295       17.549       48.015       18.664      307.968     2305.473      348.361        0.160        0.148       15.165       20.494        1.826      342.220       17.478      860.954
10/23/2014  19:01:00      -25.007        8.313        5.452       20.827       24.037       14.681      433.776      577.783      215.537        0.098        0.061       26.353       10.001        0.144      342.358       17.712      860.925
10/23/2014  19:02:00       -6.635       46.995       -6.587       22.307       21.022       10.733      497.584      441.939      115.197        0.168        0.053       47.461        9.527        0.040      342.232       17.497      860.948
10/23/2014  19:03:00        6.861       13.873      -13.749       13.675       33.326        9.702      186.998     1110.628       94.124        0.091        0.070       15.477       10.465        0.457      342.046       17.181      861.004
10/23/2014  19:04:00       28.104       14.459        8.784       18.950       16.234        9.989      359.098      263.538       99.775        0.090        0.036       31.605        5.827        0.034      342.023       17.143      861.010
10/23/2014  19:05:00       35.645       15.293        6.182       28.272       17.915       12.165      799.330      320.952      147.976        0.141        0.063       38.787        7.708        0.039      341.893       16.922      860.991
10/23/2014  19:06:00        5.051        9.859      -11.871       13.906       12.199        8.388      193.384      148.827       70.359        0.034        0.021       11.077        7.895        0.508      341.887       16.911      860.978
10/23/2014  19:07:00       45.293       18.122        2.965       11.510       17.918       13.106      132.483      321.067      171.763        0.151        0.031       48.784       11.524        0.056      342.060       17.206      860.984
10/23/2014  19:08:00       50.184       45.183        6.797       25.185       18.504       17.962      634.293      342.404      322.623        0.295        0.065       67.527        8.626        0.016      342.096       17.267      860.984
10/23/2014  19:09:00      -17.857       12.718       -5.490       27.079       18.492       13.639      733.264      341.962      186.018        0.089        0.063       21.923        6.662        0.092      342.187       17.423      861.010
10/23/2014  19:10:00      -39.799       54.596      -14.888       19.318       15.583       11.215      373.181      242.824      125.773        0.276        0.037       67.562        4.082        0.004      342.183       17.415      861.021
10/23/2014  19:11:00        4.272       43.498       -3.483       11.093        9.385        7.665      123.064       88.083       58.755        0.110        0.013       43.707        4.191        0.009      342.221       17.479      860.997
10/23/2014  19:12:00       27.347       15.115        2.390       20.961       19.889       18.748      439.361      395.564      351.492        0.108        0.059       31.246       15.744        0.254      342.001       17.105      860.977
10/23/2014  19:13:00       37.412       48.841       -8.934       29.110       34.875       22.330      847.402     1216.236      498.641        0.321        0.128       61.523       22.720        0.136      342.078       17.236      860.979
10/23/2014  19:14:00       -8.402       24.030      -13.690       10.422       25.163        8.651      108.614      633.162       74.837        0.083        0.041       25.456       12.068        0.225      342.340       17.681      861.007
10/23/2014  19:15:00        5.165      -23.693        0.228       16.727       18.766       12.107      279.789      352.161      146.575        0.068        0.039       24.249       12.099        0.249      342.217       17.473      861.044
10/23/2014  19:16:00       40.326      -72.357      -16.142       18.522       18.015        8.444      343.063      324.551       71.296        0.393        0.037       82.835        4.426        0.003      342.068       17.219      861.062
10/23/2014  19:17:00       42.320      -59.993      -16.441       25.768       33.040       15.647      663.981     1091.627      244.818        0.383        0.100       73.417       10.430        0.020      341.949       17.019      861.033
10/23/2014  19:18:00       12.701      -65.211       -1.999       25.778       31.123       21.219      664.481      968.627      450.263        0.325        0.104       66.436       20.174        0.092      341.904       16.942      861.017
10/23/2014  19:19:00       -2.643      -64.636       -7.886       51.035       40.189       23.584     2604.528     1615.128      556.211        0.451        0.239       64.690       21.290        0.108      341.854       16.855      861.022
10/23/2014  19:20:00        0.728      -43.745        0.925       27.886       24.358       14.880      777.655      593.300      221.400        0.175        0.080       43.751       11.208        0.066      341.712       16.615      861.033
10/23/2014  19:21:00       11.751      -65.008       -0.571       36.721       28.627       27.195     1348.450      819.477      739.570        0.364        0.145       66.061       11.859        0.032      341.738       16.659      861.026
10/23/2014  19:22:00      -11.350      -36.906      -13.775       29.821       30.119       18.857      889.277      907.157      355.583        0.192        0.108       38.612       13.508        0.122      341.795       16.756      861.000
10/23/2014  19:23:00     -122.462      -37.857       -5.059       37.561       29.390       19.493     1410.828      863.760      379.983        0.955        0.133      128.180       14.386        0.013      341.760       16.695      861.001
10/23/2014  19:24:00      -80.216      -26.431       -2.242       42.425       22.648       15.150     1799.894      512.910      229.517        0.484        0.127       84.458       14.078        0.028      341.700       16.595      861.001
10/23/2014  19:25:00      -85.010      -39.474       -2.613       33.772       21.432       14.700     1140.526      459.314      216.079        0.530        0.091       93.728       15.337        0.027      341.672       16.546      860.990
10/23/2014  19:26:00      -52.309      -73.228       -3.757       18.167       18.852       11.142      330.024      355.383      124.138        0.446        0.040       89.992        7.561        0.007      341.787       16.742      860.999
10/23/2014  19:27:00      -65.951      -98.905       -2.804       48.528       62.823       29.126     2354.942     3946.711      848.327        1.064        0.357      118.877       27.382        0.053      341.834       16.821      861.040
10/23/2014  19:28:00     -113.555     -213.819       -5.617       72.623       74.664       42.750     5274.050     5574.683     1827.528        3.566        0.634      242.102       38.193        0.025      341.760       16.692      861.097
10/23/2014  19:29:00     -133.741     -205.922       -4.059       73.725       74.962       42.015     5435.318     5619.373     1765.231        3.656        0.641      245.542       32.704        0.018      341.687       16.570      861.127
10/23/2014  19:30:00     -120.600     -279.996      -15.626       67.904       71.787       43.279     4610.911     5153.402     1873.048        5.241        0.582      304.865       31.179        0.010      341.689       16.573      861.108
10/23/2014  19:31:00      -77.773     -165.011       -2.362       48.863       48.538       29.849     2387.591     2355.936      890.969        1.946        0.282      182.420       27.684        0.023      341.824       16.804      861.056
10/23/2014  19:32:00        2.315        4.761       17.675       48.864       40.789       17.939     2387.726     1663.757      321.823        0.236        0.219        5.294       17.924       11.463      341.674       16.550      860.978
10/23/2014  19:33:00       36.747       33.794       -2.476       12.087       18.431       13.091      146.087      339.707      171.366        0.158        0.033       49.924        4.500        0.008      341.780       16.729      860.941
10/23/2014  19:34:00      -20.349       18.740       -4.352       23.638       19.462        8.897      558.743      378.786       79.162        0.090        0.051       27.664        7.725        0.078      341.865       16.875      860.985
10/23/2014  19:35:00     -123.521      -52.129      -11.177       62.477       43.051       25.172     3903.419     1853.409      633.618        1.224        0.320      134.070       17.515        0.017      341.535       16.314      861.067
10/23/2014  19:36:00     -137.373      -92.817       -4.152       70.990       47.260       29.632     5039.553     2233.538      878.035        1.783        0.408      165.790       29.440        0.032      341.444       16.159      861.143
10/23/2014  19:37:00     -106.740      -58.575       -9.071       54.737       59.373       30.905     2996.108     3525.124      955.132        1.119        0.374      121.756       25.867        0.045      341.456       16.179      861.163
10/23/2014  19:38:00      -58.730      -23.676       -1.015       30.512       33.917       20.409      931.010     1150.382      416.537        0.325        0.125       63.323       17.893        0.080      341.482       16.223      861.139
10/23/2014  19:39:00      -39.245      -49.903        1.801       29.223       30.824       18.166      854.001      950.119      329.993        0.308        0.107       63.486       15.358        0.059      341.547       16.335      861.086
10/23/2014  19:40:00      -80.726      -18.610       -4.850       30.560       36.883       17.955      933.938     1360.323      322.397        0.475        0.131       82.844       16.741        0.041      341.534       16.313      861.014
10/23/2014  19:41:00     -124.180       -3.367       -6.216       37.758       43.467       28.609     1425.697     1889.382      818.496        0.980        0.207      124.226       26.598        0.046      341.582       16.395      861.024
10/23/2014  19:42:00     -134.952      -12.266       -1.122       64.679       46.414       25.362     4183.336     2154.283      643.241        1.267        0.349      135.509       24.334        0.032      341.375       16.044      861.094
10/23/2014  19:43:00     -187.525      -50.779       -5.885       46.958       34.663       28.771     2205.030     1201.515      827.783        2.101        0.212      194.279       29.820        0.024      341.144       15.650      861.164
10/23/2014  19:44:00     -151.452      -18.780       -7.660       47.037       42.504       23.810     2212.501     1806.551      566.895        1.397        0.229      152.612       23.053        0.023      341.057       15.506      861.187
10/23/2014  19:45:00     -129.145      -41.927       -7.553       25.851       23.578       14.734      668.251      555.943      217.090        0.997        0.072      135.781       10.874        0.006      341.081       15.546      861.179
10/23/2014  19:46:00      -93.994      -23.074       -8.817       32.851       35.906       18.023     1079.186     1289.217      324.811        0.607        0.135       96.784       12.008        0.015      341.229       15.797      861.125
10/23/2014  19:47:00      -76.663       39.307       -2.777       27.381       33.463       24.745      749.742     1119.778      612.330        0.496        0.124       86.153       15.044        0.030      341.481       16.224      861.050
10/23/2014  19:48:00      -80.448      -59.715       -6.235       38.070       29.251       19.391     1449.357      855.621      376.001        0.638        0.134      100.188       16.085        0.026      341.200       15.748      861.034
10/23/2014  19:49:00      -59.486      -56.723        5.120       55.574       31.512       25.666     3088.505      993.018      658.730        0.576        0.237       82.195       30.111        0.134      340.953       15.330      861.081
10/23/2014  19:50:00       -7.762      -31.718       17.831       37.587       20.778       22.145     1412.815      431.735      490.383        0.186        0.117       32.654       21.823        0.447      340.881       15.209      861.127
10/23/2014  19:51:00      -16.412      -54.192        4.650       15.259       24.465       11.976      232.851      598.547      143.434        0.210        0.049       56.623        7.324        0.017      340.984       15.383      861.141
10/23/2014  19:52:00      -11.649       12.461       37.104       22.194       32.338       29.976      492.570     1045.761      898.570        0.205        0.122       17.058       21.322        1.562      340.876       15.200      861.124
10/23/2014  19:53:00        1.552       92.338      104.999       39.720       53.278       35.151     1577.677     2838.509     1235.593        1.260        0.283       92.352       39.901        0.187      340.971       15.361      861.081
10/23/2014  19:54:00       12.913       37.658       50.243       24.943       29.523       23.501      622.144      871.595      552.314        0.308        0.102       39.811       18.026        0.205      341.043       15.483      861.045
10/23/2014  19:55:00       -0.560       38.244        9.159       15.204       17.775       17.849      231.162      315.938      318.602        0.121        0.043       38.248       15.312        0.160      341.033       15.467      861.045
10/23/2014  19:56:00      -57.443       63.729      -19.475       26.117       17.866        9.600      682.075      319.178       92.168        0.442        0.055       85.797        8.024        0.009      341.059       15.508      861.074
10/23/2014  19:57:00      -93.087       56.819      -11.429       25.820       37.919       22.759      666.683     1437.887      517.978        0.732        0.131      109.058       16.654        0.023      341.470       16.205      861.088
10/23/2014  19:58:00      -93.718      -19.723       -0.292       33.677       42.366       18.530     1134.146     1794.913      343.344        0.622        0.164       95.771       18.855        0.039      341.229       15.797      861.088
10/23/2014  19:59:00     -143.758      -55.575      -11.740       22.892       28.089       13.865      524.026      788.974      192.251        1.270        0.075      154.127        7.049        0.002      340.654       14.822      861.112
10/23/2014  20:00:00     -111.852      -52.933        0.738       48.885       29.700       22.060     2389.778      882.080      486.635        0.954        0.188      123.745       24.766        0.040      340.755       14.996      861.127
10/23/2014  20:01:00      -78.658      -48.587       -5.040       57.632       39.597       21.326     3321.425     1567.925      454.816        0.696        0.267       92.454       28.116        0.092      340.708       14.915      861.141
10/23/2014  20:02:00      -39.213      -10.373       -2.459       33.156       22.193       14.053     1099.344      492.534      197.488        0.172        0.089       40.562       11.913        0.086      340.646       14.811      861.152
10/23/2014  20:03:00     -100.737       71.553      -28.240       27.688       23.545       17.301      766.620      554.363      299.323        0.884        0.081      123.563       17.912        0.021      340.990       15.392      861.122
10/23/2014  20:04:00     -109.173       87.006      -25.539       19.436       21.953       15.073      377.764      481.926      227.210        1.061        0.054      139.602       11.536        0.007      340.956       15.335      861.096
10/23/2014  20:05:00     -118.565       80.444      -26.861       20.130       24.099       15.359      405.221      580.782      235.891        1.124        0.061      143.279       12.178        0.007      340.909       15.256      861.103
10/23/2014  20:06:00      -48.311       12.833      -11.566       36.413       34.667       18.125     1325.908     1201.821      328.509        0.274        0.143       49.987       16.899        0.114      341.025       15.452      861.099
10/23/2014  20:07:00      -70.304        8.181       -3.766       22.760       33.402       16.256      518.000     1115.682      264.270        0.346        0.095       70.779        6.486        0.008      340.984       15.382      861.098
10/23/2014  20:08:00        6.195      -18.418       -5.704       22.999       36.229       14.703      528.932     1312.568      216.175        0.123        0.103       19.432       11.731        0.364      340.824       15.112      861.115
10/23/2014  20:09:00       19.853        5.660       -2.256       25.523       26.696       22.042      651.417      712.656      485.870        0.114        0.092       20.644       14.301        0.480      340.810       15.090      861.105
10/23/2014  20:10:00       12.404       13.311       13.426       17.874       23.380       29.553      319.489      546.636      873.408        0.113        0.087       18.195       25.537        1.970      340.555       14.657      861.110
10/23/2014  20:11:00      -32.629      -38.002       -8.336       36.336       13.342        9.194     1320.273      177.996       84.538        0.208        0.079       50.088       10.677        0.045      340.732       14.956      861.159
10/23/2014  20:12:00     -129.132      -23.364      -14.497       29.725       30.719       16.428      883.585      943.650      269.881        0.976        0.105      131.229        9.368        0.005      340.507       14.576      861.215
10/23/2014  20:13:00     -110.232       -2.785      -11.821       56.572       35.201       28.192     3200.387     1239.106      794.815        0.877        0.262      110.267       26.318        0.057      340.847       15.150      861.224
10/23/2014  20:14:00     -166.916      -18.317      -14.491       64.660       41.305       32.542     4180.903     1706.118     1058.954        1.767        0.347      167.918       35.952        0.046      340.596       14.724      861.217
10/23/2014  20:15:00     -178.268      -35.331      -18.337       36.797       33.348       23.520     1354.048     1112.111      553.211        1.819        0.151      181.736       19.852        0.012      340.328       14.273      861.200
10/23/2014  20:16:00     -119.160       -1.571       -5.897       54.855       51.632       25.645     3009.099     2665.846      657.676        1.028        0.317      119.170       21.178        0.032      340.453       14.484      861.161
10/23/2014  20:17:00     -186.785       50.539      -18.487       49.286       33.829       24.329     2429.123     1144.403      591.894        2.097        0.208      193.502       22.811        0.014      340.330       14.275      861.101
10/23/2014  20:18:00     -105.605       16.898      -14.837       43.727       40.499       30.464     1912.085     1640.179      928.056        0.807        0.224      106.948       19.587        0.034      340.225       14.099      861.068
10/23/2014  20:19:00     -127.776      -28.162      -14.978       52.061       63.448       32.433     2710.297     4025.617     1051.908        1.256        0.389      130.843       32.185        0.061      340.067       13.832      861.064
10/23/2014  20:20:00     -131.044      -68.452      -28.648       51.340       40.679       33.667     2635.808     1654.781     1133.440        1.405        0.271      147.845       17.468        0.014      339.932       13.603      861.119
10/23/2014  20:21:00     -185.105      -72.548      -19.334       42.806       48.703       24.219     1832.379     2371.940      586.555        2.235        0.240      198.814       18.573        0.009      339.841       13.450      861.185
10/23/2014  20:22:00     -139.576      -10.061      -11.941       48.204       38.828       28.130     2323.604     1507.648      791.292        1.217        0.231      139.938       22.665        0.026      339.894       13.541      861.215
10/23/2014  20:23:00     -147.610       -2.002      -20.239       35.205       26.763       24.841     1239.414      716.284      617.062        1.239        0.129      147.624       17.936        0.015      340.035       13.777      861.197
10/23/2014  20:24:00      -99.093      -18.420      -10.578       57.555       25.008       20.767     3312.540      625.379      431.267        0.732        0.218      100.790       23.204        0.053      340.053       13.807      861.150
10/23/2014  20:25:00      -32.332        0.209       -6.995       27.415       27.653       20.863      751.569      764.664      435.275        0.152        0.098       32.333       15.134        0.219      340.057       13.815      861.105
10/23/2014  20:26:00      -39.701        7.868      -13.245       23.818       24.317       16.744      567.320      591.293      280.371        0.163        0.072       40.473       11.577        0.082      340.118       13.919      861.099
10/23/2014  20:27:00      -70.904      -11.499       -9.005       34.922       17.749       12.340     1219.573      315.010      152.281        0.346        0.084       71.830        9.131        0.016      340.131       13.939      861.110
10/23/2014  20:28:00     -183.371       46.878      -14.527       53.494       36.686       25.143     2861.604     1345.896      632.156        2.044        0.242      189.268       17.947        0.009      340.242       14.126      861.141
10/23/2014  20:29:00     -172.425       56.205      -26.135       48.177       40.008       24.567     2321.053     1600.624      603.523        1.905        0.226      181.355       24.076        0.018      340.288       14.203      861.160
10/23/2014  20:30:00     -118.197      -16.199       -8.624       49.764       42.235       24.697     2476.490     1783.777      609.920        0.959        0.244      119.302       23.364        0.038      340.260       14.158      861.162
10/23/2014  20:31:00     -118.940       40.516      -24.474       43.508       38.124       27.949     1892.932     1453.404      781.154        1.026        0.206      125.651       21.709        0.030      340.310       14.243      861.158
10/23/2014  20:32:00      -76.737        4.069      -11.470       33.530       29.390       19.359     1124.275      863.774      374.785        0.420        0.118       76.845       15.214        0.039      340.313       14.247      861.152
10/23/2014  20:33:00      -77.769       -5.676      -10.558       30.362       34.122       20.390      921.832     1164.300      415.772        0.435        0.125       77.976       18.393        0.056      340.271       14.176      861.179
10/23/2014  20:34:00     -108.585      -29.065       -9.765       19.555       24.088       16.732      382.391      580.255      279.975        0.699        0.062      112.407       10.277        0.008      340.173       14.011      861.188
10/23/2014  20:35:00      -78.114      -31.010       -2.449       33.424       22.467       14.695     1117.170      504.764      215.936        0.445        0.092       84.044       13.924        0.027      339.995       13.711      861.182
10/23/2014  20:36:00      -54.020       -4.329       -3.928       19.657       26.179       13.623      386.407      685.326      185.579        0.210        0.063       54.193        6.526        0.014      339.991       13.703      861.169
10/23/2014  20:37:00      -54.171       -2.109       -2.820       23.141       22.650       14.116      535.495      513.019      199.263        0.210        0.062       54.212       10.758        0.039      340.174       14.012      861.161
10/23/2014  20:38:00      -44.373      -14.663       -7.970       16.586       23.038        9.827      275.090      530.750       96.575        0.157        0.045       46.732        5.174        0.012      340.143       13.961      861.189
10/23/2014  20:39:00      -72.832      -19.500       -2.189       42.357       15.232       12.387     1794.129      232.012      153.444        0.393        0.109       75.397       14.864        0.039      340.091       13.872      861.217
10/23/2014  20:40:00     -101.234      -30.966       -2.969       26.216       22.707       13.740      687.295      515.616      188.782        0.630        0.070      105.864       13.990        0.017      340.018       13.749      861.232
10/23/2014  20:41:00      -86.898      -46.566       -9.360       31.255       32.390       18.290      976.906     1049.125      334.539        0.608        0.118       98.588       15.310        0.024      340.010       13.736      861.240
10/23/2014  20:42:00     -109.475      -25.099      -12.798       44.673       31.619       15.418     1995.666      999.777      237.726        0.801        0.162      112.316       16.797        0.022      339.934       13.608      861.239
10/23/2014  20:43:00     -136.989        6.722      -24.874       56.295       48.680       26.779     3169.156     2369.767      717.129        1.284        0.313      137.153       23.987        0.031      339.915       13.575      861.240
10/23/2014  20:44:00     -183.345       37.006      -22.828       54.944       41.727       31.394     3018.849     1741.109      985.563        2.062        0.287      187.042       26.729        0.020      339.965       13.658      861.252
10/23/2014  20:45:00     -149.746       -4.928       -9.841       52.983       53.353       28.933     2807.187     2846.538      837.107        1.452        0.325      149.827       24.063        0.026      339.852       13.468      861.269
10/23/2014  20:46:00     -146.611      -11.619      -20.120       57.098       41.755       26.121     3260.130     1743.493      682.311        1.386        0.284      147.071       23.986        0.027      339.855       13.475      861.269
10/23/2014  20:47:00     -130.104       -5.611      -10.866       53.677       49.502       32.924     2881.224     2450.423     1084.017        1.175        0.321      130.225       29.554        0.052      339.784       13.354      861.255
10/23/2014  20:48:00      -45.795        6.282        1.407       33.936       34.747       14.836     1151.681     1207.325      220.122        0.236        0.129       46.224       13.784        0.089      339.768       13.328      861.200
10/23/2014  20:49:00      -27.964        7.903        1.885       20.256       12.324       11.908      410.308      151.890      141.806        0.078        0.035       29.059       11.330        0.152      339.753       13.303      861.157
10/23/2014  20:50:00      -67.381       -5.955      -20.425       17.478       19.418       17.127      305.497      377.061      293.345        0.298        0.049       67.644        8.222        0.015      339.857       13.477      861.198
10/23/2014  20:51:00      -68.641      -42.465       -3.990       36.321       24.426       18.991     1319.188      596.618      360.659        0.440        0.114       80.715       20.279        0.063      339.803       13.387      861.276
10/23/2014  20:52:00      -97.085      -40.243       -5.158       40.002       29.285       16.941     1600.160      857.615      287.008        0.691        0.137      105.095       21.283        0.041      339.765       13.322      861.301
10/23/2014  20:53:00      -88.550        9.548      -14.871       42.009       29.718       23.115     1764.739      883.167      534.303        0.567        0.159       89.064       23.489        0.070      339.715       13.239      861.266
10/23/2014  20:54:00      -75.014       51.743      -19.021       26.902       43.664       20.548      723.737     1906.566      422.210        0.586        0.153       91.128       15.971        0.031      339.845       13.457      861.226
10/23/2014  20:55:00      -72.501       34.284       -4.250       30.922       30.397       22.500      956.142      923.947      506.255        0.442        0.119       80.198       15.613        0.038      339.872       13.504      861.190
10/23/2014  20:56:00      -59.963       -4.173       -3.268       36.182       34.941       23.792     1309.109     1220.848      566.066        0.336        0.155       60.108       25.248        0.176      339.858       13.482      861.166
10/23/2014  20:57:00      -30.355       -1.958        2.190       32.465       27.157       21.036     1053.970      737.481      442.523        0.158        0.112       30.418       21.683        0.508      340.002       13.721      861.182
10/23/2014  20:58:00      -12.461      -18.990      -10.558       20.368       27.111       13.648      414.843      735.014      186.263        0.098        0.067       22.713        8.556        0.142      340.092       13.874      861.208
10/23/2014  20:59:00     -120.493      -41.062       -9.140       30.019       27.121       14.749      901.154      735.568      217.527        0.907        0.093      127.298        9.880        0.006      339.852       13.471      861.247
10/23/2014  21:00:00     -142.648      -41.314      -13.726       31.228       29.290       18.083      975.176      857.922      326.984        1.220        0.108      148.510       17.774        0.014      339.639       13.110      861.298
10/23/2014  21:01:00      -93.847       -5.885       -4.859       45.920       29.393       16.061     2108.647      863.959      257.964        0.605        0.162       94.032       17.747        0.036      339.570       12.994      861.330
10/23/2014  21:02:00      -36.761        3.398       -1.652       19.758       17.802       11.496      390.397      316.907      132.158        0.110        0.042       36.918        9.050        0.060      339.540       12.944      861.305
10/23/2014  21:03:00      -32.950      -19.646       -6.520       19.382       14.542       11.939      375.665      211.470      142.541        0.112        0.036       38.362        6.198        0.026      339.620       13.079      861.301
10/23/2014  21:04:00      -39.953       -4.490       -9.468       34.289       18.988       17.214     1175.749      360.561      296.334        0.177        0.092       40.204       15.662        0.152      339.652       13.133      861.348
10/23/2014  21:05:00      -82.660      -29.953      -13.738       20.150       25.487       13.795      406.015      649.592      190.303        0.458        0.062       87.920       11.024        0.016      339.819       13.415      861.375
10/23/2014  21:06:00     -109.224        6.346       -8.317       41.157       38.677       19.952     1693.919     1495.903      398.064        0.781        0.179      109.408       18.352        0.028      339.746       13.291      861.351
10/23/2014  21:07:00     -120.305       -8.488      -12.780       42.185       34.233       22.548     1779.568     1171.916      508.402        0.908        0.173      120.605       18.465        0.023      339.830       13.433      861.338
10/23/2014  21:08:00      -45.998      -19.375       -3.008       44.661       32.821       17.650     1994.621     1077.218      311.534        0.294        0.169       49.912       18.051        0.131      339.715       13.238      861.336
10/23/2014  21:09:00      -68.422       -2.741       -9.200       22.391       25.656       14.978      501.376      658.246      224.327        0.308        0.069       68.477        5.919        0.007      339.629       13.093      861.334
10/23/2014  21:10:00      -68.418      -12.905       -5.238       20.965       32.789       17.593      439.544     1075.120      309.519        0.335        0.091       69.624       17.525        0.063      339.692       13.201      861.312
10/23/2014  21:11:00      -68.515      -29.342       -9.240       17.591       22.006       17.038      309.443      484.281      290.295        0.336        0.054       74.534       10.158        0.019      339.603       13.050      861.316
10/23/2014  21:12:00     -121.516      -63.945      -10.765       31.727       27.855       19.646     1006.587      775.880      385.959        1.057        0.108      137.314       11.502        0.007      339.532       12.930      861.357
10/23/2014  21:13:00     -157.694      -64.823       -3.710       49.240       54.781       23.609     2424.612     3000.964      557.370        1.753        0.299      170.497       21.400        0.016      339.499       12.872      861.405
10/23/2014  21:14:00     -166.749        0.624      -10.857       46.653       32.755       28.314     2176.532     1072.861      801.697        1.599        0.203      166.750       27.511        0.027      339.489       12.857      861.442
10/23/2014  21:15:00     -132.134      -22.365      -10.131       44.360       30.450       24.959     1967.803      927.178      622.972        1.079        0.176      134.013       26.125        0.038      339.487       12.852      861.451
10/23/2014  21:16:00      -89.224       -7.660       -7.363       40.320       28.855       22.501     1625.699      832.593      506.303        0.552        0.148       89.553       22.775        0.065      339.444       12.781      861.444
10/23/2014  21:17:00      -93.751        8.528       -9.936       40.644       48.304       26.808     1651.894     2333.302      718.650        0.683        0.235       94.138       26.189        0.077      339.509       12.891      861.457
10/23/2014  21:18:00     -134.394       12.832      -10.919       60.772       34.808       28.154     3693.292     1211.564      792.629        1.202        0.285      135.005       28.737        0.045      339.618       13.075      861.458
10/23/2014  21:19:00     -135.228       31.829      -10.761       54.082       35.639       28.042     2924.894     1270.161      786.358        1.220        0.249      138.923       24.760        0.032      339.676       13.173      861.443
10/23/2014  21:20:00     -122.848       -5.261      -12.812       41.174       46.707       26.422     1695.331     2181.570      698.124        0.993        0.229      122.961       15.332        0.016      339.701       13.216      861.416
10/23/2014  21:21:00      -66.076      -28.986       -7.925       76.243       31.748       29.040     5812.994     1007.952      843.327        0.647        0.383       72.154       31.022        0.185      339.663       13.151      861.443
10/23/2014  21:22:00     -145.784      -42.697      -10.321       37.643       31.358       25.383     1416.994      983.345      644.318        1.311        0.152      151.908       18.635        0.015      339.606       13.054      861.504
10/23/2014  21:23:00     -114.052      -18.356       -2.714       55.968       49.916       30.737     3132.384     2491.648      944.784        0.996        0.328      115.520       27.892        0.058      339.479       12.841      861.495
10/23/2014  21:24:00     -223.877       62.187      -22.310       59.749       41.708       32.563     3569.991     1739.530     1060.338        3.043        0.318      232.354       25.370        0.012      339.463       12.809      861.464
10/23/2014  21:25:00     -122.343       -0.521      -18.649       35.646       51.092       25.291     1270.636     2610.385      639.621        0.992        0.226      122.344       15.729        0.017      339.480       12.842      861.458
10/23/2014  21:26:00     -138.248      -32.504      -18.779       28.360       46.040       22.689      804.272     2119.700      514.793        1.198        0.172      142.017       12.346        0.008      339.560       12.977      861.530
10/23/2014  21:27:00      -79.124      -44.352       -1.346       47.011       37.117       21.613     2210.073     1377.648      467.126        0.614        0.203       90.707       17.616        0.038      339.449       12.790      861.591
10/23/2014  21:28:00      -96.127      -55.281       -9.406       26.882       23.616       14.681      722.665      557.714      215.525        0.694        0.075      110.889       12.048        0.012      339.455       12.799      861.602
10/23/2014  21:29:00      -56.575       -7.205       -1.512       21.766       36.843       18.115      473.772     1357.439      328.164        0.271        0.108       57.032       15.480        0.074      339.342       12.608      861.568
10/23/2014  21:30:00     -100.611       -7.144        0.710       38.492       25.013       21.814     1481.638      625.664      475.866        0.638        0.129      100.865       21.493        0.045      339.399       12.705      861.549
10/23/2014  21:31:00     -142.176        8.844       -6.175       43.045       40.698       21.376     1852.903     1656.362      456.942        1.215        0.198      142.451       17.135        0.014      339.442       12.778      861.538
10/23/2014  21:32:00     -175.936       10.198      -23.071       34.579       28.587       18.345     1195.731      817.190      336.556        1.697        0.117      176.232       17.735        0.010      339.583       13.015      861.532
10/23/2014  21:33:00     -155.322       36.982      -15.214       25.997       24.237       16.976      675.832      587.454      288.196        1.364        0.078      159.664       10.816        0.005      339.685       13.188      861.544
10/23/2014  21:34:00     -153.002       -2.057      -16.710       29.743       43.804       22.779      884.641     1918.761      518.877        1.351        0.166      153.016       20.271        0.018      339.755       13.306      861.559
10/23/2014  21:35:00     -167.097       47.877      -12.222       32.925       23.632       14.852     1084.024      558.488      220.581        1.611        0.093      173.820        8.700        0.003      339.862       13.486      861.545
10/23/2014  21:36:00     -135.659       33.302      -21.684       34.730       29.547       23.778     1206.202      873.034      565.382        1.131        0.132      139.687       11.207        0.006      339.809       13.398      861.518
10/23/2014  21:37:00     -132.057       68.848      -23.722       42.335       50.785       28.177     1792.221     2579.144      793.965        1.395        0.258      148.927       26.826        0.032      340.022       13.756      861.497
10/23/2014  21:38:00      -83.591       23.955       -6.277       50.100       62.406       36.733     2509.983     3894.544     1349.308        0.768        0.388       86.956       37.836        0.189      339.977       13.680      861.520
10/23/2014  21:39:00      -87.228       23.415      -18.033       24.826       53.818       13.631      616.309     2896.329      185.796        0.609        0.185       90.316       14.231        0.025      339.933       13.606      861.561
10/23/2014  21:40:00     -107.959        1.901      -25.552       31.492       37.751       19.013      991.735     1425.124      361.504        0.754        0.139      107.976       17.680        0.027      339.912       13.569      861.581
10/23/2014  21:41:00      -79.797      -23.376       -9.675       26.752       34.146       16.870      715.645     1165.919      284.594        0.459        0.108       83.150       15.027        0.033      339.740       13.281      861.597
10/23/2014  21:42:00     -108.144       31.970      -15.793       46.490       38.204       28.976     2161.352     1459.517      839.586        0.871        0.223      112.771       22.137        0.039      339.960       13.650      861.588
10/23/2014  21:43:00      -46.896       -3.830       -5.649       22.038       22.820       14.679      485.658      520.732      215.469        0.173        0.061       47.052       12.168        0.067      339.686       13.190      861.591
10/23/2014  21:44:00      -86.746       44.679      -15.787       29.654       33.335       20.392      879.343     1111.241      415.840        0.609        0.120       97.576       11.840        0.015      339.895       13.543      861.584
10/23/2014  21:45:00     -108.799       91.864      -23.471       43.931       46.155       31.758     1929.931     2130.269     1008.555        1.295        0.253      142.395       26.034        0.033      340.010       13.736      861.561
10/23/2014  21:46:00     -109.222       25.991      -15.289       43.828       29.389       20.175     1920.911      863.740      407.046        0.801        0.160      112.272       17.177        0.023      339.859       13.482      861.560
10/23/2014  21:47:00     -149.589       36.260      -13.978       36.337       40.363       26.317     1320.380     1629.166      692.569        1.376        0.182      153.921       20.082        0.017      339.867       13.496      861.578
10/23/2014  21:48:00     -127.950       42.879      -16.409       41.625       40.694       23.285     1732.602     1656.003      542.170        1.120        0.197      134.943       19.371        0.021      339.948       13.632      861.576
10/23/2014  21:49:00     -159.735       91.737      -28.279       49.416       50.501       29.224     2441.952     2550.368      854.055        2.029        0.292      184.203       27.550        0.022      340.093       13.874      861.577
10/23/2014  21:50:00      -92.961       67.796      -17.700       42.143       39.987       30.544     1776.012     1598.971      932.963        0.893        0.215      115.057       25.270        0.048      340.008       13.734      861.579
10/23/2014  21:51:00      -72.327       69.125       -8.273       39.866       36.722       23.823     1589.278     1348.478      567.534        0.679        0.175      100.048       16.393        0.027      340.076       13.845      861.580
10/23/2014  21:52:00      -12.763       96.173       -6.521       41.193       40.642       22.016     1696.853     1651.805      484.695        0.664        0.192       97.016       21.354        0.048      340.012       13.739      861.584
10/23/2014  21:53:00      -20.294       66.467       -6.657       28.395       30.102       13.023      806.267      906.122      169.591        0.338        0.094       69.496       10.246        0.022      340.014       13.743      861.599
10/23/2014  21:54:00      -58.621       32.410       -9.554       34.424       22.024       12.154     1185.019      485.068      147.718        0.320        0.091       66.984       14.743        0.048      339.966       13.660      861.643
10/23/2014  21:55:00      -67.846       43.305       -7.008       34.656       43.970       15.763     1201.066     1933.326      248.486        0.495        0.169       80.489       11.275        0.020      340.021       13.753      861.669
10/23/2014  21:56:00      -77.948      105.269      -25.909       30.173       24.170       17.284      910.399      584.178      298.727        0.981        0.090      130.987       12.682        0.009      340.116       13.913      861.642
10/23/2014  21:57:00      -43.223      107.969      -11.276       42.396       35.930       25.142     1797.462     1290.985      632.109        0.869        0.186      116.299       20.216        0.030      340.081       13.856      861.614
10/23/2014  21:58:00      -57.273       88.169      -13.553       36.649       37.328       22.569     1343.156     1393.394      509.370        0.724        0.162      105.138       20.915        0.040      340.125       13.929      861.646
10/23/2014  21:59:00      -82.160      115.162      -27.696       35.945       21.102       18.977     1292.026      445.279      360.115        1.144        0.105      141.465       14.887        0.011      340.158       13.985      861.669
10/23/2014  22:00:00      -15.699       91.591       -5.454       55.235       40.660       26.807     3050.887     1653.257      718.601        0.704        0.271       92.927       23.887        0.066      339.924       13.591      861.635
10/23/2014  22:01:00      -29.693       70.600       -0.308       34.550       39.887       24.035     1193.709     1590.941      577.663        0.461        0.168       76.590       24.194        0.100      339.889       13.533      861.623
10/23/2014  22:02:00      -47.465       73.654       -5.852       41.725       57.407       19.199     1740.940     3295.530      368.617        0.656        0.270       87.623       16.104        0.034      340.001       13.721      861.651
10/23/2014  22:03:00      -97.817       40.828       -2.433       83.067       36.394       39.946     6900.048     1324.529     1595.643        1.053        0.491      105.995       34.045        0.103      339.998       13.716      861.684
10/23/2014  22:04:00      -85.914       57.370      -18.959       21.924       50.573       20.719      480.654     2557.594      429.267        0.725        0.173      103.308       18.990        0.034      339.957       13.647      861.690
10/23/2014  22:05:00     -109.238      -23.982       -3.554       39.626       58.180       29.500     1570.191     3384.919      870.275        0.917        0.291      111.839       22.889        0.042      339.914       13.574      861.670
10/23/2014  22:06:00      -96.057        9.229        2.430       57.187       76.992       42.944     3270.337     5927.756     1844.172        1.018        0.552       96.499       40.217        0.174      339.908       13.564      861.676
10/23/2014  22:07:00     -127.426      -27.903      -12.185       55.351       49.187       21.984     3063.771     2419.348      483.288        1.156        0.298      130.445       10.184        0.006      339.851       13.467      861.713
10/23/2014  22:08:00     -145.049       48.884      -32.890       63.182       66.193       34.019     3991.982     4381.476     1157.289        1.702        0.477      153.065       30.780        0.040      339.973       13.672      861.701
10/23/2014  22:09:00     -109.231       69.329      -20.875       40.671       48.066       28.518     1654.134     2310.326      813.292        1.097        0.239      129.375       16.393        0.016      339.980       13.685      861.649
10/23/2014  22:10:00     -139.349      147.395      -31.181       62.171       74.178       43.776     3865.198     5502.325     1916.335        2.670        0.564      202.838       41.066        0.041      340.026       13.760      861.649
10/23/2014  22:11:00     -155.826      154.999      -26.897       64.950       78.034       49.794     4218.557     6089.250     2479.487        3.091        0.639      219.787       43.559        0.039      340.066       13.827      861.678
10/23/2014  22:12:00      -92.127       86.476        2.663       43.904       62.194       33.110     1927.520     3868.050     1096.281        1.143        0.345      126.355       31.840        0.063      339.984       13.692      861.667
10/23/2014  22:13:00     -101.052      108.880       -8.476       39.824       66.372       34.224     1585.986     4405.246     1171.310        1.465        0.358      148.547       30.971        0.043      340.023       13.757      861.665
10/23/2014  22:14:00     -205.025      111.574      -48.029       63.074       61.674       42.307     3978.341     3803.645     1789.905        3.318        0.479      233.418       43.743        0.035      340.095       13.876      861.707
10/23/2014  22:15:00      -93.373      -13.569        0.959       42.997       45.636       26.454     1848.739     2082.656      699.809        0.677        0.232       94.354       12.124        0.017      339.972       13.670      861.739
10/23/2014  22:16:00     -149.384      -34.630      -16.476       41.156       34.945       23.646     1693.839     1221.138      559.150        1.363        0.174      153.345       17.481        0.013      339.941       13.620      861.722
10/23/2014  22:17:00     -116.020       11.981      -10.247       46.565       62.381       28.873     2168.290     3891.410      833.636        1.030        0.345      116.637       24.114        0.043      339.887       13.527      861.694
10/23/2014  22:18:00      -75.611       35.109      -16.406       41.164       75.168       31.700     1694.448     5650.253     1004.883        0.778        0.417       83.365       33.467        0.161      339.930       13.599      861.672
10/23/2014  22:19:00     -116.217       94.238      -12.816       37.615       55.843       25.706     1414.908     3118.398      660.776        1.387        0.260      149.624       19.564        0.017      339.981       13.685      861.674
10/23/2014  22:20:00     -134.856      118.820      -34.100       35.351       75.244       30.603     1249.712     5661.616      936.529        2.066        0.392      179.734       30.519        0.029      340.071       13.838      861.701
10/23/2014  22:21:00     -106.902      124.380      -25.500       42.800       55.249       34.354     1831.848     3052.422     1180.196        1.681        0.303      164.007       33.155        0.041      339.983       13.690      861.732
10/23/2014  22:22:00      -86.379       95.272      -17.870       38.942       52.082       25.520     1516.494     2712.503      651.269        1.087        0.244      128.600       24.947        0.038      339.949       13.633      861.742
10/23/2014  22:23:00     -112.647      120.595      -21.910       33.739       70.092       28.408     1138.310     4912.901      807.033        1.728        0.343      165.023       24.966        0.023      339.950       13.634      861.701
10/23/2014  22:24:00     -110.971       50.007      -13.720       35.595       50.556       23.271     1266.982     2555.958      541.532        0.968        0.218      121.718       25.178        0.043      339.938       13.615      861.688
10/23/2014  22:25:00     -103.823       48.832      -21.479       45.345       54.690       30.696     2056.125     2991.006      942.259        0.981        0.299      114.734       26.920        0.055      339.960       13.652      861.714
10/23/2014  22:26:00      -47.509       53.261        5.162       43.166       42.033       24.484     1863.316     1766.783      599.488        0.467        0.211       71.372       26.798        0.141      339.797       13.376      861.743
10/23/2014  22:27:00      -47.552       90.116      -16.488       27.988       37.384       25.866      783.350     1397.539      669.047        0.675        0.142      101.893       14.176        0.019      339.895       13.543      861.770
10/23/2014  22:28:00        6.480       68.067        2.955       38.310       40.349       25.810     1467.632     1628.080      666.138        0.422        0.188       68.375        9.904        0.021      339.904       13.556      861.752
10/23/2014  22:29:00       13.779       55.523       -3.817       26.960       25.736       19.224      726.830      662.348      369.574        0.252        0.088       57.207        9.496        0.028      339.775       13.340      861.726
10/23/2014  22:30:00       51.511       26.623        0.404       44.011       26.319       22.507     1936.987      692.687      506.555        0.325        0.157       57.984       13.721        0.056      339.613       13.066      861.727
10/23/2014  22:31:00       16.961       29.552       -4.946       18.812       14.796       11.713      353.894      218.908      137.201        0.095        0.036       34.074        8.269        0.059      339.571       12.996      861.762
10/23/2014  22:32:00        0.318       59.904       -6.038       32.502       27.061       18.563     1056.390      732.309      344.598        0.288        0.107       59.905        7.648        0.016      339.634       13.103      861.777
10/23/2014  22:33:00      -14.351       84.785      -15.425       21.123       46.250       13.938      446.193     2139.094      194.261        0.521        0.139       85.990       22.712        0.070      339.738       13.277      861.760
10/23/2014  22:34:00      -33.890       35.299      -11.278       25.519       27.066       14.667      651.215      732.587      215.112        0.206        0.080       48.934        6.587        0.018      339.737       13.277      861.760
10/23/2014  22:35:00      -52.357       22.104       -8.508       29.835       49.742       19.386      890.153     2474.266      375.804        0.352        0.187       56.832       20.927        0.136      339.790       13.366      861.774
10/23/2014  22:36:00      -31.823       28.841       -3.559       15.277       27.868       15.396      233.373      776.630      237.041        0.155        0.062       42.947       17.657        0.169      339.760       13.313      861.774
10/23/2014  22:37:00       -2.683       48.790      -10.789       23.475       28.918        9.274      551.096      836.277       86.002        0.199        0.074       48.864        4.323        0.008      339.763       13.319      861.757
10/23/2014  22:38:00        6.657       45.015       -1.117       16.224       31.956       12.846      263.232     1021.154      165.017        0.176        0.072       45.505       14.709        0.104      339.664       13.152      861.743
10/23/2014  22:39:00       18.919       27.157       -7.538       16.271        9.414        7.292      264.742       88.626       53.168        0.078        0.020       33.097        5.326        0.026      339.675       13.173      861.764
10/23/2014  22:40:00       21.730        5.263       -8.377       12.618       15.674       12.155      159.209      245.683      147.733        0.056        0.028       22.358        2.790        0.016      339.708       13.226      861.810
10/23/2014  22:41:00       37.237       14.804        2.013       17.413       10.681        6.900      303.220      114.080       47.614        0.104        0.023       40.072        5.518        0.019      339.674       13.171      861.798
10/23/2014  22:42:00       61.497       19.992        2.354       11.783       13.300       12.110      138.836      176.895      146.658        0.232        0.023       64.665        8.059        0.016      339.557       12.971      861.757
10/23/2014  22:43:00       30.503       23.897       -7.274       17.644       16.754        9.156      311.325      280.686       83.824        0.112        0.034       38.749        9.147        0.056      339.507       12.886      861.727
10/23/2014  22:44:00       -0.282       61.938       -9.899       13.830       16.404        8.002      191.262      269.106       64.040        0.223        0.026       61.939        5.522        0.008      339.729       13.262      861.746
10/23/2014  22:45:00      -51.047       10.069       -4.704       22.581       24.372       10.622      509.888      593.974      112.830        0.197        0.061       52.030        9.848        0.036      339.515       12.901      861.780
10/23/2014  22:46:00      -67.332       52.788      -17.458       31.001       35.320       16.959      961.048     1247.515      287.614        0.506        0.125       85.557       22.342        0.068      339.679       13.177      861.746
10/23/2014  22:47:00      -87.057       61.189      -16.007       29.024       25.042       18.908      842.385      627.126      357.513        0.670        0.091      106.410       15.182        0.020      339.706       13.223      861.697
10/23/2014  22:48:00       -1.168       35.577       -7.259       27.098       26.541       16.100      734.317      704.420      259.199        0.151        0.085       35.596        6.424        0.033      339.569       12.991      861.697
10/23/2014  22:49:00        3.821       -3.575        1.501       11.755       13.680        7.335      138.188      187.150       53.800        0.020        0.019        5.233        6.750        1.664      339.601       13.046      861.716
10/23/2014  22:50:00       27.937      -11.817       -7.617        7.386       10.960        5.739       54.558      120.119       32.940        0.059        0.010       30.333        3.522        0.013      339.378       12.671      861.720
10/23/2014  22:51:00       10.239       -8.822       -4.881        5.561        5.890        4.501       30.927       34.688       20.257        0.015        0.004       13.515        2.804        0.043      339.403       12.713      861.702
10/23/2014  22:52:00        5.234       26.183       -3.056       14.962       27.342        9.985      223.859      747.598       99.693        0.090        0.054       26.701       13.692        0.263      339.554       12.967      861.669
10/23/2014  22:53:00      -43.108       30.964       -9.863       28.246       35.074       10.696      797.815     1230.155      114.402        0.253        0.107       53.076       10.952        0.043      339.486       12.853      861.682
10/23/2014  22:54:00      -81.054      -13.459       -8.507       13.075       18.417       13.005      170.950      339.184      169.119        0.375        0.034       82.164        6.869        0.007      339.424       12.746      861.709
10/23/2014  22:55:00      -56.041       27.458      -12.576       17.965       21.736        9.637      322.744      472.446       92.872        0.247        0.044       62.407        5.118        0.007      339.433       12.762      861.693
10/23/2014  22:56:00      -43.860       43.506      -12.768       13.431       22.790       11.165      180.382      519.383      124.662        0.240        0.041       61.778        6.138        0.010      339.565       12.986      861.663
10/23/2014  22:57:00      -12.302       18.671       -4.889       20.680       15.759        9.195      427.670      248.349       84.543        0.064        0.038       22.360       11.576        0.268      339.501       12.878      861.685
10/23/2014  22:58:00       32.582       34.494       18.068       14.396       16.800       19.519      207.246      282.230      380.981        0.172        0.044       47.449       12.159        0.066      339.518       12.906      861.737
10/23/2014  22:59:00        4.222       22.434       37.635       13.519       19.260       10.488      182.777      370.960      109.999        0.130        0.033       22.828        7.365        0.104      339.222       12.407      861.772
10/23/2014  23:00:00       -5.593       14.671       29.515        7.453       17.289       15.952       55.549      298.900      254.482        0.086        0.030       15.701       14.122        0.809      338.986       12.009      861.788
10/23/2014  23:01:00       -8.478      -11.441       -5.845        4.215        7.557        4.540       17.769       57.110       20.611        0.017        0.005       14.240        2.181        0.023      339.161       12.304      861.783
10/23/2014  23:02:00      -25.552       25.295       -5.648       10.153       15.878        5.506      103.091      252.122       30.318        0.086        0.019       35.954        6.919        0.037      339.478       12.837      861.720
10/23/2014  23:03:00      -62.409       28.266      -14.401       27.449       14.699        9.505      753.446      216.058       90.339        0.298        0.053       68.512        7.888        0.013      339.374       12.664      861.637
10/23/2014  23:04:00      -83.965      -22.425       -8.242       22.900       37.077       12.924      524.428     1374.738      167.019        0.484        0.103       86.908        8.438        0.009      338.940       11.933      861.645
10/23/2014  23:05:00      -40.062      -34.583        6.501       33.451       18.682       13.873     1118.948      349.026      192.464        0.225        0.083       52.924       12.033        0.052      338.782       11.666      861.710
10/23/2014  23:06:00        9.596      -22.190       11.817       16.349       22.560       11.803      267.283      508.952      139.305        0.082        0.046       24.176        8.233        0.116      338.951       11.951      861.752
10/23/2014  23:07:00       -6.939        2.564        7.019       11.693        8.317        7.320      136.722       69.171       53.583        0.018        0.013        7.398        4.589        0.385      338.969       11.982      861.739
10/23/2014  23:08:00       -5.789       -0.783        4.721       16.388        6.823        7.011      268.574       46.547       49.148        0.021        0.018        5.842        8.425        2.080      339.094       12.191      861.725
10/23/2014  23:09:00       -4.168       -5.246       -5.395        8.013        6.011        4.022       64.201       36.135       16.173        0.010        0.006        6.700        4.306        0.413      338.978       11.996      861.742
10/23/2014  23:10:00       -0.685        0.147        0.959        8.204        6.318        2.376       67.309       39.922        5.643        0.006        0.006        0.700        1.493        4.548      339.018       12.065      861.740
10/23/2014  23:11:00       30.048       23.456        4.150        6.536        7.388        5.797       42.718       54.576       33.610        0.080        0.007       38.119        2.723        0.005      338.990       12.016      861.693
10/23/2014  23:12:00       24.372        7.435       -3.498       12.532        8.721        5.053      157.061       76.058       25.533        0.046        0.013       25.481        3.583        0.020      339.049       12.116      861.684
10/23/2014  23:13:00      -25.410      -22.059       -4.886       26.833       16.968        5.732      720.012      287.915       32.860        0.110        0.052       33.649       10.325        0.094      339.073       12.158      861.721
10/23/2014  23:14:00      -31.062      -19.056       -4.783       22.032       18.334       10.730      485.400      336.141      115.131        0.114        0.047       36.442       10.764        0.087      338.763       11.636      861.758
10/23/2014  23:15:00      -41.131      -19.675       -6.763       11.990        8.048        6.400      143.754       64.771       40.961        0.119        0.012       45.595        3.383        0.006      338.950       11.950      861.750
10/23/2014  23:16:00        2.019       -1.995       -2.453        7.035       15.357        7.018       49.487      235.834       49.254        0.017        0.017        2.838        7.285        6.588      339.385       12.682      861.701
10/23/2014  23:17:00        2.253      -12.127        7.319        9.125       17.739        6.995       83.269      314.658       48.935        0.033        0.022       12.335        6.058        0.241      339.380       12.675      861.694
10/23/2014  23:18:00      -14.412      -11.589       -7.479       13.698       10.782        6.578      187.649      116.248       43.272        0.037        0.017       18.493        6.711        0.132      339.185       12.344      861.752
10/23/2014  23:19:00      -61.882      -30.951       -9.496       21.589       11.024        6.664      466.074      121.524       44.404        0.275        0.032       69.191        4.696        0.005      338.926       11.909      861.794
10/23/2014  23:20:00      -94.800      -40.647      -14.056       15.791       14.365       10.595      249.342      206.354      112.253        0.570        0.028      103.147        5.991        0.003      338.794       11.687      861.749
10/23/2014  23:21:00     -104.262      -24.544      -13.716       13.102       19.979       10.383      171.674      399.176      107.808        0.617        0.034      107.112        6.371        0.004      338.775       11.655      861.720
10/23/2014  23:22:00      -77.289      -30.294      -11.682       13.368       17.476        8.792      178.709      305.400       77.302        0.379        0.028       83.014        6.895        0.007      338.796       11.690      861.718
10/23/2014  23:23:00      -53.114      -33.183       -2.113       13.513        9.604       12.922      182.599       92.245      166.966        0.218        0.022       62.628        9.617        0.024      338.853       11.787      861.739
10/23/2014  23:24:00      -61.512      -34.076       -4.097       14.095       14.978        9.899      198.673      224.329       97.999        0.274        0.026       70.320        7.495        0.011      338.907       11.877      861.758
10/23/2014  23:25:00      -92.194      -45.443       -1.744       20.266       13.685       11.099      410.691      187.268      123.181        0.564        0.036      102.785        8.742        0.007      338.686       11.506      861.786
10/23/2014  23:26:00      -80.777      -51.901       -5.832       37.034       18.219       15.392     1371.490      331.930      236.909        0.560        0.097       96.013        9.391        0.010      338.552       11.282      861.810
10/23/2014  23:27:00      -59.801      -24.741       -4.473       22.985       16.320       12.742      528.329      266.347      162.365        0.258        0.048       64.717       12.042        0.035      338.531       11.246      861.813
10/23/2014  23:28:00      -14.112      -37.519       -0.627       12.523        8.439        7.419      156.835       71.220       55.046        0.095        0.014       40.085        5.547        0.019      338.569       11.308      861.802
10/23/2014  23:29:00        1.785      -52.019       -8.570       15.773       13.930        8.525      248.786      194.051       72.674        0.165        0.026       52.050        7.663        0.022      338.740       11.596      861.798
10/23/2014  23:30:00       -4.204      -60.032      -11.243       19.547       20.402       10.366      382.073      416.229      107.464        0.233        0.045       60.179        6.129        0.010      338.909       11.880      861.809
10/23/2014  23:31:00      -39.641      -35.171        8.637       42.836       37.161       23.661     1834.954     1380.952      559.845        0.333        0.189       52.995       25.031        0.223      338.680       11.496      861.835
10/23/2014  23:32:00     -135.258      -84.058      -16.653       27.814       23.947       21.696      773.592      573.455      470.729        1.373        0.091      159.250       13.410        0.007      338.752       11.617      861.842
10/23/2014  23:33:00     -115.657      -78.859      -17.133       20.780       20.155       16.818      431.818      406.243      282.848        1.050        0.056      139.983       10.397        0.006      338.560       11.293      861.822
10/23/2014  23:34:00      -63.856      -56.620       -3.727       32.800       30.756       17.578     1075.827      945.960      308.972        0.481        0.117       85.343       16.060        0.035      338.355       10.950      861.809
10/23/2014  23:35:00      -61.893      -35.257       -7.745       13.473       26.058       10.443      181.515      679.010      109.050        0.305        0.048       71.231        7.015        0.010      338.446       11.102      861.783
10/23/2014  23:36:00      -50.007      -24.798       -6.869       14.052        7.054        6.807      197.446       49.766       46.342        0.173        0.015       55.818        5.980        0.011      338.569       11.310      861.741
10/23/2014  23:37:00      -71.635      -29.428      -14.130       11.032       11.755        8.044      121.707      138.187       64.699        0.326        0.016       77.444        3.500        0.002      338.450       11.109      861.748
10/23/2014  23:38:00      -12.155      -19.519        3.963       13.999       11.858       12.352      195.984      140.616      152.576        0.052        0.024       22.995        4.290        0.035      338.276       10.818      861.761
10/23/2014  23:39:00      -16.499      -16.904       -4.693        7.901        6.280        3.947       62.422       39.442       15.583        0.035        0.006       23.621        2.640        0.012      338.342       10.927      861.762
10/23/2014  23:40:00      -19.681      -18.536       -2.107       13.234        6.267        5.620      175.139       39.275       31.590        0.049        0.012       27.036        5.502        0.041      338.415       11.052      861.766
10/23/2014  23:41:00       -4.925      -15.258       -0.371        8.026       14.853        6.754       64.409      220.598       45.621        0.029        0.017       16.033        4.870        0.092      338.322       10.896      861.802
10/23/2014  23:42:00       12.633        8.871        2.864        8.119        9.789        6.821       65.924       95.833       46.526        0.023        0.010       15.436        7.540        0.239      338.196       10.684      861.791
10/23/2014  23:43:00       39.613       22.606        6.142       10.139       10.510        8.596      102.804      110.451       73.884        0.120        0.014       45.609        7.077        0.024      338.014       10.379      861.761
10/23/2014  23:44:00       14.137       -0.653        5.480       13.826        9.714       10.786      191.153       94.371      116.341        0.032        0.020       14.152        6.397        0.204      337.944       10.261      861.778
10/23/2014  23:45:00       -7.993      -16.172       -0.151       12.737        8.852        8.941      162.231       78.352       79.939        0.032        0.016       18.039        7.619        0.178      338.169       10.637      861.783
10/23/2014  23:46:00       -7.389      -23.302        1.444       12.900        7.667        7.235      166.402       58.776       52.342        0.044        0.014       24.445        3.920        0.026      338.243       10.763      861.779
10/23/2014  23:47:00        5.287      -16.937        9.234        7.410       16.377        8.600       54.909      268.199       73.966        0.040        0.020       17.743        6.422        0.131      338.170       10.641      861.775
10/23/2014  23:48:00        0.796      -20.444        2.425       23.578       25.084       14.591      555.919      629.213      212.911        0.091        0.070       20.459       14.445        0.499      338.022       10.390      861.793
10/23/2014  23:49:00      -80.609       -6.413      -11.823       16.600       14.866       11.143      275.572      221.003      124.174        0.365        0.031       80.864        7.592        0.009      338.017       10.383      861.816
10/23/2014  23:50:00      -68.034       14.736       -0.168       38.500       19.276       12.717     1482.282      371.567      161.731        0.343        0.101       69.612       11.111        0.025      337.903       10.191      861.822
10/23/2014  23:51:00      -54.725       -5.976       -4.969       25.648       22.605       10.364      657.831      510.987      107.415        0.217        0.064       55.051        8.772        0.025      337.772        9.971      861.836
10/23/2014  23:52:00      -43.133      -22.700        1.687       25.872       17.427       12.231      669.343      303.703      149.601        0.175        0.056       48.742        8.869        0.033      337.796       10.013      861.850
10/23/2014  23:53:00       -1.997      -23.458        9.601       20.256       10.099       11.296      410.320      101.982      127.598        0.064        0.032       23.543        4.885        0.043      337.947       10.263      861.856
10/23/2014  23:54:00      -49.096      -27.477        5.959       26.796       19.648       15.292      718.038      386.036      233.831        0.227        0.067       56.262       16.743        0.089      337.921       10.222      861.879
10/23/2014  23:55:00      -57.020      -51.215        4.096       35.542       28.875       17.997     1263.224      833.769      323.903        0.416        0.121       76.644       18.369        0.057      338.062       10.459      861.896
10/23/2014  23:56:00     -102.852      -39.006       -1.338       24.319       19.089       13.815      591.402      364.382      190.864        0.662        0.057      110.000        1.888        0.000      337.978       10.316      861.864
10/23/2014  23:57:00      -53.113       11.488       -4.911       17.306       16.494       11.096      299.481      272.056      123.114        0.184        0.035       54.341        7.875        0.021      337.753        9.941      861.798
10/23/2014  23:58:00      -59.407      -17.419        0.988       18.339       21.375       15.545      336.335      456.911      241.638        0.243        0.052       61.908       12.623        0.042      337.699        9.851      861.813
10/23/2014  23:59:00     -102.501      -29.852       -5.126       17.062       15.019        9.842      291.107      225.585       96.860        0.602        0.031      106.760        8.199        0.006      337.797       10.013      861.854
